GFSSE_con_mlcape_000.txt.gz
CAPE
169 175 153 194 390 479 409 596 656 856 951 1198 1101 1181 1156 1132 1364 1697 1733 1844 1940 1739 1764 1780 1695 1624 1658 1758 1797 1926 1604 1697 1405 1593 1474 1547 1205 1347 1062 797 818 258 1091
240 220 251 651 375 463 698 562 551 748 802 1012 1063 986 1107 1271 1819 1818 2001 2077 1885 1750 1880 1873 1831 1756 1647 1448 1420 1523 1263 1312 1261 1614 1552 764 668 1383 1170 687 753 584 801
268 353 241 302 283 428 558 648 822 794 729 970 842 970 1012 1579 1892 2149 2178 2075 1993 1984 1933 1901 1747 1697 1625 1648 1477 1413 1389 1084 954 805 390 329 476 621 819 435 605 593 737
198 252 211 432 680 428 563 925 891 846 1132 1005 947 990 1275 1590 1788 2111 2028 1967 1993 1875 1836 1792 1709 1664 1647 1715 1472 1203 1277 986 941 630 981 350 467 1315 1297 1168 1326 713 998
380 332 462 596 663 620 637 1073 1587 1366 1374 1529 1286 1227 1363 1559 2103 2101 1888 1844 1821 1814 1761 1624 1486 1565 1732 1869 1760 1186 980 802 734 955 1218 790 803 1154 1108 1147 1046 833 823
551 697 261 428 583 682 879 1155 1313 1617 1630 1722 1492 1496 1675 1970 1892 1728 1733 1837 1786 1780 1760 1692 1668 1749 1707 1943 1935 1457 1296 1201 1021 1389 1118 790 777 841 1209 1214 748 1028 899
673 861 537 787 894 807 1002 1431 1694 1401 1670 1652 1771 1659 1926 1747 1786 1740 1968 1959 1779 1717 1778 1731 1854 1892 1937 2033 1820 1604 1556 990 1242 1286 1324 1397 1174 781 996 1303 479 598 1150
864 841 1086 1196 1212 1389 1505 1783 1657 1731 1844 1890 1840 1845 1861 1798 1889 1961 1899 1805 1776 1751 1725 1562 1611 1765 1783 1866 1931 1492 1553 1087 1505 1285 1404 1114 1255 1282 1335 1334 925 918 1072
946 1057 1255 1164 1570 1949 1968 2016 1834 1805 1697 1537 1744 1845 1611 1751 1767 2008 1878 1490 1794 1782 1768 1821 1391 1300 1487 1427 1401 1525 1559 1120 1746 1522 1342 1196 959 1527 1857 1495 1333 1320 1041
1120 1311 1539 1619 1587 1447 1516 2138 2104 1780 1251 1438 1725 1680 1717 1563 1327 1250 685 1662 1533 1479 1606 1622 1448 1358 1183 1106 1084 1075 863 1275 1325 1225 1574 1355 1097 1494 1763 1799 1174 765 960
1156 1297 1418 1562 1608 1598 1164 1312 1554 1421 1537 1560 1400 1560 688 1165 1365 1201 1053 1009 1604 1505 1401 1439 1272 1182 936 1110 944 809 859 1003 1129 1147 1415 1124 992 1292 1758 1837 1547 1219 1055
1179 1236 1194 1360 1503 1620 1310 1515 1488 1074 805 750 773 1003 975 1288 1552 1025 1197 982 1303 1346 1133 1036 858 980 1185 902 833 768 631 780 1072 1243 1223 773 959 1108 1274 1620 1201 1829 1010
1102 1169 1463 1211 1607 1509 1408 1411 1380 1122 1016 1042 1407 1349 1092 1244 1280 1535 1422 1271 1002 832 1453 1299 1195 1020 1185 973 728 714 728 656 540 1050 1284 867 774 1039 1115 1183 1336 1488 1015
902 982 1117 1267 1322 1379 1584 1358 1274 1077 1058 953 987 1360 1348 1203 1413 1680 1475 1512 1585 1214 1304 1286 1011 1175 1153 882 829 772 514 487 339 408 914 1014 745 1192 1408 1291 962 1458 937
887 955 1049 1237 1460 1587 1706 1172 1152 1045 950 842 838 1144 1060 1013 1406 1500 1409 1364 1263 1286 1127 1062 1111 1139 1060 797 693 334 122 117 311 213 342 966 718 759 1323 1471 1193 1359 1240
746 821 1058 1205 1466 1548 1515 1348 1164 1122 1023 971 769 757 1164 1048 1202 1191 1152 1057 1181 1282 1009 1018 1181 1053 857 539 180 172 93 33 84 275 168 399 952 552 761 1292 1448 1219 1346
784 796 1044 1438 1635 1924 1949 1695 1515 1264 1092 991 888 1191 1301 1273 1217 1087 1167 987 1061 1189 1413 1123 1176 953 459 278 111 47 130 118 115 224 244 128 431 1229 658 787 1168 1056 1018
837 946 1120 1158 1357 1709 1672 1535 1379 1093 1114 1127 946 1206 1585 1442 1414 1305 1185 993 962 967 1081 995 870 470 268 161 34 78 110 56 110 176 181 237 47 77 941 859 871 887 993
985 1180 1246 1198 1098 1300 1523 1522 1430 1310 1519 1467 1479 1347 1228 1332 1149 1307 1071 1045 1155 926 933 679 522 333 81 15 15 13 81 48 60 46 251 446 509 323 112 937 688 820 950
1117 1400 1461 1323 1275 1572 1661 1730 1361 1417 1382 1175 1321 1786 1553 1523 1265 1291 1115 1030 1066 867 711 655 446 116 140 11 5 8 82 29 45 56 50 22 63 375 632 1265 974 1009 959
1278 1587 1783 1635 1705 1994 1807 1083 1142 1003 1139 1159 1153 1895 1709 1610 1542 1477 1045 1115 1175 1046 599 314 75 21 2 31 2 13 43 51 35 6 1 0 0 0 105 689 903 1000 1184
1342 1691 1942 1993 1914 2040 1592 1385 1142 1155 1142 1309 1479 1601 1770 1705 1713 1478 1339 1248 1267 276 451 111 20 3 11 20 17 7 11 57 48 34 0 0 0 0 0 21 265 570 653
1230 1714 1958 2192 2265 2232 1425 1482 1840 1652 1630 1563 1558 1837 2155 2170 2100 1964 1825 1156 986 110 1 35 17 8 4 131 115 4 7 12 10 40 33 0 0 0 0 0 0 0 0
1105 1463 1957 2357 2564 2419 2117 1679 1709 1562 1111 807 1062 976 1664 2242 2026 1910 1678 1265 168 0 0 17 5 1 17 14 13 10 16 24 19 23 30 6 0 0 0 0 0 0 0
1042 1285 1685 2302 2593 2592 2315 2368 2166 2053 1124 896 1011 1520 1759 1713 1985 1242 1630 504 92 0 69 23 2 11 13 6 10 24 27 12 0 2 0 10 10 6 0 0 0 0 0
922 1132 1368 1941 2580 2746 2749 2722 2570 1947 1628 915 1353 1067 638 691 1166 1304 1536 517 42 0 48 15 0 2 0 0 22 36 12 9 15 6 2 1 5 4 3 0 0 0 0

GFSSE_con_mlcape_003.txt.gz
CAPE
163 81 152 329 360 331 910 1327 1473 1605 1751 1738 1430 1214 1459 1881 1788 1897 1982 1699 1645 1751 1619 1545 1449 1394 1399 1588 1662 1487 1427 1421 1495 1270 1453 1199 1390 1354 1027 936 431 377 1211
162 92 215 401 343 343 949 809 670 1011 1600 1504 1312 1452 1932 1979 2091 2203 1995 1751 1799 1800 1774 1801 1630 1538 1522 1377 1362 1288 1407 1370 1446 1345 1292 1124 1227 1425 698 599 533 334 1085
150 89 241 311 516 577 459 472 704 800 1154 1190 1302 1520 1760 2049 2269 2102 1940 1877 1871 1817 1733 1689 1652 1569 1529 1433 1242 1266 1196 1155 716 308 876 741 384 767 676 891 930 760 1093
88 126 260 384 383 493 691 720 748 888 1143 1095 1155 1425 1485 1880 2054 1878 1801 1769 1708 1773 1717 1619 1526 1579 1654 1677 1275 1163 1094 995 719 808 1237 697 641 996 953 1370 578 1160 997
230 462 449 736 553 851 1279 1153 1023 1172 1252 1195 1373 1357 1404 1824 1975 1699 1656 1651 1732 1803 1686 1536 1633 1682 1725 1933 1659 1361 1078 763 814 1015 967 748 912 1099 1225 1270 557 1236 825
632 664 615 864 785 1218 1592 1714 1394 1582 1792 1583 1370 1384 1693 1910 1688 1519 1748 1694 1668 1731 1737 1708 1721 1756 1783 1976 1777 1604 1420 1188 1205 1116 1146 388 1130 1240 1339 1061 826 1361 1074
829 529 604 1082 1135 1394 1633 1809 1822 1649 1732 1699 1601 1664 1910 1795 1723 1792 1848 1601 1525 1597 1483 1741 1892 1907 1739 1960 2030 1858 1672 1108 1442 1541 1514 1301 879 866 880 1660 872 1263 1044
861 707 736 1113 1322 1523 1737 1886 1447 1632 1639 1907 1828 1833 1848 1835 1821 1868 1662 1589 1594 1672 1684 1760 1553 1512 1679 1748 1818 1709 1397 1161 1582 1566 1637 1469 937 1079 1442 1875 758 718 1422
928 931 1139 1181 1470 1876 1909 1722 1864 1921 1960 1801 1949 1937 1724 1737 1751 1671 1438 1249 1590 1831 1770 1857 1523 1407 1570 1483 1606 1461 1189 1325 2113 1518 1539 1607 1217 1880 1890 1527 1512 1315 1164
953 1098 1111 1280 1408 1372 1524 1874 1920 1870 1562 1536 1853 1663 1258 1297 1163 784 926 1581 1506 1401 1583 1706 1241 1057 926 1008 849 621 726 1281 1873 1645 1768 1335 1116 1894 1914 1501 1335 1290 1177
1183 1181 1199 1261 1492 1654 1764 1968 1991 1553 1183 1501 1385 1410 631 1151 1221 1425 1428 909 1415 1674 1364 1323 999 716 1092 1300 908 552 961 748 970 1277 1733 950 1140 1300 1892 1925 1376 881 1288
1056 1099 1085 1310 1472 1488 995 1556 1100 716 669 713 700 811 1079 1214 1541 1157 1356 873 1117 1161 1082 1009 735 924 1308 1436 896 740 724 853 838 774 1526 850 852 1139 1131 1730 1685 1345 1243
722 836 1311 1467 1587 1739 1495 1157 1177 1073 945 850 1050 1326 1030 1216 1420 1448 1674 1650 1757 970 1770 1469 1368 1301 984 911 765 780 668 514 409 472 1201 810 577 960 1253 958 1390 1526 1443
897 799 1107 1589 1682 1521 1452 1109 1072 875 758 819 988 1375 1448 1303 1342 1333 1577 1408 1634 1262 1251 1322 1078 1113 1172 1128 873 748 301 117 58 131 725 1053 706 724 1535 1350 1297 1449 1204
865 959 996 1175 1297 1497 1802 856 868 817 651 807 901 1150 1205 990 1624 1595 1438 1239 1357 1209 1209 888 970 1014 906 875 546 278 165 18 0 0 71 856 704 614 1186 1740 1377 1245 1504
743 805 882 1237 1497 1603 1653 1594 1218 994 943 666 791 753 1310 1343 1250 1448 1436 1211 1041 1123 1162 797 1245 1037 768 477 214 208 113 95 80 108 48 535 784 741 552 1199 1619 1321 1190
790 853 925 1070 1420 1618 1675 1651 1178 1053 729 865 649 921 1044 1237 1268 1619 1279 1155 993 1173 1536 1186 1049 807 465 25 27 16 56 61 46 126 98 41 536 1152 622 671 1275 1178 1393
712 805 930 1007 1125 1501 1953 1789 1566 1066 1229 847 973 833 1312 1537 1738 1761 1234 1026 1054 1067 1052 1069 761 253 17 8 11 24 19 16 29 74 85 64 40 87 966 750 876 861 857
750 897 1029 1160 1141 1478 2220 1858 1517 1410 1327 1327 1404 1489 1702 1696 1709 1762 1233 1007 1274 1129 976 894 623 141 3 2 8 6 27 32 14 35 11 92 253 273 131 948 778 838 959
660 971 1242 1233 1289 1457 1668 1561 1547 1388 1490 1523 1385 1624 1647 1707 1891 1844 1285 1342 1348 1078 796 582 393 0 0 5 1 0 31 60 21 9 2 4 18 146 461 615 1194 1118 983
676 1002 1380 1560 1794 1651 1566 1653 1456 1188 1269 1223 963 1675 2309 1844 1758 1763 1536 1357 1115 1139 715 132 19 2 14 27 0 24 38 19 21 15 1 0 0 0 29 312 670 1080 952
834 1105 1487 1753 2015 1875 1738 1737 1687 1334 993 886 903 1305 1783 1731 1587 1559 1594 1042 1020 768 672 194 5 0 13 36 18 3 54 136 31 14 0 0 0 0 0 10 231 542 724
952 1222 1784 2260 2415 2297 2123 1788 1696 1624 1502 1524 1178 1570 1904 2017 1999 2061 1843 1709 1623 596 0 130 0 0 0 44 23 0 11 44 30 33 32 0 0 0 0 0 0 0 0
916 1297 1799 2485 2563 2664 2408 1877 1704 1243 786 419 476 629 1347 2114 1934 1950 1924 1263 1250 0 79 0 0 0 0 3 7 3 0 0 0 46 44 19 0 0 0 0 0 0 0
861 1181 1680 2517 2848 2765 2604 2076 1505 1381 710 880 474 1252 1225 2272 1555 1164 1042 1447 755 0 7 0 0 0 30 0 1 10 16 3 0 0 1 22 12 18 1 0 0 0 0
839 1084 1517 2592 3083 3210 2937 2494 1873 1719 1245 662 636 1268 1147 846 1279 952 718 1306 542 0 23 5 1 3 2 7 1 3 10 5 22 16 6 5 17 20 19 3 0 0 0

GFSSE_con_mlcape_009.txt.gz
CAPE
3 45 31 96 200 451 421 1396 1418 1459 1383 1288 1475 1541 1582 1485 1370 1634 1588 1690 1549 1658 1569 1452 1335 1353 1416 1379 1293 1148 1308 910 1263 880 1086 944 689 703 587 655 933 731 757
2 18 107 161 656 1058 1153 1365 1479 1295 1460 1471 1559 1650 1781 1520 1560 1766 1814 1811 1613 1699 1588 1500 1404 1314 1324 1287 1300 1180 990 1152 1142 672 977 834 723 698 690 585 1002 655 663
35 259 227 667 1115 1320 1319 1467 1315 1405 1649 1744 1528 1470 1573 1589 1745 1905 1869 1780 1722 1708 1550 1566 1566 1424 1229 1187 1113 842 832 747 728 846 939 368 560 915 797 820 1144 1223 918
73 356 501 838 927 1180 1415 1489 1119 1239 1590 1599 1460 1485 1596 1670 1755 1647 1662 1729 1674 1544 1516 1511 1524 1726 1580 1286 1081 774 729 624 810 809 622 348 482 765 947 1162 1019 1035 437
82 230 592 840 541 959 1202 1253 1258 1213 1372 1383 1647 1806 1786 1587 1543 1562 1585 1624 1597 1609 1585 1559 1558 1601 1766 1501 1332 1014 816 659 880 1190 569 253 487 814 955 1095 937 1034 1068
195 379 965 784 814 692 1008 1313 1152 1142 1328 1339 1481 1850 1555 1454 1543 1423 1419 1459 1477 1511 1638 1640 1736 1562 1577 1723 1386 1304 960 1096 682 807 559 390 473 853 914 886 1170 1273 930
333 529 811 888 893 843 1130 1168 1127 1170 1260 1359 1621 1640 1618 1466 1608 1373 1315 1296 1408 1457 1602 1579 1258 1380 1031 1306 1162 1181 1091 914 620 353 560 380 913 1224 1212 1393 1194 866 1200
370 523 937 1224 1309 1189 1118 1243 1462 1515 1396 1476 1622 1532 1508 1398 1447 1235 1184 1254 1423 1635 1565 1392 1047 1097 887 740 812 742 885 714 74 0 112 217 737 1286 782 891 1074 1273 1134
498 565 1016 1289 1469 1494 1527 1457 1689 1782 1668 1601 1557 1423 1337 1213 1251 1126 999 926 1113 1185 1426 1169 806 831 882 744 676 593 767 338 6 0 3 336 764 1581 840 519 1284 1259 1202
665 692 810 1223 1439 1464 1687 1671 1600 1714 1824 1625 1538 1310 986 1076 1219 1036 1075 893 869 635 783 1031 830 824 876 981 1021 1140 1079 523 303 0 0 454 512 1504 1331 1232 791 1107 801
781 827 796 1040 1231 1373 1242 1558 1770 1652 1492 1558 1467 1149 521 896 993 1103 915 1379 1275 929 531 658 773 912 1053 1370 1352 1197 1215 898 507 49 84 811 716 959 1296 1178 1370 1003 1157
881 1008 946 932 962 1039 1223 1622 1276 1028 866 823 608 332 617 613 749 1173 1016 353 602 517 851 817 851 1192 1436 1159 1250 761 607 116 960 705 808 659 600 1214 131 1363 703 1025 1072
927 972 961 1127 1170 1024 988 897 1044 620 464 679 761 825 563 1007 574 128 179 2 243 563 554 672 914 1115 1118 413 563 299 136 34 801 868 665 554 496 982 733 603 754 659 1207
783 757 949 1203 983 1345 1208 800 919 649 506 644 883 953 1436 1051 410 127 30 469 592 301 831 521 734 1149 712 782 176 159 41 2 4 516 611 632 512 637 845 733 0 359 1337
575 925 953 759 1285 1361 939 722 892 824 790 779 1019 957 715 1139 651 379 474 582 682 747 695 661 1038 773 841 789 543 56 10 2 2 34 435 578 450 562 1105 1165 696 0 1251
1078 1070 1007 1065 1092 1276 1158 1326 1069 1212 1031 983 1194 944 999 1221 981 899 999 806 1037 1238 1094 863 622 571 341 255 289 24 5 23 17 39 117 433 446 473 474 1274 1139 291 239
996 1333 1253 1182 976 969 1202 1464 1405 1392 555 537 817 1403 1237 1041 985 1442 1245 873 1172 1176 1275 686 590 248 19 42 0 1 12 9 7 0 1 30 529 599 462 760 1076 1045 724
753 1239 1287 1410 937 1161 1188 1332 1343 1144 1138 531 1227 1311 1249 1163 1459 1568 910 1079 634 879 919 708 617 431 63 0 0 8 5 7 6 8 24 0 239 535 588 349 513 615 834
581 1037 1249 1331 1050 1094 1085 898 1183 755 720 1065 965 1174 1533 1382 1328 988 1109 947 769 1038 805 427 343 144 0 0 0 6 0 2 0 3 0 12 28 210 567 463 334 396 562
678 950 1003 1195 1333 1067 666 1121 1293 990 874 1552 1226 967 855 902 990 914 993 1089 1062 930 392 242 169 6 0 0 0 0 4 8 0 0 0 0 32 530 694 735 710 740 759
859 780 809 821 1538 1355 1143 1083 1099 1061 1459 1117 788 1240 1193 944 1169 1277 941 1109 1254 852 332 259 9 0 0 0 0 4 18 23 17 0 0 0 0 0 128 215 394 600 703
723 882 782 665 1280 1563 1388 1337 1112 1327 1253 1027 911 704 1073 1447 1495 1121 934 892 861 1030 421 90 3 0 0 0 0 0 11 29 22 0 0 0 0 0 0 0 4 423 653
631 889 900 709 841 1719 1742 1554 1279 1206 1054 1170 1200 1265 1553 1559 1223 1226 1029 952 863 555 384 77 0 0 0 0 0 0 23 18 26 14 0 0 0 0 0 0 0 0 109
583 788 1012 994 996 1275 1673 1612 1508 1106 929 1076 1298 1139 1187 1681 1502 1138 1112 1182 890 124 46 0 23 0 0 0 17 0 0 1 25 30 3 0 0 0 0 0 0 0 0
479 717 1128 1166 1129 1475 1365 1479 1268 1099 880 1157 1326 1212 1240 1916 1620 1469 1446 1395 871 1 3 24 1 0 25 0 1 1 0 0 0 0 16 0 0 0 0 0 0 0 0
656 875 1108 1416 1462 1733 1498 1613 1477 1326 1039 1063 718 894 1299 1556 1151 1201 1231 1074 669 43 9 33 39 0 62 49 0 0 0 0 0 0 0 0 4 2 2 0 0 0 0

GFSSE_con_mlcape_012.txt.gz
CAPE
27 20 27 77 109 782 1257 1258 1371 1216 1122 1224 1163 1289 1223 1544 1513 1478 1560 1657 1686 1606 1551 1460 1518 1544 1514 979 1170 1152 1098 1086 1001 1017 764 604 813 879 989 1102 1034 809 504
0 10 57 71 156 1211 1309 1456 1249 1272 1151 1126 1470 1283 1369 1499 1578 1794 1767 1786 1725 1597 1540 1486 1432 1454 1419 1272 1100 946 1035 830 703 1072 785 671 630 702 723 1124 602 597 613
0 31 138 587 994 1310 1455 1326 1399 1361 1170 1625 1558 1540 1693 1652 1858 1840 1793 1808 1735 1581 1600 1687 1556 1347 1281 1179 1128 924 751 577 805 1072 633 455 719 763 949 1088 800 821 929
5 45 282 922 1189 1356 1433 1442 1564 1614 1532 1617 1700 1794 1728 1728 1788 1731 1789 1713 1626 1597 1570 1569 1729 1794 1485 1193 1063 873 762 728 836 689 581 462 452 987 1106 1147 1093 679 850
74 201 434 1040 1304 1412 1254 1500 1594 1682 1383 1456 1581 1410 1415 1541 1700 1660 1604 1607 1646 1628 1662 1667 1682 1649 1754 1334 1190 821 708 627 907 775 438 391 631 1085 1118 1029 946 942 1102
154 420 1082 1208 1372 1395 1417 1453 1485 1417 1351 1771 1720 1482 1492 1656 1574 1480 1509 1542 1598 1674 1635 1686 1604 1461 1454 1519 1208 572 581 609 176 201 384 497 688 1128 993 1098 1014 1041 1216
122 476 1119 998 1324 1439 1519 1478 1404 1163 1242 1550 1670 1460 1476 1666 1448 1387 1340 1418 1560 1550 1660 1336 1189 1181 1041 1246 693 989 834 510 0 39 381 555 1106 1401 1371 1180 880 898 675
311 689 976 1113 893 1388 1357 1356 1243 1129 1192 1605 1560 1541 1424 1588 1364 1126 1157 1310 1462 1704 1632 1141 916 1068 1038 1006 714 1152 748 485 136 226 426 725 1354 1438 1308 1244 968 1167 1055
425 663 946 1010 908 1140 1398 1364 1376 1302 1330 1471 1405 1333 1420 1378 1265 944 844 1089 1211 1351 1425 1077 721 831 914 737 648 1038 795 83 13 19 338 413 1272 959 849 1010 1347 1113 952
409 749 975 1189 1089 1317 1244 1589 1720 1767 1521 1334 1372 1209 1204 1318 1211 1361 992 908 975 982 1146 864 603 803 970 1019 851 744 952 594 2 7 339 488 1071 1445 685 1108 1197 1134 1073
408 655 971 1130 1246 1275 1424 1550 1650 1698 1690 1479 1359 1047 836 1016 1063 905 1139 1125 1228 1279 685 664 673 958 1210 1215 1066 719 831 616 283 0 124 347 781 1268 1194 1057 1014 1066 711
443 450 780 1119 1068 1278 1451 1354 1366 1361 1266 1199 976 569 669 739 690 1052 977 479 292 813 956 847 1006 1159 1216 841 536 157 59 489 335 110 360 656 820 937 992 1716 1499 1079 1187
502 555 647 812 971 1047 824 1149 960 883 619 512 288 194 502 694 511 586 133 22 31 328 500 588 729 906 1082 431 161 50 16 351 661 682 617 432 801 1275 398 1524 914 1126 1309
765 780 671 630 704 539 444 945 497 295 154 283 522 620 486 658 347 3 4 353 400 533 263 601 625 864 929 282 12 20 0 99 482 419 440 406 499 1186 938 1191 979 1297 1355
862 828 763 797 718 635 628 390 440 124 218 366 475 702 920 794 471 123 304 417 503 588 472 568 639 844 832 542 309 55 8 10 48 192 359 485 395 831 1521 968 224 543 1423
843 786 939 943 794 881 1158 577 407 525 395 391 583 785 924 655 496 337 348 632 799 792 749 824 699 474 141 22 109 173 8 11 4 9 142 507 386 474 1009 1466 890 152 804
611 743 851 987 914 1058 1075 613 672 879 901 646 772 925 914 987 658 703 743 643 858 762 950 642 400 172 11 7 0 11 15 16 2 0 0 74 356 405 442 883 1089 686 362
624 733 800 1043 1084 1131 967 1082 1308 1299 769 828 852 1020 974 985 892 1071 970 953 771 595 708 619 486 313 41 0 0 5 12 13 12 5 13 11 233 450 506 417 719 663 827
758 889 887 875 932 1015 1002 1196 1255 986 818 722 929 999 1096 996 1091 1019 780 668 657 687 580 386 337 140 4 0 0 2 12 7 0 10 4 12 24 272 516 349 296 354 538
834 1044 1022 1003 704 833 774 997 906 833 685 934 925 933 1115 1223 1302 946 783 799 564 818 573 252 112 3 0 0 0 0 13 7 0 0 0 53 271 403 618 567 489 528 585
687 1007 1086 1043 727 779 879 935 681 667 679 522 1189 736 991 1120 1072 821 729 905 857 866 414 153 6 0 0 0 0 0 11 15 0 0 0 0 15 77 162 212 574 714 793
582 888 1113 955 836 816 811 795 718 737 805 528 1172 909 809 788 755 847 812 836 1035 845 467 140 0 0 0 0 0 0 1 25 8 0 0 0 0 1 0 0 149 305 335
573 679 758 934 1042 967 961 765 864 799 748 964 1064 947 904 1007 938 1038 1113 779 678 756 473 74 4 0 0 0 0 0 0 0 14 1 0 0 0 0 0 0 1 46 215
491 578 641 819 1119 1181 1183 1052 986 882 739 994 984 989 1145 1191 1051 1266 840 631 465 431 267 86 0 0 0 0 5 0 0 0 0 0 0 0 0 0 0 0 0 0 0
414 582 579 537 1123 1233 1326 1224 1103 1070 870 751 830 958 1067 1272 1369 1100 1011 783 576 205 95 10 0 0 0 0 20 0 0 0 0 0 0 0 0 0 0 0 0 0 0
366 580 655 594 680 1146 1332 1381 1324 1194 990 711 661 867 1132 1341 1317 1211 1007 1056 735 161 17 0 0 0 0 1 0 0 0 0 0 0 0 0 0 0 0 0 0 0 0

GFSSE_con_mlcape_015.txt.gz
CAPE
10 18 14 84 97 130 710 1424 1510 1492 1261 1133 1121 1232 1342 1316 1456 1459 1611 1655 1650 1595 1576 1662 1586 1193 1139 1335 1217 1303 1100 1136 1050 751 598 876 1018 1088 967 1202 839 573 1170
0 12 55 139 741 919 1480 1480 1468 1138 1182 1083 1181 1464 1394 1513 1717 1819 1724 1692 1620 1598 1580 1582 1570 1268 1300 1267 1123 1136 870 884 967 871 718 628 539 864 1117 570 551 481 651
0 8 30 197 1060 1304 1328 1436 1225 1269 1248 1233 1382 1527 1589 1735 1781 1740 1736 1719 1648 1641 1735 1700 1460 1334 1278 1282 1107 673 486 632 691 1044 485 297 575 957 1142 624 706 974 1009
3 61 143 538 1018 1281 1415 1460 1273 1622 1472 1465 1513 1649 1678 1767 1700 1748 1730 1655 1629 1620 1599 1649 1912 1731 1413 1092 843 481 522 829 933 910 342 457 848 1079 1063 1088 947 786 889
24 142 571 839 1162 1215 1439 1466 1796 1869 1592 1486 1620 1625 1675 1651 1627 1604 1587 1647 1682 1684 1700 1722 1673 1679 1167 671 546 599 855 638 447 654 382 482 579 1185 1164 1026 590 1164 1036
73 307 992 1135 1191 1185 1429 1580 1684 1534 1560 1532 1482 1482 1531 1537 1533 1590 1656 1716 1690 1696 1679 1705 1538 1546 1020 588 801 920 594 396 367 283 310 670 557 1051 1177 884 1133 1174 1190
123 521 1120 1240 1348 1251 1315 1460 1377 1508 1756 1612 1521 1436 1537 1491 1452 1469 1503 1613 1564 1602 1651 1321 1401 1325 1125 1190 628 830 397 22 66 257 405 478 837 1020 1225 1226 1027 1129 1081
179 831 1079 1276 1306 1396 1255 1306 1351 1288 1362 1599 1552 1424 1608 1637 1400 1419 1442 1509 1577 1629 1547 1207 1140 915 625 1072 1101 1059 549 17 2 181 352 783 1018 1370 1424 986 932 809 425
269 764 958 1138 1240 1396 1367 1362 1337 1213 1239 1529 1578 1421 1424 1724 1345 1234 1183 1276 1238 1315 1229 1018 905 890 633 679 809 872 680 291 78 272 404 769 1330 1417 1283 1010 1133 1197 471
408 532 778 836 859 1211 1357 1279 1299 1266 1248 1518 1388 1308 1500 1608 1436 1366 1049 993 1237 896 777 803 865 967 959 625 800 843 659 175 17 45 310 552 1280 1077 897 1281 1283 1122 760
467 453 626 694 794 1110 1226 1232 1441 1477 1423 1504 1425 1178 1237 1299 1210 1157 1264 1102 1607 1293 645 668 808 963 688 759 610 626 1092 252 0 49 235 483 798 1389 1002 1212 1433 1206 1066
350 516 687 685 783 995 1095 1239 1458 1498 1510 1378 1127 881 1123 764 744 820 1053 960 578 1033 853 864 886 847 804 602 184 41 156 418 25 0 121 429 521 1271 1210 1163 1235 1159 1060
315 517 778 870 977 914 773 1018 1229 1165 1174 1021 786 560 756 565 867 1001 584 281 0 354 417 578 599 791 724 311 58 21 108 389 150 157 373 516 629 1116 703 1860 1671 1343 1352
333 388 650 849 837 731 716 830 863 764 699 460 303 434 371 657 435 388 0 50 68 295 300 340 510 572 682 453 153 12 14 198 362 474 329 529 682 959 1160 697 1183 1344 1417
335 340 474 698 634 622 430 405 501 290 344 126 138 266 285 398 506 233 34 363 331 442 421 454 575 753 836 255 126 39 8 52 147 237 251 425 477 464 1310 667 1144 1392 1419
440 437 485 501 412 443 239 109 248 314 151 51 193 512 679 785 647 163 28 311 490 553 572 674 756 555 96 29 153 113 7 16 44 127 128 248 450 394 927 694 969 426 1234
639 653 426 364 374 311 105 60 78 118 182 117 291 519 611 815 645 279 161 508 662 595 764 781 435 114 11 9 0 2 8 8 11 6 3 41 309 294 419 728 760 401 453
591 670 542 625 410 419 390 503 409 253 511 470 399 489 750 923 699 513 607 623 686 562 800 497 459 252 48 2 0 0 6 12 10 3 11 12 67 216 334 227 321 523 701
484 622 665 803 683 608 721 910 740 391 684 899 853 766 848 927 836 765 846 752 502 584 526 404 265 182 0 0 0 0 9 0 3 0 7 15 36 241 364 303 250 307 394
419 507 579 758 844 730 704 935 819 962 821 574 581 733 822 934 934 849 792 572 470 628 497 358 202 0 0 0 0 0 2 0 0 0 6 114 196 284 404 424 267 353 392
429 474 525 611 750 789 732 828 799 999 762 654 779 863 962 992 1013 914 758 624 568 539 584 278 70 0 0 0 0 0 8 0 0 0 0 11 29 125 153 200 402 609 595
322 587 584 574 706 711 745 807 834 790 766 646 571 860 811 938 1008 949 739 638 707 743 589 197 36 0 0 0 0 0 4 7 0 0 0 0 0 11 0 0 279 358 203
287 572 678 649 739 632 600 650 632 631 585 626 622 627 819 846 936 898 653 629 707 791 620 260 40 0 0 0 0 0 0 0 0 0 0 0 0 0 0 0 18 122 83
301 458 666 754 766 618 518 479 578 632 357 441 583 566 1037 891 768 710 769 787 716 675 417 255 19 0 0 10 5 0 0 0 0 0 0 0 0 0 0 0 0 0 22
217 455 678 763 767 679 497 548 621 555 413 455 498 592 876 945 898 817 799 866 525 320 442 190 33 0 0 0 0 0 0 0 0 0 0 0 0 0 0 0 0 0 4
265 415 593 657 728 753 607 676 666 619 608 597 355 543 822 892 1013 1017 967 857 549 309 209 126 20 0 0 0 0 0 0 0 0 0 0 0 0 0 0 0 0 0 0

GFSSE_con_mlcape_018.txt.gz
CAPE
8 61 109 239 250 498 734 1231 1361 1654 1434 1173 1119 1482 1728 1670 1570 1615 1630 1608 1584 1629 1674 1673 1362 1334 1200 1048 1314 1064 1062 922 678 581 636 907 1153 915 1014 693 851 1243 1473
0 2 60 248 221 789 1284 1357 1548 1381 1211 1340 1561 1541 1538 1563 1615 1662 1621 1573 1547 1500 1600 1560 1404 1275 1218 1186 1217 1104 1144 1097 815 616 828 768 877 847 715 625 472 955 1239
0 0 28 84 521 1366 1472 1447 1456 1292 1356 1586 1544 1546 1625 1624 1663 1639 1622 1632 1646 1740 1546 1441 1478 1394 1302 1048 757 815 760 740 855 531 445 435 835 1098 612 565 774 816 1106
0 32 49 323 1198 1438 1380 1424 1552 1477 1510 1606 1545 1591 1701 1626 1670 1714 1624 1530 1525 1505 1496 1409 1514 1143 1054 734 628 702 690 870 1064 667 437 479 863 1245 756 890 926 1022 1147
0 37 134 642 1219 1417 1324 1566 1755 1576 1544 1544 1550 1698 1596 1601 1650 1538 1534 1592 1600 1596 1693 1642 1463 1168 911 694 665 649 722 714 1035 558 327 591 1000 1109 1137 776 976 983 1026
26 191 709 1187 1249 1369 1399 1933 1905 1549 1407 1526 1545 1523 1573 1537 1505 1590 1704 1724 1739 1718 1642 1574 1469 1214 890 665 631 563 479 754 473 368 395 586 1066 1168 1042 891 1219 1252 1119
89 549 972 1196 1218 1393 1545 1806 1640 1502 1545 1390 1426 1547 1520 1476 1494 1545 1590 1671 1682 1735 1476 1334 1273 1086 971 897 928 1034 891 596 173 304 406 501 980 1128 1003 1200 1303 1274 1147
178 697 982 1219 1259 1410 1406 1615 1575 1586 1659 1490 1397 1488 1449 1368 1392 1382 1445 1613 1722 1700 1416 1089 941 792 931 940 917 1059 243 59 14 358 456 553 1089 1189 1234 1099 1183 1012 1268
341 684 878 1138 1113 1288 1307 1403 1284 1383 1644 1515 1505 1402 1525 1546 1296 1290 1305 1388 1323 1428 1116 953 766 715 691 847 923 713 634 103 46 358 448 743 1172 1254 1304 875 1109 446 1211
417 674 797 975 1084 1247 1274 1278 1271 1266 1479 1477 1470 1495 1549 1713 1486 1216 998 1022 1279 957 923 745 786 746 534 650 804 855 714 414 53 149 368 727 1211 1390 1339 1089 1265 888 648
385 574 729 781 920 1123 1167 1261 1331 1343 1378 1421 1447 1399 1520 906 976 925 1259 1138 1422 1084 691 652 775 446 591 505 563 722 331 235 0 69 300 462 933 1264 970 1199 990 1109 485
212 383 541 582 663 1027 1186 1037 1222 1221 1274 1299 1207 1080 1239 872 727 768 1077 1034 459 983 939 832 621 579 639 382 54 67 542 434 91 6 138 347 598 786 1130 1358 1229 1009 1107
233 322 486 491 651 877 920 873 1180 1195 1299 1144 1041 852 856 666 559 1020 729 591 2 227 344 541 452 636 612 165 5 12 126 303 46 0 83 261 550 491 631 1151 1232 991 1064
279 288 381 494 562 814 698 683 959 989 948 875 785 654 504 536 573 498 299 0 0 121 348 249 439 560 530 299 22 20 41 67 65 129 315 221 280 707 716 442 1429 1367 1324
286 341 490 601 553 658 577 524 611 696 535 421 438 417 326 283 506 240 50 204 198 332 368 429 458 746 700 253 158 16 9 42 96 199 268 286 237 237 681 817 616 1330 1457
228 273 475 567 669 693 479 295 330 497 322 292 172 181 207 223 449 468 174 138 343 329 414 670 705 425 31 33 133 75 4 16 34 78 100 134 158 237 396 822 565 749 1122
308 250 336 438 564 541 329 201 189 262 254 150 61 82 394 577 585 605 141 116 482 525 641 715 449 131 9 0 2 5 0 14 8 14 0 37 165 219 225 497 588 658 345
410 287 278 345 389 338 220 165 18 110 228 70 0 141 438 559 589 620 312 242 513 549 496 517 415 307 66 0 4 3 1 9 7 4 2 0 1 228 251 152 375 309 576
457 369 366 378 295 203 136 95 6 16 49 108 201 241 381 544 670 659 484 593 652 452 562 469 307 154 0 0 0 0 0 0 3 0 11 20 14 187 324 243 187 124 312
476 517 486 372 322 171 153 168 107 298 392 266 515 719 743 746 783 598 461 668 508 429 403 252 202 0 0 0 0 0 0 0 0 0 6 70 155 186 468 367 266 338 295
414 473 437 460 501 400 247 344 471 739 662 400 621 488 610 684 790 787 629 636 370 429 458 296 95 0 0 0 0 0 0 0 0 0 3 34 30 19 69 197 420 563 602
282 249 353 448 549 624 532 451 622 704 636 748 670 553 640 741 798 833 718 678 483 503 406 308 80 0 0 0 0 0 0 0 0 0 0 4 3 0 0 0 341 346 230
243 224 272 365 473 606 654 529 491 572 592 740 652 613 634 736 816 861 748 699 583 556 598 454 102 0 0 0 0 0 0 0 0 0 0 0 0 0 0 0 58 118 36
131 174 247 332 419 481 609 576 471 480 542 641 681 585 528 680 685 780 882 745 589 591 586 502 90 0 0 0 0 0 0 0 0 0 0 0 0 0 0 0 0 0 25
105 89 251 320 389 448 497 571 505 433 454 376 436 503 524 560 712 698 724 660 634 672 509 337 109 0 0 0 0 0 0 0 0 0 0 0 0 0 0 0 0 0 2
222 85 217 367 390 504 462 502 475 384 327 270 365 279 350 550 722 834 732 704 679 648 382 238 135 1 0 0 0 0 0 0 0 0 0 0 0 0 0 0 0 0 0

GFSSE_con_mlcape_021.txt.gz
CAPE
67 118 190 407 466 717 643 660 814 1420 1435 1568 1419 1301 1642 1593 1497 1553 1541 1523 1618 1599 1633 1477 1571 1177 980 1214 1028 1075 897 707 755 740 929 1057 829 847 705 1150 1179 1058 1534
111 97 92 347 627 912 1043 1308 1480 1432 1446 1462 1448 1541 1461 1573 1670 1575 1526 1505 1532 1463 1585 1432 1307 1320 1285 1212 1203 1225 1135 873 642 668 962 1015 970 1034 768 587 932 1155 1458
36 104 226 360 953 1543 1473 1467 1546 1466 1555 1477 1489 1519 1498 1618 1665 1638 1720 1702 1575 1522 1472 1509 1462 1385 1130 1118 1182 1001 999 955 692 692 740 527 655 581 469 416 789 1118 1204
31 98 164 539 1432 1451 1470 1523 1479 1449 1535 1544 1606 1634 1605 1712 1752 1622 1543 1498 1489 1593 1414 1515 1368 1238 1164 1079 887 865 688 1094 1042 641 479 662 579 816 709 1155 1097 1146 1037
29 54 157 876 1479 1396 1467 1487 1457 1466 1550 1612 1657 1692 1646 1675 1575 1540 1552 1418 1407 1347 1599 1586 1332 1115 948 811 760 456 701 946 1094 350 621 921 690 1008 1119 1050 1013 1026 694
63 102 470 1369 1390 1333 1504 1563 1512 1476 1586 1595 1673 1545 1575 1539 1546 1626 1338 1656 1552 1530 1482 1476 1362 1059 849 726 441 447 750 960 979 482 474 889 808 1153 608 1147 904 1102 1161
95 249 682 1199 1397 1412 1702 1741 1520 1498 1510 1550 1532 1510 1518 1528 1614 1661 1690 1556 1716 1623 1360 1283 1052 983 895 643 1002 789 535 542 856 733 555 863 815 1043 1000 1124 1305 1245 1251
192 413 806 1137 1422 1540 1911 1609 1473 1484 1488 1468 1553 1545 1467 1489 1491 1536 1611 1656 1681 1495 1166 993 791 738 859 727 671 824 123 225 640 907 621 1068 916 1211 1351 1266 1276 1458 1286
366 505 795 569 1227 1411 1752 1584 1540 1570 1530 1458 1524 1628 1545 1414 1352 1293 1340 1381 1396 1365 1023 809 697 643 770 728 778 888 272 52 766 982 565 1062 1040 1278 1335 1213 739 1052 1225
380 458 843 494 656 859 1166 1324 1308 1451 1609 1548 1539 1432 1203 1237 1203 1224 956 1160 1199 1083 797 823 676 556 481 690 853 337 751 480 503 958 832 972 1183 1429 1241 1122 1007 668 807
355 499 667 545 724 1081 970 1050 1215 1279 1465 1610 1394 1383 1086 1540 1680 1525 1345 1238 938 731 717 795 441 446 559 611 557 647 699 744 163 723 684 593 791 1371 1234 1043 1351 858 640
198 322 471 649 582 861 742 1058 1157 1035 874 1097 1084 1312 1365 1197 1358 1290 1250 1008 390 688 697 642 411 559 600 221 84 93 13 914 333 413 569 285 515 750 1140 1320 1058 1156 605
182 285 396 610 833 759 667 864 1029 918 1025 1157 1573 1423 1240 1483 1176 1581 1449 1315 480 362 906 1045 1000 661 1138 404 141 17 126 688 277 107 151 200 418 730 438 945 1290 649 982
210 263 332 514 706 811 770 737 695 873 975 1018 1120 1464 1121 1150 1248 1252 1105 382 344 491 1080 884 931 765 650 912 56 65 215 9 32 133 375 222 359 706 648 653 1270 960 1021
277 278 358 533 698 781 908 631 648 1008 901 914 1153 1124 949 1000 1181 1108 707 682 779 876 1026 688 1094 610 689 269 466 47 93 114 336 141 317 199 268 123 537 794 797 1296 1080
375 413 444 531 654 771 784 813 673 879 967 934 695 639 784 694 835 1044 1081 566 1016 1035 1085 993 970 570 44 362 349 174 41 26 194 219 83 269 145 208 329 851 600 976 1320
538 567 600 659 695 748 725 839 699 575 720 543 503 520 497 732 1057 1286 1237 520 805 1281 1127 1007 709 752 14 7 8 39 51 35 20 87 135 174 274 160 244 480 561 844 656
622 573 645 656 727 833 832 851 561 552 554 450 429 422 438 841 1102 1276 1195 876 994 1334 624 358 517 590 264 11 14 22 58 47 37 27 63 80 310 250 190 208 230 371 300
674 527 486 649 686 752 837 708 513 554 427 469 457 385 413 759 974 1128 1227 1230 1216 1233 847 720 779 687 77 4 7 22 35 35 19 17 144 217 347 461 519 208 129 73 295
705 775 629 609 651 747 685 664 457 394 227 272 416 597 752 959 1107 1237 1299 1200 1235 1227 993 972 772 214 0 0 0 9 17 16 12 100 136 247 563 678 739 798 599 521 351
685 733 678 508 551 596 519 254 252 158 240 570 672 824 1151 1332 1450 1453 1312 1069 992 1014 987 871 580 140 3 30 1 15 37 10 4 39 147 35 16 41 279 524 671 903 680
660 714 751 627 648 576 516 417 369 382 521 1003 960 1057 1163 1237 1328 1443 1360 1359 1123 1088 977 892 510 84 0 28 7 0 3 5 0 0 16 16 16 0 0 104 655 827 575
578 717 701 730 819 728 636 624 729 990 1175 1102 1086 1236 1187 1234 1350 1384 1487 1428 1363 1194 1192 1022 630 200 62 23 0 6 0 0 1 0 0 0 0 0 0 11 33 300 233
651 685 710 756 852 1000 1040 826 702 621 733 875 988 1186 1300 1302 1321 1426 1534 1500 1390 1352 1224 1169 730 395 64 0 1 0 8 30 0 0 0 0 0 0 5 0 0 0 50
586 624 649 663 693 879 1107 1003 931 797 823 927 960 1214 1312 1283 1295 1428 1500 1473 1479 1383 1306 1236 662 353 136 0 0 0 0 0 0 0 3 0 0 0 0 0 0 0 21
522 457 571 648 611 795 933 1038 967 956 941 950 968 937 1083 1167 1195 1278 1420 1514 1505 1414 1330 1236 726 506 196 13 27 27 0 0 0 0 3 1 0 0 0 0 0 0 6

GFSSE_con_mlcape_024.txt.gz
CAPE
0 5 131 515 506 708 492 750 1069 1643 1696 1746 1599 1614 1740 1451 1444 1366 1318 1129 1287 1568 1575 1483 1323 1020 1315 1097 1174 1007 743 765 802 982 1192 830 720 951 1224 904 1240 1026 1710
60 140 476 567 805 766 748 794 1556 1725 1769 1597 1791 1670 1460 1584 1542 1486 1369 1419 1311 1276 1430 1352 1349 1352 1301 1282 1340 1249 1001 757 621 894 1058 967 1144 914 632 1002 1280 1383 1698
65 122 489 895 1004 994 1133 1494 1686 1703 1603 1688 1493 1487 1626 1561 1528 1723 1444 1627 1612 1574 1597 1558 1474 1278 1212 1256 1101 919 1074 823 866 868 756 433 195 582 407 1157 1308 1463 1529
215 241 451 652 1084 1359 1590 1645 1598 1532 1600 1603 1614 1634 1605 1428 1561 1556 1389 1422 1633 1514 1569 1498 1268 1287 1176 1073 900 804 888 1188 736 359 688 299 285 593 942 756 1261 1068 1380
231 338 576 1116 1542 1644 1689 1600 1577 1537 1588 1672 1667 1642 1664 1554 1545 1500 1275 1094 1449 1670 1570 1352 1204 985 907 810 637 844 742 1243 404 487 700 790 397 808 774 1080 1054 1265 790
246 353 636 1468 1515 1552 1554 1560 1591 1581 1647 1688 1662 1668 1708 1566 1641 1280 1413 1021 1413 1484 1465 1331 1070 1140 807 716 697 781 1052 1174 796 231 594 511 986 979 1129 924 1156 1072 754
240 423 725 1488 1408 1544 1658 1623 1566 1606 1621 1686 1610 1587 1568 1613 1550 1424 1448 1582 1621 1345 1238 1066 1116 1264 885 1016 1119 851 809 718 800 435 490 970 1081 852 1103 1144 1244 1178 1294
303 375 567 1394 1445 1613 1800 1613 1543 1513 1581 1622 1580 1562 1546 1530 1506 1586 1663 1684 1527 1210 1139 984 913 1065 939 965 1043 196 480 454 1085 597 599 893 754 1249 1263 1232 1311 1324 1255
297 170 362 681 1005 1413 1765 1452 1459 1499 1535 1623 1639 1599 1418 1360 1382 1325 1419 1393 1380 1194 1026 922 868 814 903 798 837 326 259 85 1294 1103 469 740 899 1268 1543 1321 1227 1365 1359
335 202 216 438 526 1019 1094 1518 1573 1573 1605 1576 1562 1502 1292 949 1049 1178 813 1130 1171 1037 953 814 728 667 643 692 472 640 495 348 903 1293 499 908 840 1036 1181 1346 500 1405 1025
383 253 150 242 430 661 720 950 1277 1524 1628 1442 1195 1199 854 1336 1498 1440 893 1076 1018 918 765 563 397 393 378 274 299 481 607 420 437 658 726 306 895 1258 1275 1365 1062 937 386
311 297 157 115 290 473 376 611 587 425 378 593 516 949 1310 1298 1592 1376 1159 853 544 837 778 595 437 443 415 103 64 68 41 232 378 342 234 342 434 1004 1136 1015 1240 967 548
305 230 246 184 295 364 251 490 464 475 532 895 1165 975 1209 1531 1483 1285 1243 1270 602 454 1030 656 724 623 371 331 35 43 54 56 74 55 71 253 396 526 433 1254 811 959 851
266 283 330 374 329 294 310 361 358 288 380 540 651 1064 1268 1361 1367 1379 996 961 838 782 1116 815 838 623 806 1029 160 62 61 32 50 39 95 119 497 664 613 654 1417 786 993
211 242 281 377 508 402 447 220 124 264 286 422 748 751 954 1344 1513 1474 1293 1113 1252 911 956 895 751 527 1070 867 665 41 33 39 38 41 116 93 281 272 564 850 1075 1338 1142
202 247 326 439 553 579 569 515 395 546 529 643 469 296 1004 1341 1467 1316 1356 1127 1211 1203 1241 761 603 987 289 433 230 42 36 50 31 28 41 42 97 205 295 1151 752 1429 1201
274 293 356 573 678 799 865 954 872 548 603 481 227 382 785 1226 1675 1675 1469 1191 990 1185 965 898 830 945 256 33 37 33 52 28 33 37 57 112 109 68 279 684 765 978 943
454 593 656 619 673 844 846 966 737 495 459 219 53 116 726 1277 1868 1964 1465 1064 1258 1275 928 773 677 569 402 103 32 30 41 38 34 30 32 53 101 282 129 288 453 547 713
817 893 1005 992 848 991 1080 1019 927 554 453 163 85 89 823 1229 1581 1821 1433 1204 1546 1434 1006 745 865 671 171 21 13 32 32 29 14 49 49 41 35 171 256 43 119 206 471
831 1039 1086 1090 1093 1154 1100 1162 810 393 329 244 224 245 634 1172 1508 1925 1651 1058 1051 1423 1067 1126 895 558 98 0 1 15 36 25 13 34 40 43 73 119 265 438 468 259 347
773 995 1017 982 1116 1277 1016 827 491 190 242 221 192 602 1190 1609 1915 2175 1699 1143 1039 1216 1084 871 958 602 78 0 11 17 25 14 7 26 31 15 1 9 31 130 305 560 367
747 931 1168 1081 1183 1375 1085 756 382 188 160 261 350 775 1374 1780 2159 2190 1730 1354 1170 1188 1162 1166 730 311 93 0 17 22 32 18 16 20 12 6 0 1 0 0 161 338 287
661 983 1151 1281 1219 1363 981 809 564 411 379 446 623 1026 1356 1873 2009 2245 1766 1390 1454 1365 1247 1582 1167 719 133 4 18 21 15 23 24 3 0 3 0 9 2 0 1 19 0
639 931 1182 1409 1480 1546 1249 725 675 487 584 653 921 705 1046 1807 1790 1899 2072 1859 1759 1465 1554 1519 1285 978 767 17 0 0 2 78 21 20 7 8 0 2 0 4 1 0 0
633 837 1135 1471 1740 1607 1564 993 885 837 846 899 811 862 1365 1601 1931 1749 1969 1898 1873 1684 1727 1916 1644 1425 787 139 0 0 0 0 0 6 23 23 1 1 0 0 8 14 0
600 931 1112 1531 1958 1853 1690 1547 1484 1400 1151 952 1105 970 1126 1293 1446 1687 1786 1528 1633 1890 1993 2042 1916 1492 1063 356 1 0 0 0 0 0 1 3 16 15 12 10 3 10 25

GFSSE_con_mlcape_027.txt.gz
CAPE
0 8 199 600 675 674 1030 1019 1637 1613 1600 1616 1436 1785 1560 1495 1383 1448 1225 1417 1529 1645 1668 1383 1070 1404 1105 1215 1128 785 694 731 916 1275 770 606 988 1149 1146 1293 1397 1049 1835
0 17 248 764 677 634 918 1452 1728 1704 1603 1510 1806 1517 1647 1539 1204 1433 1353 1416 1294 1524 1404 1341 1326 1320 1239 1419 1359 1146 893 656 794 1106 1039 1177 1011 644 1119 1237 1228 1507 1673
0 48 559 836 739 933 1158 1618 1729 1616 1552 1677 1569 1455 1394 1342 1358 1354 1363 1601 1613 1575 1486 1373 1317 1194 1305 1163 803 1100 792 1026 895 841 787 374 242 390 1177 1023 1585 1631 1528
0 125 239 939 994 1230 1557 1642 1659 1493 1545 1602 1638 1625 1244 1431 1426 1328 1456 1667 1546 1495 1433 1228 1206 1181 1123 1029 1011 942 1293 869 425 489 638 538 67 732 671 1297 1341 1514 1495
156 321 427 789 1128 1510 1676 1630 1489 1389 1605 1720 1572 1448 1521 1528 1382 1550 1182 1509 1682 1536 1390 1199 1061 961 891 851 792 1014 941 889 294 903 342 595 389 661 1126 955 1065 965 1216
243 267 562 1200 1531 1720 1657 1515 1443 1462 1654 1725 1538 1283 1568 1594 1422 1566 1229 1407 1422 1403 1324 1090 1176 1011 910 850 967 987 840 1009 766 565 670 1036 653 806 766 1044 1159 745 601
309 361 749 1540 1700 1652 1486 1458 1485 1580 1699 1462 1433 1493 1653 1579 1465 1530 1749 1633 1312 1251 1183 1232 1371 1231 1302 1325 1089 957 809 965 576 442 1016 808 400 1279 1299 1314 1175 1349 1055
319 91 742 1301 1457 1460 1465 1459 1577 1541 1582 1451 1514 1552 1592 1579 1624 1659 1657 1585 1233 1199 1186 1131 1223 1057 920 999 227 795 609 837 860 404 793 998 1089 1312 1350 1428 1451 1379 1246
258 115 298 581 1113 1724 1580 1515 1496 1434 1461 1426 1477 1455 1418 1407 1329 1327 1399 1399 1253 1158 1115 1084 1054 983 776 572 326 156 254 371 1395 351 778 824 1061 1465 1367 1538 1545 1448 1192
288 71 97 333 538 1023 866 1305 1342 1374 1433 1476 1504 1385 1218 1144 1072 876 793 1025 1203 1063 1027 871 756 653 674 400 255 165 275 703 1241 1014 1134 747 778 1312 1356 621 1477 1231 1474
252 48 90 191 472 787 440 1015 1294 1362 1410 1399 1058 746 883 1254 1354 1281 1016 800 887 980 620 490 457 675 743 429 272 449 826 1215 658 748 694 568 936 1143 1232 1120 995 656 1149
330 81 99 105 267 431 225 630 613 483 354 659 737 507 1072 1299 1406 1358 871 512 814 811 611 330 326 466 738 317 312 289 675 149 408 256 274 367 1047 1368 1067 1320 1131 782 265
334 144 109 177 237 232 338 274 248 210 360 617 816 1059 1381 1245 1158 675 907 389 542 653 558 524 543 735 233 264 21 49 38 111 53 293 157 200 394 606 1198 1118 1261 961 598
304 204 81 201 259 195 290 203 127 144 251 376 502 1041 1434 1329 1066 1056 1352 1062 1006 977 1081 898 926 652 686 443 193 21 42 38 61 420 102 52 489 638 548 1166 979 1008 1099
263 203 169 203 398 448 400 175 151 141 93 231 626 699 987 1209 1277 1207 1190 1325 1173 1111 965 636 871 879 735 633 161 24 34 2 19 287 160 49 222 427 697 773 1301 904 1027
302 235 243 414 557 564 553 492 176 177 280 262 311 430 1044 1363 1275 1445 1232 1208 977 1206 909 829 746 763 307 357 36 26 30 34 0 28 118 85 87 233 421 994 1005 1392 1171
284 314 333 444 639 692 644 733 485 328 321 299 313 369 929 1365 1623 1852 1345 945 1262 1420 1323 1041 936 328 168 25 2 22 31 27 23 8 155 160 46 148 308 993 808 1331 1248
326 390 453 401 526 641 680 860 685 427 345 325 164 177 625 1313 1728 1952 1273 1148 1190 1162 806 626 652 119 179 46 20 30 26 27 13 16 14 39 250 136 255 506 751 1022 952
458 511 534 601 643 851 1095 1010 888 647 479 284 81 32 884 1311 1700 1917 1275 1376 1535 1199 652 508 494 390 21 13 24 29 34 21 13 22 6 42 22 264 63 109 253 549 840
543 758 926 880 1080 1271 1176 1329 888 640 500 249 84 41 1286 1387 1657 1939 1405 1419 1433 971 1047 962 1025 172 38 0 12 40 36 16 30 30 22 38 11 35 164 308 218 256 508
696 1062 1303 1350 1568 1467 1321 1043 793 552 427 168 181 217 516 1099 1554 1990 1545 1501 1302 1415 1251 964 751 320 22 0 8 23 7 11 26 24 27 6 0 12 24 125 586 383 264
638 1030 1565 1634 1866 1722 1425 1217 811 656 238 200 197 486 865 1380 1825 1696 1635 1388 1380 1234 1253 1212 972 542 10 0 92 38 12 0 7 18 9 1 1 2 0 9 102 309 336
621 1047 1551 1748 1899 1904 1659 1396 1104 723 481 346 377 389 938 1502 1732 2012 1591 1374 1387 1627 1007 1552 1061 656 258 0 14 42 14 17 11 0 0 9 0 2 2 0 8 4 54
634 903 1521 1893 1918 1994 1938 1185 896 527 326 245 371 482 888 1463 1524 1833 1602 1254 1534 1277 1117 1497 1119 946 304 2 0 0 36 174 69 10 5 4 0 4 2 16 7 2 0
471 700 1196 2009 2043 1826 1933 1581 1069 760 264 389 467 837 873 1697 1623 1560 1865 1587 1555 1708 1488 1263 1421 1190 794 429 0 0 0 0 0 27 16 14 0 3 4 0 27 27 6
372 553 1056 1941 2218 2148 2157 1607 1779 968 525 599 722 875 939 972 1741 1853 1606 2067 1816 1907 1649 1899 1877 1624 1273 351 12 0 0 0 1 2 17 23 22 6 5 4 0 0 17

GFSSE_con_mlcape_030.txt.gz
CAPE
1 46 348 621 1045 1061 1222 1536 1409 1464 1453 1437 1475 1445 1441 1587 1341 1407 1472 1547 1648 1583 1230 1190 1372 1136 1266 1241 933 719 579 859 1184 659 442 910 1102 1282 1324 1229 1257 1543 1730
1 66 430 681 926 1110 1401 1589 1435 1487 1460 1514 1371 1619 1220 1421 1480 1450 1466 1382 1578 1425 1282 1310 1280 1226 1330 1248 1177 927 778 699 1088 961 1192 759 544 1237 1055 1134 1124 1738 1763
0 47 486 738 804 1185 1534 1629 1506 1580 1603 1378 1390 1351 1418 1500 1262 1431 1556 1585 1554 1430 1420 1367 1215 1291 1185 984 1027 870 857 871 809 641 847 388 207 1193 915 1274 1765 1640 1398
0 0 240 783 1046 1336 1394 1593 1495 1478 1382 1553 1200 1344 1386 1342 1424 1453 1643 1463 1424 1365 1257 1142 1151 1085 1034 1032 1034 1083 746 595 689 518 424 545 28 696 1139 1091 1183 1294 1540
0 0 434 972 1217 1439 1583 1535 1429 1450 1636 1576 1371 1494 1327 1452 1464 1244 1420 1600 1400 1295 1135 1097 954 908 861 817 960 631 583 483 689 772 676 544 425 985 1181 959 1041 1212 1192
30 200 549 854 1377 1543 1514 1455 1384 1574 1536 1576 1361 1519 1547 1439 1412 1192 1291 1242 1272 1184 1079 1216 1104 999 926 921 1032 525 484 820 785 584 946 627 610 936 1135 919 874 687 899
208 545 296 978 1456 1492 1429 1401 1418 1499 1549 1579 1526 1608 1528 1417 1536 1682 1441 1175 1219 1202 1254 1338 1221 1138 1200 1074 833 375 716 1103 734 840 652 664 1133 1374 1301 1236 1197 1050 782
407 279 715 1362 1634 1414 1385 1432 1445 1585 1374 1479 1532 1596 1699 1701 1671 1674 1440 1161 1158 1152 1106 1043 764 586 774 201 395 367 602 849 1110 1008 734 727 1138 1323 1427 1436 1327 1313 1332
185 281 884 1256 1424 1368 1365 1505 1426 1486 1399 1460 1406 1447 1422 1381 1398 1408 1378 1244 1126 1046 949 777 741 725 452 429 56 292 500 615 744 1060 1031 1178 1154 1161 1526 1545 1450 1156 1130
11 278 577 730 705 860 1114 1436 1346 1388 1320 1314 1341 1275 1301 1148 997 984 1042 1144 1077 968 704 767 818 780 974 892 528 340 613 906 467 906 660 743 1301 1449 847 1523 1280 1422 1311
120 75 208 306 852 919 817 1087 1221 1262 1253 1134 897 1018 679 1030 773 1283 998 648 945 878 705 687 551 501 393 978 952 715 732 820 344 604 498 745 1143 1143 1022 933 921 1289 1459
59 0 71 222 520 599 231 856 994 780 767 886 632 4 37 784 486 1239 590 708 836 690 648 678 710 770 286 258 455 958 1030 982 695 271 346 469 861 1148 1152 1080 963 370 1330
49 5 95 235 472 238 356 471 812 615 650 611 622 0 57 691 792 902 707 584 682 163 477 152 410 1052 811 325 211 459 457 678 322 171 231 441 891 1368 1053 1172 1105 660 321
43 59 67 258 400 225 445 88 402 360 301 910 505 982 1069 470 784 1158 989 1089 708 845 803 692 901 838 720 697 52 32 16 144 347 99 188 255 372 635 1237 1271 1337 1117 756
304 97 177 268 193 491 737 91 142 246 149 640 933 662 784 368 1460 1320 1542 681 624 480 0 746 1009 896 858 1 113 26 23 15 280 113 147 170 233 441 687 1242 1174 1192 1253
533 85 303 511 350 973 481 780 489 221 85 349 510 711 987 1355 1290 1280 1231 856 1106 727 472 759 485 17 168 202 175 31 10 0 23 270 26 94 196 376 854 1001 1504 1220 1259
155 263 325 554 470 736 598 846 490 380 189 33 722 856 768 1319 1585 1047 1385 928 1128 1450 1212 1212 759 188 13 88 24 42 21 19 0 44 58 33 115 288 536 1078 1153 1540 1259
225 151 472 440 628 489 715 868 682 429 188 408 247 544 727 1213 1742 1675 1125 847 468 1321 867 617 789 522 313 180 22 21 23 12 1 30 134 222 149 170 553 1029 830 1208 1135
332 515 644 363 740 637 1021 1050 584 612 691 392 314 400 420 1208 1485 1838 1259 1327 1403 529 992 659 567 722 31 6 29 3 32 10 17 21 13 225 173 174 225 561 677 756 798
537 722 749 459 847 803 952 1008 916 932 531 552 267 155 549 1265 1586 1776 1570 1457 1337 700 1313 1050 847 48 12 0 15 12 10 2 33 17 25 109 258 142 75 101 249 313 571
756 841 682 957 1264 1233 1193 1064 1173 568 703 464 400 548 1081 1366 1703 1868 1554 922 1215 942 1234 910 642 212 0 0 0 1 0 0 12 33 15 0 24 110 147 261 384 249 327
712 1079 888 1029 1329 1595 1410 1405 1091 1045 846 521 259 589 1217 991 1701 1513 1543 1307 1360 1284 1389 1250 1092 431 0 0 37 30 20 7 5 11 0 0 5 3 11 361 303 399 268
843 1209 1439 1420 1995 1642 1736 1814 1345 1300 916 409 363 635 681 1272 1446 1723 1374 1401 1320 1299 788 1329 1254 811 97 0 4 74 8 8 12 7 0 0 0 0 0 7 124 219 264
824 1364 1831 1856 2105 1869 1897 1658 1461 1007 674 671 397 588 749 973 1796 2131 1736 1647 1459 1569 1126 894 1590 864 376 48 0 0 12 114 5 6 0 0 1 0 0 7 4 0 10
741 1433 1974 2122 2137 2345 1532 2106 1385 1070 899 458 675 658 742 1284 1419 1752 1923 1715 1714 1353 1303 1166 1508 894 1488 82 0 0 0 0 0 33 6 5 0 3 3 7 19 3 3
830 1247 1776 2192 2048 2196 2144 1487 1972 1231 899 666 418 657 1240 1847 1625 1802 2151 1903 1785 1435 1636 1247 1370 1759 956 1057 263 127 0 0 0 2 29 30 4 7 2 0 0 4 13

GFSSE_con_mlcape_033.txt.gz
CAPE
0 183 625 812 851 1333 1422 1296 1313 1128 1636 1300 1409 1657 1418 1379 1379 1514 1679 1724 1552 1194 1335 1182 1198 1375 1315 979 735 467 862 1068 598 503 960 1148 1248 1278 1210 1505 1584 1665 1621
0 249 606 948 1148 1232 1183 1118 1018 1632 1123 1651 1346 1428 1575 1401 1433 1361 1564 1527 1491 1397 1387 1281 1300 1277 1124 1172 936 936 692 1084 1057 1133 398 947 1266 1131 1114 1351 1578 1487 1703
0 298 597 904 1109 1191 1177 898 1674 1281 1522 1361 1443 1541 1378 1301 1603 1675 1742 1551 1595 1483 1353 1407 1378 1207 1037 1018 957 826 758 732 774 1120 627 386 1087 921 1078 1501 1717 1597 1586
0 231 553 827 1003 1116 1126 1152 1421 1331 1302 1256 1404 1487 1358 1488 1667 1706 1509 1483 1419 1331 1271 1268 1193 1152 1110 990 767 951 568 596 340 392 353 78 823 845 1290 1366 1280 1565 1454
0 244 647 846 1058 1236 1347 1227 1378 1544 1504 1464 1546 1444 1519 1501 1551 1541 1676 1403 1331 1239 1205 1068 1031 971 935 777 754 586 344 601 697 580 188 167 744 1131 835 1043 1209 1268 1395
0 241 922 1077 1209 1320 1258 1330 1574 1317 1639 1357 1583 1537 1574 1402 1353 1441 1337 1419 1276 1244 1348 1163 1032 983 882 716 625 723 647 573 737 589 527 676 914 1269 1215 1246 1188 1158 1546
80 351 672 1275 1330 1253 1191 1386 1502 1489 1652 1493 1641 1454 1508 1727 1708 1452 1342 1413 1390 1473 1477 1282 1321 1274 1074 714 490 663 833 711 348 452 524 915 1366 1308 1168 944 995 989 1497
326 239 830 1260 1404 1138 1275 1426 1578 1276 1449 1550 1686 1763 1670 1648 1763 1527 1360 1382 1364 1259 1247 1205 923 1110 939 810 482 495 824 1323 650 707 571 956 1304 1455 1396 1323 1226 1117 1387
116 312 1039 1459 1417 1197 1319 1435 1451 1283 1449 1449 1516 1567 1546 1527 1454 1514 1391 1351 1256 1199 1145 1003 887 692 721 622 360 460 696 1143 728 590 691 1224 1191 1466 1491 1554 1181 1373 1451
441 594 978 1297 1051 1060 1306 1364 1296 1071 1376 1375 1200 1270 1295 1224 1218 1108 1073 1172 1145 1037 816 558 551 487 505 730 615 574 838 934 960 836 653 883 1400 1275 1462 1408 1321 1223 1337
401 496 839 777 767 831 1132 1173 1116 998 1229 1070 1038 919 441 752 1094 1015 961 965 832 720 573 341 215 626 476 176 761 825 1108 238 579 540 470 1138 1356 792 1334 1119 1417 1349 1391
186 317 426 437 584 689 688 823 540 510 681 562 596 0 144 338 322 1121 465 701 589 422 394 420 655 534 793 270 232 469 735 500 450 358 350 1161 1328 1199 1052 852 684 1372 1436
51 99 181 419 747 392 468 176 330 348 541 717 2 9 51 478 721 893 404 656 480 61 331 282 298 756 556 521 114 492 612 836 284 121 486 951 1331 1204 1303 1199 415 504 1294
16 15 103 277 544 211 198 104 385 382 421 674 89 237 248 374 692 804 563 387 469 379 499 712 866 903 534 218 74 23 696 395 153 125 691 1103 1560 1319 1301 1376 1132 574 432
12 0 41 159 465 257 93 9 216 260 334 717 344 400 435 29 619 742 954 684 604 580 107 171 718 262 391 61 45 21 317 208 77 36 261 508 755 1135 1457 1232 1369 1219 1064
22 0 48 115 476 202 86 0 13 337 192 708 698 492 684 762 993 864 812 481 484 243 77 375 348 0 32 51 32 28 69 116 68 32 150 421 516 842 906 1522 1188 1198 1177
65 23 52 22 240 390 457 769 561 457 79 451 714 793 1020 732 1248 894 547 732 726 806 549 725 285 157 39 61 99 52 26 67 73 34 37 101 199 243 1078 1121 1462 1128 1314
91 85 50 16 95 324 127 471 433 156 186 299 592 450 787 1056 1235 967 974 672 755 952 1096 847 482 317 235 112 31 46 25 13 65 62 36 37 50 79 762 863 889 1244 1090
173 115 111 159 53 374 168 425 440 248 293 565 650 449 458 889 1419 1431 995 745 1021 545 653 527 642 507 81 62 47 31 28 25 24 54 62 85 125 128 331 777 512 483 806
134 76 131 193 67 240 267 467 306 82 377 614 678 286 330 562 1108 1356 1290 939 618 439 618 858 356 5 0 0 7 4 8 17 9 22 142 104 102 104 85 267 357 462 468
130 102 180 369 364 211 354 308 240 43 377 554 220 613 343 733 1123 1511 1336 1032 942 634 974 502 30 58 0 0 9 4 0 2 21 13 57 40 84 35 19 85 108 136 338
282 276 221 478 490 300 469 238 750 696 445 603 132 864 572 976 1298 1443 1062 1024 892 948 927 502 791 248 0 0 15 11 1 0 3 0 0 1 14 11 78 91 129 109 180
374 242 335 258 612 415 612 520 531 924 782 637 282 401 1005 973 1367 1316 1268 1095 1315 1090 1074 776 876 227 0 0 2 15 2 0 4 4 1 0 1 0 86 306 208 124 108
556 416 384 422 870 829 842 978 689 392 847 743 324 195 1002 810 1016 1266 1343 1003 1282 951 681 603 796 444 221 0 0 0 1 16 0 0 0 0 0 0 0 14 50 101 13
691 662 434 578 936 1132 1111 1046 883 818 863 703 401 219 472 673 972 1352 1568 1175 1108 1415 1098 697 905 990 730 173 0 0 0 0 0 18 0 0 0 0 0 0 0 13 0
700 964 905 687 1072 1141 1180 1293 1126 1154 765 797 515 260 579 698 673 1092 1855 1569 1181 1162 1050 843 985 1111 651 919 67 45 0 0 0 0 0 1 0 0 0 0 0 0 0

GFSSE_con_mlcape_036.txt.gz
CAPE
44 220 401 978 1301 1207 1258 1219 1661 1066 1353 1634 1475 1530 1575 1631 1784 1786 1865 1613 1370 1469 1272 1389 1547 1397 1044 708 650 1120 846 642 1213 1377 1528 1676 1554 1669 1761 1876 1734 1440 1639
34 247 525 1069 1328 1122 1281 1550 1242 1666 1677 1435 1577 1498 1537 1548 1519 1671 1695 1500 1429 1429 1363 1485 1493 1356 1231 1138 785 1022 1181 1331 751 763 1436 1532 1462 1436 1598 1710 1438 1588 1551
126 481 887 1115 1204 1172 1016 1507 1376 1510 1471 1624 1534 1550 1710 1724 1769 1752 1778 1672 1461 1507 1560 1497 1305 1165 1256 885 1072 968 947 1162 1443 719 1214 893 1095 1060 1385 1772 1639 1578 1552
261 599 920 1144 1216 942 1562 1334 1419 1272 1420 1685 1407 1575 1751 1583 1404 1581 1736 1474 1556 1556 1474 1449 1378 1353 1189 1069 969 930 657 613 800 472 598 727 734 1414 1570 1526 1535 1527 1522
208 477 855 1162 1193 1172 1318 1219 1404 1400 1511 1453 1660 1612 1548 1601 1661 1632 1464 1424 1468 1354 1248 1231 1165 1130 1052 947 830 664 779 895 1042 618 181 637 899 1238 1352 1561 1475 1437 1470
131 527 1109 1236 1356 1343 1038 1689 1489 1494 1639 1442 1630 1545 1441 1483 1625 1435 1511 1420 1402 1482 1328 1212 1139 1010 1007 886 734 716 720 1068 434 300 564 973 1192 1493 1491 1371 1203 1428 1304
115 742 1153 1356 1503 1267 1387 1467 1474 1564 1659 1587 1613 1765 1837 1586 1510 1550 1561 1547 1637 1570 1466 1410 1370 1226 1035 481 704 679 876 890 420 494 782 1169 1334 1329 1100 812 1458 1431 1317
241 593 1360 1432 1559 1164 1332 1509 1461 1771 1522 1812 1707 1569 1793 1945 1571 1543 1538 1488 1397 1344 1188 955 1038 828 480 661 510 877 977 852 561 676 1100 1111 1226 1408 1164 918 1173 1358 1407
368 573 1135 1332 1339 1215 1398 1482 1309 1470 1532 1610 1671 1679 1676 1637 1656 1495 1501 1423 1340 1282 1206 811 502 382 424 431 527 878 1149 749 387 638 925 1271 1471 1394 1531 1521 1351 1413 1411
245 612 901 1253 1130 1125 1348 1285 1333 1449 1404 1307 1283 1310 1244 1341 1417 1282 1079 1332 1034 831 842 784 521 469 136 319 465 831 872 1014 422 827 874 1317 1535 1569 1527 1190 1336 1404 1307
284 636 1012 1007 863 1013 1151 1143 1095 1162 1228 1101 1180 1002 939 775 851 1155 816 1056 789 393 361 555 751 863 478 139 363 746 888 440 583 526 682 1456 1247 1298 1142 1365 1297 1168 1218
221 624 798 670 536 825 1048 952 574 652 836 867 726 247 269 402 463 848 849 938 806 291 247 556 484 650 726 294 201 448 557 326 404 433 931 1277 975 1268 917 1366 1560 1493 1216
306 520 527 323 470 484 383 258 180 254 346 369 216 0 54 250 452 720 554 640 216 108 301 162 474 720 586 527 296 335 513 419 325 159 893 1292 1269 1222 996 449 1366 1453 1438
282 280 233 289 417 290 59 0 0 54 192 470 8 0 162 357 479 600 300 138 289 197 297 518 582 688 606 34 51 147 564 527 189 101 535 1114 1256 1395 1299 896 349 950 1159
154 93 120 340 356 134 0 0 13 145 306 468 52 17 234 227 431 589 600 279 379 387 201 144 414 390 215 43 42 359 467 249 94 98 641 1221 1417 1296 1315 1311 1016 522 456
79 59 98 249 253 115 0 0 19 164 228 314 327 227 304 116 620 688 663 470 501 332 184 23 320 11 39 55 51 266 218 109 48 25 124 552 719 1266 1410 1193 1333 1252 1198
31 49 68 153 261 69 30 0 0 96 158 276 445 295 434 555 773 567 541 326 341 271 183 286 255 43 47 50 91 60 69 62 28 11 112 168 438 815 1087 1608 1237 1246 1167
26 22 40 130 314 4 50 25 22 1 112 341 480 392 647 417 1000 806 459 458 508 463 628 313 332 146 63 70 43 35 44 43 43 11 38 66 161 256 1037 1196 1299 1055 1305
69 0 0 63 335 71 224 425 407 160 212 308 464 356 780 1132 1019 730 733 517 421 608 518 375 364 328 118 98 81 34 25 42 60 32 24 18 27 67 732 579 667 575 751
96 38 9 0 323 212 325 190 180 75 138 493 572 315 682 662 1310 898 743 618 737 296 467 522 160 0 0 15 16 22 21 15 31 38 35 31 56 46 156 326 262 262 548
79 85 14 0 52 337 186 72 38 0 1 165 473 355 353 426 805 1185 860 885 503 427 515 252 16 0 0 1 1 0 0 0 8 25 48 49 40 50 29 106 140 205 241
75 112 37 0 0 169 40 25 26 0 0 60 326 353 240 444 566 985 974 814 818 559 506 430 271 0 0 0 0 0 0 0 6 8 28 29 33 31 33 66 52 36 113
91 120 69 13 0 19 59 79 132 23 0 43 290 339 333 523 708 993 884 874 742 782 666 490 496 136 0 0 8 0 0 0 0 0 3 8 13 3 24 50 74 39 53
157 66 123 97 38 57 213 91 57 0 44 219 276 266 379 558 874 1044 981 880 831 1048 892 639 688 214 19 0 0 4 11 1 0 0 0 0 1 0 5 81 66 70 14
140 99 128 225 209 201 381 183 131 118 357 522 449 341 392 611 964 1035 918 873 714 1024 742 619 639 350 335 0 0 0 0 0 0 0 0 0 0 0 0 0 31 14 3
174 146 176 422 300 288 437 375 270 261 212 330 587 458 296 624 735 989 967 925 893 985 883 693 577 867 607 442 1 0 0 0 0 0 0 0 0 0 0 0 0 4 0

GFSSE_con_mlcape_039.txt.gz
CAPE
19 65 845 1106 1187 1176 1354 1217 1532 1645 1638 1597 1733 1607 1717 1803 1735 1859 1771 1481 1430 1419 1489 1595 1346 1076 644 826 937 828 975 1037 1125 1173 1731 1849 2019 1981 1845 1838 1561 1538 1576
11 121 987 1172 1203 1289 1585 1396 1634 1651 1589 1613 1601 1651 1853 1883 1821 1688 1394 1579 1504 1459 1572 1610 1515 1215 919 708 988 1072 851 867 1235 1492 1760 1718 1835 1842 1847 1608 1769 1504 1476
46 360 1083 1105 1316 1407 1250 1716 1475 1422 1711 1754 1671 1585 1610 1652 1692 1554 1447 1540 1552 1463 1449 1408 1326 1152 1064 1117 1278 1388 1247 896 863 1345 1276 1097 1234 1453 1567 1676 1563 1300 1482
252 657 1019 1240 1238 1517 1308 1584 1455 1586 1536 1457 1707 1779 1755 1777 1733 1707 1665 1774 1566 1592 1189 817 1397 1176 1151 1082 776 826 1063 1296 664 1124 598 786 1118 1734 1695 1627 1464 1374 1415
388 830 1164 1327 1342 1546 1333 1405 1425 1718 1266 1617 1681 1635 1623 1699 1599 1587 1612 1522 1444 1430 1364 1271 1244 1113 971 972 945 811 1136 1129 881 451 429 800 1189 1500 1581 1557 1464 1464 1399
457 831 1236 1195 1572 1210 1475 1486 1570 1525 1556 1833 1888 1708 1781 1858 1514 1510 1509 1519 1537 1385 1290 1233 1131 1038 796 477 561 747 1203 1171 761 323 723 951 1071 1475 1474 1591 1439 1444 1468
415 905 1209 1325 1383 1267 1622 1608 1603 1624 1564 1599 1709 1580 1547 1605 1644 1601 1587 1690 1618 1549 1450 1342 1240 1103 793 668 895 825 1066 679 397 508 987 1303 1430 1697 1316 1306 1480 1447 1391
545 900 1274 1485 1249 1676 1268 1751 1547 1837 1642 1711 1802 1895 1795 1721 1735 1691 1641 1606 1482 1199 1111 1168 979 767 751 696 743 820 946 815 525 953 1173 1192 1131 1059 825 1587 1446 1381 1414
650 836 1185 1479 1092 1381 1441 1560 1868 1664 1937 1866 1828 1921 1779 1747 1686 1690 1671 1567 1382 1139 982 781 594 590 551 738 943 901 912 781 581 978 948 1112 1378 1488 949 1308 1445 1527 1368
695 888 1017 1207 1048 1280 1483 1318 1599 1684 1765 1744 1621 1609 1577 1699 1617 1455 1261 1447 1320 1112 923 719 572 482 240 425 859 1045 913 748 659 925 1283 1373 1265 1651 1586 1571 1482 1537 1469
515 795 1021 1005 867 1098 1176 1201 1477 1607 1562 1403 1332 1395 1201 1082 1093 1197 947 1281 1144 804 675 744 878 450 230 367 603 674 964 399 510 691 1059 1346 1543 1437 1253 1398 1526 1366 1345
172 729 949 853 561 925 1033 1049 1130 1294 1113 958 900 827 482 636 638 719 900 1159 984 777 756 657 652 783 714 129 256 903 310 448 567 499 1123 1164 1340 1208 1410 1309 1381 1276 1177
141 676 851 627 594 687 501 814 633 783 740 688 385 139 152 245 352 703 403 830 188 107 288 254 524 613 404 436 383 533 377 415 445 502 1043 959 1228 1055 1099 1641 1644 1413 1235
87 409 659 417 304 423 303 412 136 189 347 230 133 0 76 299 469 348 267 329 285 148 279 387 300 582 286 34 53 260 525 446 245 236 931 1161 1159 1280 618 787 1456 1458 1392
120 179 375 201 91 31 13 67 0 0 147 377 98 0 111 326 326 516 388 85 207 302 264 16 313 136 45 44 73 307 348 412 138 136 606 1287 1122 1249 1261 709 452 878 1169
142 63 176 42 0 13 0 0 0 0 185 388 407 1 135 113 317 424 508 327 413 398 241 59 273 7 28 56 85 298 262 206 83 47 415 1087 1362 1160 977 1298 975 593 540
78 27 3 6 37 0 0 0 0 0 138 229 354 344 225 85 512 655 507 401 312 259 127 152 307 97 34 59 88 82 118 69 52 28 94 409 812 1123 1022 1011 1313 1203 1169
43 21 0 24 32 0 0 0 0 26 106 156 262 375 308 392 639 475 388 337 307 297 316 128 272 154 80 61 47 53 63 57 38 13 56 162 306 581 831 1141 791 1088 1100
27 0 0 0 29 0 0 5 0 0 0 75 273 300 330 496 743 670 519 472 441 474 379 293 342 277 60 90 59 21 45 48 39 9 26 37 72 74 663 681 509 499 536
6 0 0 0 23 55 0 0 19 125 153 227 351 380 372 748 1071 674 710 463 409 419 179 227 46 0 4 31 23 6 13 27 47 14 8 25 39 52 339 455 317 402 371
31 0 0 0 0 63 11 0 108 160 101 357 442 480 333 830 1203 660 569 523 488 277 371 262 16 0 0 0 0 0 0 0 24 37 38 43 69 39 65 121 68 76 171
45 4 0 0 0 12 30 103 133 60 0 47 308 457 303 686 982 1106 548 668 525 404 533 335 33 0 0 0 0 0 0 0 0 2 26 59 40 36 15 47 27 31 43
0 0 0 0 0 0 62 78 89 16 0 0 66 363 303 372 547 1037 952 790 644 615 435 358 269 0 0 0 0 0 0 0 0 0 0 18 29 18 8 11 31 0 27
0 0 0 0 0 0 59 105 66 0 0 0 0 168 324 358 450 876 865 737 704 688 698 575 375 163 0 0 0 0 0 0 0 0 0 0 0 4 0 0 30 43 24
23 0 0 0 0 0 1 23 2 0 0 0 0 3 377 311 460 706 956 827 809 773 861 802 535 440 56 0 0 0 0 0 0 0 0 0 0 0 0 0 34 53 57
88 15 0 0 1 0 0 0 0 0 0 0 0 0 224 435 397 619 855 891 755 678 804 677 561 452 288 33 0 0 0 0 0 0 0 0 0 0 0 0 4 65 41

GFSSE_con_mlcape_042.txt.gz
CAPE
0 88 760 995 1029 1451 1298 1544 1675 1549 1643 1424 1458 1442 1485 1731 1839 1794 1703 1414 1366 1268 1215 975 755 706 795 766 835 1077 1068 1199 1138 1290 2050 1932 1926 2052 1858 1787 1642 1448 1475
0 192 904 985 1190 1384 1319 1686 1624 1663 1528 1756 1621 1869 1873 1894 1880 1577 1542 1443 1438 1605 1571 1458 1163 621 843 890 737 863 1338 1221 1412 1858 1938 1881 1745 1800 1788 1793 1630 1575 1473
2 481 876 1025 1346 1150 1491 1679 1579 1580 1690 1661 1751 1937 1773 1629 1551 1478 1623 1564 1572 1547 1436 1388 1141 1184 893 1213 1393 987 864 1376 1533 1677 1789 1252 1599 1654 1789 1847 1593 1624 1590
147 617 869 1009 1178 1346 1523 1244 1552 1816 1657 1729 1707 1783 1790 1422 1647 1565 1661 1721 1624 1216 1035 1352 1067 1200 1172 1095 1230 1303 1290 1024 1400 970 853 1112 1412 1843 1789 1697 1605 1532 1502
391 627 922 907 1202 1403 1418 1644 1716 1285 1568 1818 1721 1635 1562 1643 1610 1690 1748 1647 1562 1427 1234 1381 1080 1079 720 908 799 755 1208 1010 954 558 890 1262 1602 1783 1670 1646 1467 1515 1571
539 814 1259 1189 1239 1516 1438 1609 1436 1465 1796 1762 1754 1658 1596 1655 1559 1652 1605 1555 1407 1376 1420 1256 1062 1007 760 845 973 1068 892 1283 361 502 1046 1318 1617 1891 1701 1531 1447 1518 1408
537 889 1071 1369 1046 1431 1471 1570 1502 1694 1748 1717 1662 1412 1637 1610 1649 1617 1626 1539 1473 1403 1332 1346 1117 891 747 705 942 931 1014 717 319 637 876 1347 1574 1523 1559 1541 1535 1480 1460
582 808 1041 1329 1008 1444 1534 1627 1456 1622 1672 1808 1712 1720 1793 1820 1747 1683 1624 1500 1349 1295 1231 1218 1019 973 828 564 1048 1064 1163 756 629 953 1196 1222 1482 1272 1736 1574 1525 1532 1478
681 664 1079 962 1424 1423 1540 1479 1739 1508 1604 1750 1773 1947 1816 1798 1765 1655 1578 1387 1098 991 948 992 832 706 713 906 733 1177 1246 676 925 1027 1068 1146 1049 1073 1560 1499 1397 1463 1393
592 781 1071 817 1155 1067 1454 1685 1628 1848 1932 1856 1891 1773 1781 1730 1397 1555 1426 1360 1186 1051 939 526 375 568 600 469 755 893 984 925 832 877 1119 1142 1136 1376 1226 1477 1431 1475 1441
573 771 1071 794 970 1131 1078 1502 1532 1686 1589 1549 1463 1554 1398 1243 1053 1038 1224 1297 1141 1033 1025 929 797 272 559 662 791 1144 969 480 603 978 1073 1093 1125 1289 1402 1482 1428 1352 1243
517 765 957 752 769 1043 1053 1247 1331 1426 1246 1141 1066 748 632 662 665 681 897 1028 1020 1007 909 870 810 823 366 334 855 960 461 411 551 626 991 1090 1196 1144 1215 1384 1358 1288 1347
361 642 849 737 663 798 883 978 1045 1080 931 859 537 322 362 439 456 666 443 557 229 172 239 462 602 559 433 453 268 502 331 496 450 586 768 1010 1107 965 1440 1366 1280 1265 1342
103 417 772 690 365 576 601 567 628 688 620 478 226 41 112 146 311 353 285 320 271 164 294 244 403 184 118 39 179 467 391 403 325 460 712 745 1015 716 1169 1459 1515 1506 1164
41 218 569 555 212 284 153 323 278 272 236 182 104 1 66 273 341 383 235 82 207 282 137 8 255 31 43 58 50 285 474 308 81 259 705 993 745 936 512 604 1285 1145 1129
90 37 374 349 95 119 0 0 21 69 133 261 206 0 150 258 283 362 435 289 338 314 218 69 57 25 43 71 105 242 262 252 87 71 387 1031 822 721 1045 764 472 519 818
62 17 119 143 21 0 0 0 0 0 52 223 370 258 111 183 212 315 341 400 329 285 85 221 176 54 47 69 88 172 168 118 53 29 183 441 940 939 556 768 975 633 597
43 0 0 84 0 0 0 0 0 0 48 118 183 250 300 299 317 446 338 347 271 299 306 173 215 82 74 62 68 62 84 60 45 16 44 162 279 447 909 624 547 997 1125
83 4 0 0 0 0 0 0 0 0 32 63 92 179 266 329 434 527 343 297 365 384 316 280 198 323 83 87 40 37 59 61 40 20 42 59 111 164 483 649 486 287 479
75 0 0 0 0 0 0 0 0 0 0 0 37 187 237 319 532 693 320 323 384 290 152 204 50 0 30 53 44 12 23 32 49 13 26 29 17 41 237 455 345 368 242
43 0 0 0 0 0 0 0 0 0 6 152 156 302 292 353 706 798 571 349 273 250 258 169 22 0 6 0 11 5 0 0 21 24 22 18 38 18 82 168 123 112 128
8 0 0 0 0 0 0 0 0 0 35 117 289 365 348 391 901 929 506 443 218 255 398 199 21 0 0 0 0 0 0 0 0 1 9 18 20 21 25 63 64 47 60
4 0 0 0 0 0 0 0 0 0 5 0 55 245 305 366 618 973 919 548 548 345 459 334 60 0 0 0 0 0 0 0 0 0 0 2 18 5 3 2 44 31 15
27 0 0 0 0 0 0 0 0 10 61 28 0 119 241 269 441 571 754 845 664 537 549 428 247 44 0 0 0 0 0 0 0 0 0 0 0 0 0 0 13 51 44
0 0 0 0 0 0 0 0 0 0 0 0 0 0 165 208 281 449 608 704 638 679 568 690 546 195 3 0 0 0 0 0 0 0 0 0 0 0 0 0 23 58 69
0 0 0 0 0 0 0 0 0 0 0 0 0 0 0 123 213 303 569 729 771 737 658 772 711 406 248 33 0 0 0 0 0 0 0 0 0 0 0 0 0 24 83

GFSSE_con_mlcape_045.txt.gz
CAPE
7 132 777 967 972 1260 1218 1241 1282 1286 1417 1568 1594 1437 1358 1500 1581 2089 1553 1259 1139 1061 934 688 829 923 1004 1065 1283 1402 1579 1500 1766 1779 2171 2024 2027 1904 1894 1691 1353 1305 1528
6 454 905 1041 1537 1373 1812 1696 1594 1706 1522 1499 1464 1580 1887 2022 1759 1297 1404 1450 1501 1738 1513 1161 674 1005 975 839 1181 1362 1272 1398 1906 2025 2060 2020 2058 1962 1940 1695 1417 1370 1442
14 428 854 965 1341 1547 1650 1638 1851 1861 1621 1697 1870 1813 1928 1681 1499 1449 1444 1578 1562 1430 1509 1310 1287 1007 1199 1565 892 1070 1768 1729 1939 1966 1820 1654 1604 1993 1775 1761 1658 1682 1526
30 542 627 1030 1151 1553 1665 1637 1719 1794 1308 1536 1698 1845 1640 1613 1499 1567 1578 1472 1367 1338 1479 1196 1268 1369 1401 1470 1464 1223 1356 1652 1611 1702 1372 1406 1502 1808 1756 1518 1668 1628 1529
152 634 872 1101 1366 1456 1335 1745 1761 1731 1737 1786 1779 1649 1604 1471 1396 1508 1524 1486 1393 1187 1536 1192 1178 933 1020 709 784 1297 1173 1222 1102 1210 1435 1369 1412 1685 1590 1631 1540 1550 1450
327 448 977 1144 1474 1398 1714 1622 1424 1748 1841 1748 1712 1663 1525 1526 1538 1561 1529 1460 1487 1455 1334 1103 1165 1010 1079 937 1135 1153 1299 873 801 1187 1248 1338 1348 1584 1673 1559 1465 1572 1452
159 593 692 1210 1601 1452 1639 1331 1814 1779 1543 1541 1590 1674 1647 1677 1663 1647 1510 1486 1438 1386 1286 1182 1045 890 768 973 925 1323 1560 748 770 1129 1292 1386 1398 1451 1574 1624 1541 1370 1668
156 549 924 1102 1354 1459 1559 1556 1667 1614 1605 1654 1786 1716 1632 1617 1749 1607 1454 1330 1233 1312 1350 1145 870 892 705 791 1160 1273 1059 594 801 1181 1295 1265 1270 1628 1585 1555 1542 1508 1258
261 491 1056 599 1173 1343 1495 1428 1579 1622 1770 1819 1812 1720 1810 1744 1694 1583 1345 1125 1051 1070 1052 889 662 622 772 869 1020 1429 911 1227 1034 1046 830 517 1030 1482 1564 1550 1564 1556 1399
283 755 984 708 1226 1228 1311 1546 1505 1577 1718 1941 1842 1779 1761 1764 1725 1635 1367 1163 1052 861 683 750 792 625 681 947 1248 1367 984 1019 711 907 991 1098 1129 1308 1571 1532 1488 1460 1404
457 770 615 1065 968 1424 1449 1398 1520 1617 1749 1683 1647 1836 1551 1386 1400 1033 887 1207 1131 1108 796 725 523 678 896 1063 1144 1340 886 771 627 703 921 874 1494 1573 1580 1512 1504 1462 1377
358 661 540 568 678 1049 1209 1327 1407 1168 997 1146 1428 1484 1496 1165 997 797 767 1232 1138 551 580 1057 1098 729 434 988 1255 965 693 900 513 586 1005 961 1193 1295 1599 1479 1429 1392 1445
276 611 879 560 993 799 1015 1134 1179 1062 1060 1200 1201 796 881 931 966 936 794 968 651 482 832 1077 1156 958 1190 677 1045 910 902 951 486 513 661 943 1012 1365 1324 1331 1325 1301 1412
268 499 883 561 854 794 1002 956 1043 938 979 911 708 621 741 689 839 897 776 857 782 800 904 871 1059 612 486 702 898 867 914 861 328 460 354 971 898 946 1397 1322 1320 1217 1173
163 378 683 659 684 816 930 823 857 913 790 700 488 247 383 547 774 860 744 575 790 833 465 718 728 322 445 285 626 868 919 788 281 303 854 662 744 754 559 1299 1374 1211 1052
90 135 538 660 532 723 547 670 649 722 618 516 430 147 350 776 887 764 475 521 1043 1017 732 884 214 137 337 677 846 833 947 703 328 302 384 861 608 637 884 410 562 745 995
31 135 394 584 494 412 381 324 326 312 384 625 846 190 314 655 609 842 769 493 957 804 479 861 651 344 211 470 749 783 796 641 338 242 300 453 707 561 650 835 743 463 467
74 102 394 306 304 213 243 112 70 73 236 617 818 875 683 636 638 1064 910 1041 900 797 727 867 685 253 82 131 352 468 530 458 290 130 211 270 388 424 710 609 432 798 774
179 172 141 318 231 66 62 77 0 15 132 444 565 682 753 776 843 1038 990 972 983 1145 1122 1035 558 750 208 112 90 162 331 320 183 42 295 334 343 379 552 631 421 348 434
207 181 61 184 223 71 35 66 0 0 13 273 395 468 599 759 879 1155 996 922 861 643 780 816 60 48 361 349 49 30 75 102 243 53 185 217 210 284 429 725 532 412 200
206 127 87 22 58 40 0 0 0 0 0 90 391 647 737 763 1010 1223 1094 878 915 857 661 616 100 49 58 68 58 37 28 21 134 133 156 198 285 242 325 489 409 315 242
191 105 78 10 6 0 0 4 5 23 235 570 858 796 872 796 1193 1468 1202 644 735 716 610 655 438 11 29 21 25 30 16 10 17 44 114 195 299 325 288 353 478 428 360
122 140 92 10 0 0 0 63 17 166 227 356 621 867 864 860 1137 1510 1302 1035 814 509 385 460 471 0 0 23 1 10 1 9 22 9 14 113 390 361 380 356 356 396 413
88 92 77 17 0 0 1 0 0 29 149 344 484 658 708 896 977 1370 1585 1232 901 1004 681 969 741 146 0 11 7 13 0 5 5 6 0 6 55 262 338 324 230 354 452
75 47 32 34 0 44 125 30 37 53 176 430 419 445 691 759 915 1148 1278 1070 666 971 844 1154 998 684 35 0 0 37 56 7 0 0 0 1 0 5 66 300 239 323 514
56 46 0 4 0 11 124 65 55 80 174 237 271 266 422 761 791 967 1196 1247 1356 1332 1284 1330 1167 997 822 226 0 18 100 123 87 20 1 62 23 65 127 222 235 251 406

GFSSE_con_mlcape_048.txt.gz
CAPE
11 225 567 718 1026 1246 1342 1559 1654 1591 1747 1831 1664 1431 1327 1309 1849 1941 1421 1293 1188 1113 893 974 1082 1206 1223 1507 1708 1955 1669 1653 1928 2154 2182 2072 2043 1764 1624 1354 1151 1066 1571
27 368 605 941 1050 1232 1325 1467 1498 1642 1780 1767 1591 1466 1716 1989 1800 1539 1527 1713 1834 1590 1293 850 1178 1123 964 1333 1291 1298 1358 1762 2025 2108 2070 2017 2060 1774 1796 1342 1274 1281 1417
27 222 545 1402 1327 1870 1836 1688 1845 1563 1621 1617 1695 1977 1785 1750 1751 1233 1503 1592 1601 1613 1469 1350 1125 1321 1483 925 1425 1638 1638 1644 1913 1581 1422 1347 1635 1774 1757 1594 1442 1474 1611
16 50 412 1228 1531 1636 1760 1765 1710 1903 1921 1821 1829 1648 1774 1629 1287 1660 1679 1553 1575 1507 1347 1394 1513 1585 1612 1460 1163 1561 1757 1872 1406 1219 1271 1254 1323 1800 1649 1784 1622 1547 1548
7 42 715 1206 1603 1730 1754 1853 1779 1507 1680 1683 1616 1645 1719 1656 1637 1689 1618 1365 1305 1455 1317 1267 1076 1131 960 1008 1338 1419 1496 1353 1264 1381 1493 1319 1245 1656 1652 1585 1629 1695 1360
57 91 753 1382 1515 1407 1633 1741 1618 1734 1715 1728 1672 1694 1563 1603 1583 1682 1587 1690 1584 1420 1212 1293 1097 1163 1194 1253 1313 1439 1099 918 1245 1067 1257 1306 1429 1725 1649 1555 1502 1557 1558
40 183 695 1346 1475 1484 1576 1566 1695 1667 1657 1811 1655 1587 1394 1523 1669 1559 1593 1516 1530 1291 1234 1160 1066 958 1040 1272 1268 1565 785 731 1073 1010 1331 1223 1414 1566 1742 1548 1576 1431 1520
50 120 566 1121 1457 1385 1335 1632 1767 1693 1640 1702 1632 1587 1629 1714 1685 1588 1473 1424 1456 1397 1266 1069 848 905 1135 1094 1465 1125 743 500 725 1025 1317 1104 1447 1750 1636 1639 1548 1566 1705
58 176 368 907 1137 1350 1624 1546 1649 1565 1673 1560 1379 1771 1698 1756 1528 1433 1284 1261 1196 1064 927 625 825 1042 1002 1289 1373 1009 1164 896 697 639 402 443 1257 1614 1637 1500 1591 1339 1505
59 274 190 542 759 1004 1002 1541 1614 1736 1445 1677 1797 1657 1812 1731 1431 1209 1009 1110 907 751 873 993 787 947 1076 987 1220 938 694 675 377 576 959 648 1429 1553 1601 1522 1551 1606 1054
48 319 70 484 727 923 999 1241 1517 1597 1820 1652 1622 1569 1194 609 470 943 885 1205 1113 891 559 667 731 919 1051 1238 1374 876 1012 264 331 593 483 1234 1361 1395 1554 1553 1603 1521 1306
35 195 135 715 701 937 840 1101 1248 1134 952 918 1081 1168 855 700 661 340 739 1003 621 764 756 787 842 488 904 961 805 776 491 515 258 567 500 1154 1353 1383 1587 1531 1486 1503 1546
16 37 75 358 545 937 999 1060 948 689 842 1037 1246 1037 908 657 197 505 705 797 711 794 852 1002 1034 896 862 763 695 610 631 409 284 283 497 1083 1383 1364 1384 1350 1385 1506 1434
10 32 11 246 471 726 886 571 529 501 525 571 706 1079 993 791 620 541 740 666 782 821 836 937 399 649 660 1080 913 713 572 171 298 371 398 1071 787 1517 1502 1384 1330 1250 1340
15 102 81 224 547 664 877 551 503 546 578 531 642 820 633 738 865 841 874 825 786 730 569 602 493 554 844 697 757 695 462 175 78 305 791 670 948 547 1131 1419 1404 1286 1053
5 78 133 191 451 686 784 790 940 789 765 536 420 354 931 1036 1118 726 639 954 1090 909 730 548 363 108 77 215 772 594 471 341 247 155 386 577 482 807 568 457 786 899 1035
10 80 144 176 275 545 698 839 636 573 470 691 663 817 1267 1487 842 820 824 758 1094 977 999 618 298 104 92 85 391 554 332 486 312 331 321 408 532 389 545 989 622 454 496
0 0 166 72 55 323 369 507 297 379 596 780 960 957 1111 1393 1304 877 686 824 1108 695 539 138 95 89 77 56 74 137 152 240 305 305 278 327 260 599 478 393 568 736 797
0 0 124 115 38 57 224 205 270 414 652 787 856 956 1422 1407 1533 1408 1038 1109 983 811 812 193 115 73 89 47 49 62 60 69 77 98 300 191 141 224 387 198 287 338 577
0 0 64 137 67 84 107 150 93 328 625 818 888 950 1370 1315 1519 1666 1101 841 798 429 652 659 238 110 110 68 25 27 53 51 62 51 65 68 14 91 137 566 639 398 86
0 0 0 96 184 203 62 0 65 245 334 537 669 1049 1497 1374 1535 1899 1092 763 829 460 524 789 191 431 80 74 43 13 6 21 144 95 72 36 49 61 102 134 219 332 414
43 75 107 107 280 383 0 0 0 154 182 417 882 1382 1537 1483 1701 1624 1214 825 1093 765 365 412 735 55 45 44 57 31 22 19 39 67 61 52 85 82 104 201 73 194 64
116 143 201 255 267 404 0 0 154 248 489 740 1062 1007 1313 1554 1645 1760 1100 1057 643 824 610 769 807 283 44 39 109 55 18 25 29 2 78 51 149 123 162 267 239 139 226
133 234 232 441 387 370 63 0 88 146 119 98 532 645 1156 1568 1547 1718 1563 1188 887 1028 918 865 830 130 242 22 17 17 45 43 40 44 0 31 130 183 244 268 230 287 331
89 228 352 509 532 303 303 7 7 4 0 18 306 642 1009 1660 1607 1490 1623 1180 1151 887 1136 1345 1378 937 0 35 29 13 74 94 62 41 44 85 90 82 118 328 260 268 405
130 167 297 540 738 460 256 190 91 0 0 9 246 328 473 709 1235 1599 1756 1822 1118 969 1468 1290 1272 1572 821 284 17 64 111 220 238 174 114 258 200 226 248 278 325 328 351

GFSSE_con_mlcape_051.txt.gz
CAPE
271 141 372 879 1258 1548 1667 1410 1292 1557 2088 1999 1787 1508 1247 1332 2202 1548 1312 1284 1274 1096 1063 1196 1298 1268 1607 1814 1989 1767 1778 1928 1954 2180 2120 2084 1971 1592 1454 1089 1173 1072 1625
141 371 717 1172 1421 1519 1646 1648 1427 1601 1779 1778 1560 1471 1842 2082 1600 1584 1669 1564 1630 1451 969 1316 1171 1009 1323 1282 1325 1423 1796 1963 1794 2189 1906 1883 1874 1880 1444 1394 1219 1363 1535
360 505 794 1038 1358 1430 1515 1356 1551 1782 1853 1826 1909 1900 1858 1744 1581 1624 1693 1694 1703 1545 1388 1234 1462 1341 966 1602 1591 1680 1607 2080 1719 1377 1409 1422 1615 1818 1676 1449 1703 1633 1634
353 363 606 1335 1781 1869 1664 2109 1758 1650 1924 1903 1931 1742 1715 1596 1780 1663 1647 1625 1561 1443 1463 1620 1546 1519 1325 1161 1585 1765 1823 1264 1426 1259 1336 1358 1265 1889 1901 1699 1644 1617 1599
40 124 1012 1424 1740 1792 1822 1953 1992 1990 1824 1638 1755 1757 1655 1495 1765 1552 1432 1436 1470 1392 1298 1197 1239 1080 1121 1339 1534 1555 1237 1055 1320 1519 1407 1439 868 1535 1646 1168 1336 1520 1248
30 354 972 1677 1745 1824 1915 1792 1784 1805 1725 1659 1741 1677 1670 1599 1554 1755 1636 1456 1455 1286 1393 1141 1248 1274 1281 1201 1392 963 938 1169 1211 1344 1360 1234 1428 1477 1456 1539 1560 1546 1469
164 327 647 1576 1483 1683 1801 1768 1801 1664 1710 1725 1750 1685 1610 1621 1622 1539 1600 1617 1234 1310 1286 955 1129 1265 1280 1267 1545 577 736 1033 1053 1408 1333 1259 1296 1626 1639 1650 1398 1360 1644
108 105 737 1391 1585 1644 1663 1785 1679 1710 1769 1617 1569 1494 1539 1509 1699 1572 1568 1448 1426 1329 1206 948 1088 1308 1438 1521 1173 253 530 971 811 1180 1168 1136 1429 1578 1568 1619 1748 1772 1748
35 140 505 808 1086 1427 1728 1824 1543 1474 1355 1544 1590 1829 1449 1576 1475 1383 1392 1279 1126 923 823 1020 1104 1222 1469 1416 736 832 918 861 917 891 531 848 1373 1665 1578 1548 1125 1545 1316
72 14 159 357 788 711 1152 1637 1648 1505 1340 1532 1644 1643 1576 1385 1211 1155 883 1044 942 1053 1002 947 992 1188 1228 1193 307 394 516 501 303 618 549 1125 1451 1523 1564 1598 1551 1356 1888
73 46 120 182 369 779 1119 1318 1580 1569 1558 1600 1324 1298 1209 494 983 1237 903 1209 935 680 716 755 873 1100 1016 749 488 584 865 585 556 358 681 1174 1476 1555 1552 1618 1698 1339 1439
71 60 74 145 491 779 476 1025 1029 919 710 883 661 1457 1320 662 615 484 497 639 586 656 569 384 621 951 761 691 816 961 877 194 455 385 495 1434 1525 1570 1609 1580 1722 1627 1260
66 51 90 461 408 730 476 862 779 946 845 1087 810 727 555 266 229 641 563 641 669 713 1064 1124 1187 668 386 514 428 434 326 183 430 371 681 1448 1368 1330 1345 1388 1562 1529 1520
74 49 142 143 449 711 458 691 856 575 339 311 655 783 926 991 565 657 698 354 605 731 264 340 98 292 562 934 517 520 269 273 306 328 576 742 1541 1484 1535 1336 1306 1307 1252
54 35 104 34 598 796 888 586 287 246 240 449 699 814 788 1023 763 796 655 629 631 552 371 483 161 393 43 122 359 312 97 115 573 658 664 733 546 1050 1500 1411 1489 1079 967
31 31 23 124 446 652 651 472 409 327 713 286 349 575 974 1032 1340 896 781 1015 937 229 393 403 611 124 133 78 104 148 218 101 234 606 728 564 604 532 382 767 707 896 867
24 36 12 158 445 646 931 667 732 565 291 450 693 1016 1126 1304 1265 1288 899 660 937 623 593 157 51 45 60 257 29 209 52 296 150 282 697 557 489 653 710 575 482 407 495
13 33 16 46 262 546 608 630 434 391 360 650 807 1075 1299 1176 1246 1344 820 396 619 471 642 58 31 29 51 58 115 101 91 92 106 216 170 620 926 797 501 538 750 789 738
3 17 22 13 148 384 661 516 435 461 599 744 873 1090 1424 1386 1308 811 824 1036 1062 629 376 141 39 4 54 44 15 37 66 27 103 77 97 160 28 583 957 244 262 276 401
2 6 61 48 116 411 457 471 393 427 502 602 591 1237 1451 1225 1383 1489 1140 905 937 184 545 647 234 52 32 16 19 43 57 48 39 69 29 43 0 54 652 704 576 448 185
6 2 35 121 357 265 242 262 290 322 375 535 797 1210 1452 1210 1244 1570 885 1011 993 389 760 393 71 46 53 14 6 8 12 17 40 30 31 30 1 32 17 120 500 859 282
1 0 43 270 635 360 147 248 291 365 321 374 401 1134 1454 1434 1437 769 1099 1122 740 938 975 684 425 79 29 20 60 29 17 27 52 109 20 21 63 87 174 219 60 104 311
4 4 64 428 694 603 110 51 103 348 322 305 885 1080 1330 1534 1562 1485 1136 1273 1031 1423 655 820 732 417 97 8 64 64 26 18 107 3 87 100 210 204 183 281 237 175 174
11 38 236 389 763 788 462 0 106 199 82 68 402 509 1046 1388 1542 1535 1376 1459 1086 983 1246 888 975 549 511 32 1 27 60 53 43 183 16 62 153 196 272 284 327 352 379
12 151 150 634 778 684 694 101 76 207 17 43 44 1135 971 1592 1505 1539 1347 1438 1542 1144 1203 1389 1428 812 26 541 20 13 11 29 47 152 294 154 203 109 176 435 337 323 567
92 172 325 772 1043 1006 932 265 375 39 105 3 6 613 594 957 1143 1386 1540 1591 1448 1258 1617 1453 1339 1219 981 315 372 159 162 125 282 172 162 293 228 271 281 283 373 380 417

GFSSE_con_mlcape_054.txt.gz
CAPE
228 173 99 910 1315 1545 1582 1673 1765 2055 1945 1736 1423 1102 1138 1966 1390 1322 1387 1348 1195 1062 1233 1281 1148 1562 1763 1863 1688 1630 1741 2172 2121 2112 1941 1877 1731 1408 1284 998 1073 1242 1509
200 86 534 1186 1620 1589 1557 1719 1863 1997 1856 1540 1373 1535 1906 1550 1623 1693 1454 1513 1513 1015 1422 1016 1043 1420 1173 1276 1492 1777 1946 1997 2233 2028 1811 1959 1808 1054 1121 1093 1323 1500 1518
218 296 872 1115 1640 1495 1540 1839 1896 1932 1832 1668 1866 1909 1723 1587 1693 1684 1726 1547 1455 1333 1395 1592 1010 1148 1731 1645 1676 1680 2074 1903 1598 1263 1339 1454 1700 1657 1773 1645 1724 1594 1451
228 521 758 1145 1396 1573 1459 1429 1530 1660 1725 2022 1871 1814 1686 1719 1685 1639 1646 1499 1593 1583 1601 1667 1602 1315 1199 1650 1765 1831 1601 1369 1068 1179 1152 1270 1087 1512 1739 1688 1432 1553 1048
416 699 957 1590 1713 1828 2018 1844 1962 2029 1940 1867 1892 1702 1469 1754 1660 1467 1480 1529 1435 1310 1302 1350 1200 1275 1327 1591 1438 1339 1188 969 1257 1312 1177 1162 1118 1552 1109 1304 1399 1176 1247
514 939 1376 1698 1697 1937 1834 1846 1835 1808 1761 1814 1836 1817 1721 1504 1749 1733 1514 1439 1366 1428 1271 1379 1406 1355 1159 1308 730 1029 1189 1294 1296 1338 1020 1312 1326 1605 1600 1617 1445 1535 1576
471 557 1257 1696 1728 1848 1729 1733 1781 1825 1756 1720 1721 1553 1524 1657 1527 1524 1673 1083 1384 1313 1181 1284 1327 1315 1312 1359 592 784 1103 1359 1148 1388 1225 1404 1347 1655 1290 1663 1377 1591 1596
239 313 983 1428 1666 1739 1672 1720 1799 1716 1724 1665 1506 1561 1543 1688 1650 1573 1361 1360 1332 1214 1015 1198 1333 1458 1415 1027 261 358 939 940 1307 1201 1333 1295 1413 1458 1732 1708 1805 1670 1558
21 422 759 1057 1454 1717 1621 1595 1664 1561 1573 1580 1667 1530 1673 1471 1405 1324 1228 1082 892 869 1073 1151 1261 1420 963 512 308 649 932 1318 952 938 883 1313 1422 1609 1504 1078 1371 1128 1271
81 189 399 750 827 1088 1348 1493 1446 1423 1658 1529 1588 1566 1289 1294 1170 1078 914 1062 1037 947 993 1086 1262 1149 679 134 458 762 1037 1117 508 892 1112 1320 1387 1645 1682 1581 1858 1868 1686
0 0 118 351 534 1051 1227 1463 1490 1515 1471 1599 1541 954 641 1024 1154 1172 674 781 755 924 983 971 1167 1228 1150 534 352 510 912 602 650 905 1020 1316 1539 1604 1651 1727 1123 1473 1603
1 22 5 187 594 997 580 1249 1369 1326 1213 948 912 763 900 849 904 509 512 659 593 768 758 782 552 68 172 666 1007 902 1403 401 457 782 1151 1428 1549 1632 1625 1746 1487 1009 1049
21 25 41 555 288 641 807 1097 1078 1099 1080 987 553 565 1086 796 307 352 480 582 119 605 867 655 457 49 62 308 779 958 382 419 408 616 1176 1334 1431 1261 1361 1545 1469 1406 1384
33 68 298 255 616 614 622 1140 289 924 1079 597 459 500 976 605 315 573 556 587 198 449 1177 256 533 112 383 422 566 268 184 456 318 386 1144 1355 1429 1338 1142 1304 1250 1350 1150
23 37 276 575 71 92 896 870 143 115 473 719 547 611 205 997 763 803 221 74 744 307 256 126 761 714 652 507 256 249 340 721 783 558 332 747 1178 1318 1287 1377 996 815 935
19 38 162 298 735 714 574 727 422 321 544 392 288 847 612 873 961 1170 1090 530 435 31 154 43 330 302 247 333 144 106 279 679 893 696 556 387 118 654 1118 1155 788 736 1093
20 22 0 390 133 444 481 640 578 172 487 561 846 531 1316 1189 1557 1489 860 350 174 686 1063 476 177 51 264 124 69 155 431 424 477 961 570 566 598 244 319 377 305 469 421
17 18 0 12 469 627 500 622 164 277 662 757 1150 998 1376 1357 1247 1389 847 1056 856 336 23 16 35 52 129 123 76 69 201 122 144 563 706 780 757 804 794 727 494 395 499
29 19 0 85 332 360 455 303 289 450 319 294 905 1049 1346 1024 1053 507 658 967 94 430 327 167 57 30 184 50 36 47 153 39 155 104 435 791 989 665 766 388 558 357 469
22 130 7 221 515 344 846 596 653 339 379 736 643 1306 1589 1498 1280 584 643 996 1153 77 10 471 252 31 132 37 10 86 119 85 110 117 22 138 175 743 818 501 394 262 243
0 0 234 220 722 497 408 600 531 252 248 245 679 1138 1369 1336 1341 523 913 961 857 786 109 779 91 46 167 30 12 1 1 10 16 155 138 32 13 742 956 952 701 1044 157
0 0 213 271 698 410 656 630 603 264 453 607 290 1592 1300 1185 1315 1310 1025 903 539 962 1034 916 900 299 28 34 41 169 9 31 102 47 150 78 115 221 238 281 581 725 693
0 0 146 437 649 427 544 368 707 810 918 343 1392 1260 1475 1309 1413 1493 1339 1050 966 863 897 757 861 667 144 28 24 330 11 41 141 37 42 243 82 171 385 250 360 253 186
30 11 176 575 1030 400 493 158 290 347 449 33 1173 1193 1243 1560 1359 1872 1229 1548 887 1090 686 1066 830 852 47 160 8 176 159 79 56 158 226 205 154 187 236 528 477 467 446
50 61 124 491 1052 700 416 407 68 325 237 568 136 1413 1457 1523 1788 1826 1512 1621 1285 1327 1090 1068 1080 760 916 416 2 10 4 94 60 313 169 243 210 406 440 305 506 629 562
91 72 318 378 683 989 360 667 192 113 414 269 65 1050 1445 1598 1602 1918 1603 1675 1686 1331 1094 1394 1357 1160 859 938 526 692 30 182 348 418 495 473 426 227 330 441 389 392 782

GFSSE_con_mlcape_060.txt.gz
CAPE
0 75 696 1161 1602 1751 1995 2034 1571 1385 977 1474 1982 1313 1624 1703 1654 1499 1210 1396 1513 1274 1298 1744 1875 1938 1881 2276 2359 2346 2199 2148 2043 1760 1533 1326 1555 1666 1487 1350 1341 1297 1090
0 118 951 1443 1673 1814 2074 2109 1760 1450 1139 1982 1712 1480 1702 1605 1740 1930 1258 1651 1120 1031 1333 1363 1314 1603 1850 2006 2289 2269 2196 2242 2166 1871 1729 1667 1603 1624 1488 1445 1480 1342 1173
0 507 1250 1488 1668 1786 1968 1818 1741 1510 1799 1990 1735 1824 2051 1795 1733 1681 1567 1528 1811 1097 1373 1786 1481 1543 1654 1968 1991 1910 2026 2030 2053 1609 1587 1475 1532 1634 1557 1496 1536 1277 1239
14 747 1022 1289 1667 1826 1790 1807 1724 1746 2103 1883 1729 1782 1587 1673 1634 1671 1650 1754 1665 1548 1370 1220 1660 1502 1667 1924 1688 1607 1440 1562 1878 1248 1155 1320 1465 1693 1583 1041 1147 1229 1374
269 659 874 1220 1595 1798 1880 1867 1713 1761 1882 1827 1853 1828 1573 1614 1536 1513 1537 1437 1475 1380 1274 1279 1369 1473 1572 1543 1563 1348 1295 1531 1666 1026 941 987 1337 1534 1237 1393 1307 1454 1430
347 612 1246 1195 1262 1262 1373 1658 1960 1729 1826 1691 1674 1551 1646 1640 1627 1278 1523 1431 1478 1467 1438 1276 1124 1184 1429 1663 1344 1223 1504 1671 1194 1044 1196 1566 1723 1573 1413 1477 919 1343 1228
393 904 1241 1600 1898 1786 1927 1817 1717 1807 1813 1809 1689 1572 1849 1479 1581 1312 1384 1413 1464 1482 1346 1282 1058 1181 1339 1275 1244 1050 1541 1348 964 1135 1330 1607 1601 1746 1626 1764 1471 1442 869
519 1120 1509 1633 1736 1725 1748 1773 1770 1749 1760 1585 1649 1765 1661 1636 1119 1460 1400 1366 1365 1406 1323 1119 1019 1210 1061 962 1145 1247 1259 1280 915 1093 1232 1315 1558 1540 1802 1657 1486 887 706
617 926 1332 1414 1648 1724 1759 1760 1781 1728 1665 1661 1668 1713 1630 1376 1422 1384 1332 1186 1299 1320 1255 1197 1030 854 607 535 795 1235 1588 1081 775 1023 1276 1712 1959 2087 1888 1237 656 1526 1321
660 680 848 1193 1274 1450 1792 1654 1676 1663 1642 1620 1562 1407 1284 1205 1133 1054 1027 1105 1216 1275 1197 1297 1166 460 357 559 884 1014 1414 1015 811 984 1335 1586 1187 1403 1426 1707 1669 1097 826
373 488 798 1021 915 1134 1420 1459 1621 1600 1614 1507 1300 1243 1101 964 877 832 1027 1126 1080 1186 1224 997 623 440 498 886 374 655 954 845 708 968 1303 1471 1435 1711 2045 1790 1613 1438 1322
0 382 545 572 574 938 1122 1273 1407 1372 1226 833 901 790 768 677 609 450 864 1138 1080 1049 1166 649 84 355 286 312 587 763 738 605 682 925 1344 1522 1616 1634 1134 1566 1702 1160 1389
3 48 84 328 384 703 901 873 910 697 346 188 321 559 565 597 326 425 497 499 524 635 739 72 0 1 166 353 572 458 588 519 624 932 1381 1532 1538 1602 1654 1016 1034 1400 1138
19 70 127 349 298 331 477 572 574 537 488 340 163 191 473 409 69 157 120 75 112 46 0 108 0 19 233 314 280 401 453 293 502 935 1349 1393 1346 1484 1421 1397 1390 1201 1100
30 70 108 273 219 199 188 338 407 583 635 429 122 344 366 222 161 214 77 31 97 307 48 113 1 37 242 376 397 207 266 208 306 770 1030 984 1010 1169 1461 1232 1290 1039 938
8 45 82 232 378 180 229 364 377 528 623 218 86 33 155 499 314 302 281 273 202 206 350 155 168 47 168 408 204 216 102 104 279 515 711 1078 1008 1247 1229 899 835 873 1153
13 30 40 161 300 200 463 420 65 278 454 383 50 0 244 526 341 180 69 302 157 194 94 54 180 87 141 229 163 253 257 111 45 259 488 650 1038 1062 1320 1189 582 755 1032
62 24 25 69 115 289 343 292 156 250 299 357 87 173 267 471 506 432 111 83 55 376 165 18 239 155 92 79 118 373 378 487 351 128 141 291 467 668 1186 801 495 591 394
51 32 27 5 151 232 153 215 198 347 377 230 249 597 660 558 497 384 336 236 155 65 39 15 64 93 63 44 72 154 371 422 559 530 445 286 146 187 291 532 353 253 396
87 37 28 0 246 404 268 61 115 351 278 374 446 751 753 449 163 267 332 204 211 47 19 34 51 43 93 46 45 88 85 154 477 388 400 513 520 571 336 255 492 396 351
96 13 0 9 228 406 315 37 242 302 426 570 730 855 681 475 0 97 207 399 33 50 43 135 55 46 94 29 10 24 36 131 117 220 384 457 545 654 614 499 338 515 368
4 0 0 3 113 238 212 109 334 242 170 374 759 949 777 661 436 92 166 160 120 43 81 293 123 175 41 19 21 33 0 4 33 42 129 266 392 594 650 673 315 355 376
1 0 57 85 96 140 86 92 350 251 150 214 542 797 857 923 523 313 337 164 413 257 447 278 155 61 6 19 29 16 0 0 75 68 55 97 106 271 513 737 547 410 427
0 52 123 129 179 134 111 16 197 311 159 129 366 555 891 856 760 729 770 771 153 551 383 290 567 175 21 28 22 48 43 64 38 29 50 128 8 237 303 476 657 553 472
0 0 124 144 193 194 63 0 101 439 211 85 313 528 745 1009 850 1081 707 583 524 591 444 104 642 611 339 200 11 30 10 11 70 174 150 120 74 51 195 247 208 353 278
0 0 115 88 99 180 97 4 10 225 357 444 182 452 659 1096 975 892 775 791 556 501 350 456 756 409 344 578 182 106 20 89 244 320 260 208 94 63 119 127 120 229 222

GFSSE_con_mlcape_063.txt.gz
CAPE
0 262 1097 1554 1772 1930 1562 1538 1390 1362 2043 1648 1421 1661 1766 1677 1450 1345 1450 1465 1316 1628 1884 2011 1881 2083 2397 2218 2128 1960 1998 2000 1856 1754 1900 1799 1532 1480 1545 1563 1183 988 1162
0 458 1248 1643 1792 1905 1778 1591 1387 1410 2051 1576 1858 1968 1957 1978 1675 1311 1830 1194 1248 1269 1416 1568 1880 1868 2210 2386 2222 2155 2230 2025 1981 1927 1970 1662 1671 1346 1499 1360 1368 1149 987
0 842 1322 1536 1765 1903 2067 1676 1429 1672 1901 1659 1898 1928 1854 1820 1880 1397 1734 1619 1119 1880 1530 1408 1711 1970 2069 2285 2145 2193 2243 2090 1973 1828 1690 1287 1473 1764 1405 1513 1493 511 231
135 1086 1400 1448 1759 1976 1954 1693 1565 1858 1799 1693 1919 1679 1781 1741 1638 1862 1720 1777 1529 1195 1700 1363 1448 1660 2000 1944 1918 1935 2011 1693 1543 1692 1334 1389 1765 1659 937 1205 1530 1123 899
504 958 1383 1585 1746 1900 1889 1687 1757 2094 1813 1799 1831 1673 1654 1656 1725 1779 1713 1603 1479 1325 1294 1664 1396 1736 1630 1677 1701 1648 1835 1781 1559 1127 1147 1300 1373 998 1822 1538 1308 1334 1182
559 744 1435 1729 1876 1961 1979 1699 1697 1950 1761 1821 1722 1674 1564 1613 1493 1482 1443 1421 1514 1395 1192 1244 1479 1688 1770 1597 1573 1216 1621 1607 1088 1074 1465 1824 1449 1449 1149 952 1420 992 411
472 974 1390 1554 1462 1374 1495 1966 1686 1891 1681 1746 1529 1682 1622 1596 1319 1471 1494 1546 1529 1520 1196 1174 1294 1217 1066 1076 1020 1209 1671 1442 1039 1406 1681 1562 1557 1623 1634 1505 1488 545 357
678 1029 1391 1652 1463 1829 1914 1765 1904 1851 1749 1682 1502 1500 1494 1485 1450 1415 1480 1477 1391 1154 1095 1146 1098 1088 1158 1402 1660 1818 1721 1371 1218 1316 1418 1599 1727 1843 1841 1794 1116 814 673
748 934 1299 1617 1832 1753 1678 1826 1813 1767 1551 1725 1651 1533 1415 1269 1540 1456 1387 1323 1322 1141 1020 1216 1129 913 1044 1413 1475 1797 1379 1164 1005 1181 1572 1792 1784 1885 1781 746 1565 1593 1342
886 998 1088 1378 1550 1565 1640 1855 1761 1696 1619 1558 1603 1612 1364 1382 1318 1218 1226 1416 1343 1121 1095 760 682 798 1025 1424 1372 1725 1456 1106 823 1249 1608 1765 1581 1288 1382 1428 1023 780 963
737 823 989 1254 1286 1437 1381 1657 1696 1625 1546 1381 1294 1354 1268 1007 894 913 1134 1293 1368 1260 1026 490 647 829 1031 852 1422 1811 975 686 796 1196 1300 1243 1908 1963 2009 1801 1551 1438 1034
259 651 789 843 961 1284 1266 1467 1431 1507 1256 1185 1118 878 832 671 545 816 1224 1213 1241 1333 1186 435 497 603 327 534 999 1067 752 646 770 1018 1293 1362 1335 1279 1314 1767 1563 942 1346
121 503 667 512 687 874 1042 1195 1225 1188 801 882 827 722 683 602 566 679 816 770 691 786 324 8 98 102 346 482 570 606 649 504 668 1008 1352 1410 1725 1440 1083 1089 928 1324 907
65 309 460 337 414 673 844 930 813 425 392 393 447 568 485 376 202 279 233 119 85 41 74 57 0 103 354 397 437 399 571 403 567 891 1313 1390 1431 1810 1422 1341 1493 966 749
0 32 81 203 185 385 528 595 554 356 268 213 180 217 473 296 50 154 111 68 131 164 49 26 13 166 295 422 297 337 486 179 366 739 1106 1195 1161 1312 1283 1178 1234 1057 895
0 0 33 253 151 256 287 251 282 405 579 512 343 293 385 223 130 276 73 103 267 196 248 139 126 96 171 385 284 239 198 139 265 674 743 899 826 1016 1249 1012 1061 823 984
8 14 79 204 175 103 137 155 266 396 636 556 135 160 165 521 312 301 253 264 176 97 171 326 198 151 203 278 141 152 135 107 199 428 529 681 920 1159 1354 908 628 686 1239
40 45 119 245 275 115 167 310 321 327 418 487 226 63 140 560 409 292 87 228 67 293 169 92 119 194 160 147 111 223 228 145 102 238 318 307 603 859 1085 1374 861 471 587
39 55 72 198 285 189 277 345 262 127 274 340 325 7 231 569 549 432 195 167 156 101 66 36 65 94 50 36 106 291 405 393 347 221 194 150 210 380 428 789 759 415 508
39 39 57 104 290 276 201 214 207 234 311 303 307 329 551 472 430 406 385 248 24 44 62 39 69 35 45 40 99 179 289 321 461 500 395 335 226 153 169 130 208 373 330
30 22 19 50 192 246 148 104 238 273 303 376 285 593 602 451 210 245 355 288 214 35 35 51 30 45 66 36 15 30 28 39 103 352 455 402 440 424 500 489 283 312 355
5 1 0 18 140 272 152 100 230 313 280 286 437 671 697 425 5 184 179 207 24 37 112 193 66 244 64 11 16 23 5 0 49 63 162 250 332 487 468 554 481 405 250
9 4 0 0 72 242 192 120 201 229 167 285 587 664 832 688 500 224 317 228 169 60 255 217 78 79 17 6 18 5 0 0 19 27 21 52 164 227 425 460 503 453 227
10 14 0 0 28 216 190 97 200 196 202 201 396 564 875 1006 842 299 178 264 399 325 416 213 348 69 12 11 18 57 18 18 14 6 16 52 51 47 81 218 410 525 426
0 0 0 0 31 111 114 111 94 154 152 126 233 505 850 921 826 752 724 902 450 481 480 349 519 360 51 57 16 29 11 0 3 67 101 74 89 48 115 192 224 321 361
0 0 0 0 30 51 35 10 18 75 163 149 120 249 482 854 861 874 827 746 602 478 592 162 497 570 367 429 100 28 10 59 136 158 180 164 91 77 61 88 139 150 138

GFSSE_con_mlcape_066.txt.gz
CAPE
0 333 1216 1578 1588 1462 1459 1295 1426 1900 1268 1365 1583 1589 1528 1396 1371 1411 1494 1553 1752 1989 1947 1717 2331 2259 2139 1856 2001 1699 1866 1983 2027 1997 1648 1596 1693 1552 1345 1014 1178 852 1086
0 547 1301 1575 1923 1451 1491 1352 1544 1955 1507 1718 1924 1754 1464 1457 1419 1901 1471 1231 1367 1688 1825 2025 1973 2035 2107 2112 2121 2094 2156 2024 1964 1877 1710 1375 1383 1328 1433 1467 953 1269 1214
12 810 1170 1559 1909 1593 1548 1347 1532 1783 1518 1861 1802 1890 1913 1839 1519 1719 1280 1280 1923 1409 1471 1807 1787 1958 1996 2072 2184 2247 2194 2135 1914 1737 1532 1521 1456 1376 1359 1023 285 398 818
194 941 1238 1319 1843 1939 1565 1506 1807 1699 1706 2053 1927 1918 1920 1793 1930 1777 1857 1300 1392 1369 1360 1522 1777 1855 1882 2123 2210 2169 1782 1991 1832 1563 1543 1665 1252 1157 1520 1213 1215 317 138
514 1014 1115 1334 1670 1648 1729 1641 1823 1834 1679 1938 1866 1794 1840 1905 1894 1809 1691 1574 1309 1398 1348 1411 1619 1605 1823 1884 1713 1629 1834 1892 1646 1318 1456 858 1237 1573 1499 1294 1512 701 680
592 1012 1371 1542 1875 1888 1701 1733 1901 1864 1895 1891 1736 1923 1609 1610 1518 1463 1414 1463 1364 1209 1383 1518 1660 1689 1752 1417 1342 1321 1814 1510 1214 1405 1591 1500 1592 904 1585 1556 753 394 1228
493 959 1504 1643 1822 1946 1598 1670 1659 1729 1701 1492 1670 1789 1776 1318 1529 1472 1425 1040 1262 1100 1236 1394 1339 1323 1235 1323 1463 1557 1723 1422 1314 1626 1571 1659 1636 1765 1679 1541 455 303 626
504 1007 1439 1571 1453 1309 1716 1688 1615 1695 1630 1576 1615 1548 1687 1336 1051 1041 1274 1422 1110 1134 1286 1180 1210 1428 1506 1566 1738 1776 1737 1679 1534 1445 1667 1722 1879 1939 1802 970 937 693 648
805 871 1113 984 1399 1793 1646 1487 1366 1562 1599 1525 1518 1683 1331 1348 1088 1319 1402 1364 1017 1006 1324 1247 1278 1532 1567 1819 1887 1864 1645 1370 1151 1455 1571 1804 1617 1904 793 1563 1692 1361 887
718 880 1199 1435 1445 1471 1680 1533 1591 1484 1756 1791 1554 1264 1489 1465 1151 1375 1267 1299 1046 1136 1273 1266 1179 1551 1514 1725 1949 1668 1586 1247 1282 1628 1867 1818 1585 1101 1315 945 740 1144 699
534 544 970 1153 1097 1279 1487 1512 1640 1506 1338 1332 1314 1277 1103 966 936 931 1355 1342 1265 980 767 909 1149 910 1233 1785 2057 1731 991 844 1243 1273 1101 1584 1661 1905 1893 1683 1525 996 1345
314 572 793 876 932 1207 1319 1388 1226 1279 1081 1030 1063 782 682 585 611 994 1316 1376 1354 1118 753 872 944 1061 640 951 1670 1406 789 681 1056 1193 1379 1490 1757 1621 1497 1525 1215 1259 844
181 519 718 725 880 962 1122 1112 1062 991 974 873 776 600 539 431 563 724 887 979 1060 836 127 233 320 248 346 720 964 820 723 599 869 1164 1341 1386 1194 1159 1530 1115 1060 1016 982
140 295 449 535 668 721 935 851 801 674 662 607 577 530 397 168 221 319 427 338 394 144 85 6 0 325 461 565 606 625 699 430 721 1014 1343 1176 1472 1734 1035 1243 1392 912 693
15 102 230 305 400 440 622 670 453 342 369 311 331 316 320 318 97 169 235 77 173 30 103 0 114 352 413 545 480 445 633 355 555 864 1162 1292 1211 1409 1292 1208 1191 959 801
13 46 179 162 264 395 338 414 142 137 186 202 182 195 329 384 145 118 84 104 231 261 235 157 115 172 312 462 408 496 411 241 433 694 907 1076 1000 1098 1368 1036 1089 768 900
0 32 5 66 133 229 166 252 237 257 371 454 377 231 212 355 187 150 309 204 253 135 303 431 322 230 319 378 318 263 306 242 260 518 585 837 982 1074 1324 1061 732 674 915
0 0 0 128 84 100 101 104 106 171 384 512 398 115 123 131 411 224 175 275 214 329 222 163 178 267 252 236 233 280 243 222 233 338 418 480 593 825 973 1355 1315 746 647
0 0 0 60 0 52 1 88 199 247 282 308 391 246 67 242 452 233 129 243 147 214 109 36 135 250 176 163 259 261 411 457 348 252 258 301 314 509 481 590 936 872 582
9 17 32 44 74 108 37 151 193 141 116 181 303 267 51 334 382 303 298 93 200 82 62 56 125 97 120 118 99 258 456 506 591 551 513 359 275 192 167 170 129 194 363
27 29 43 60 135 63 56 182 162 153 207 230 237 280 452 409 348 263 320 149 76 56 49 56 45 103 108 21 41 71 90 68 133 247 536 540 450 461 419 452 517 360 283
10 19 35 39 106 159 92 104 167 181 198 245 285 313 515 498 96 146 291 208 135 41 157 129 66 247 93 9 16 11 0 0 14 127 133 279 355 383 477 506 514 544 477
0 0 0 19 55 184 54 76 108 126 170 225 253 352 629 566 168 80 224 254 29 33 254 263 96 110 28 5 6 19 5 0 10 58 100 50 57 149 220 351 462 486 495
5 0 0 0 24 133 62 78 87 134 183 250 245 434 608 790 659 373 173 324 276 311 217 144 320 170 19 22 0 60 34 18 59 119 34 94 104 109 51 85 162 307 439
0 0 0 0 7 63 90 54 40 76 149 145 202 429 531 777 837 511 299 340 277 368 402 329 430 284 51 35 18 22 17 13 57 161 209 201 141 158 98 121 200 225 260
0 0 0 0 0 20 85 92 60 45 74 118 128 224 415 707 800 741 719 504 302 361 531 355 343 518 370 236 145 28 15 125 188 188 212 240 183 173 152 107 89 135 145

GFSSE_con_mlcape_069.txt.gz
CAPE
21 601 1094 1514 1412 1430 1316 1769 1738 1471 1520 1615 1555 1444 1395 1391 1537 1633 1720 1824 2024 1893 1747 2441 2361 2158 1950 1900 1867 1917 1713 1797 1857 1589 1728 1561 1451 1293 1346 1023 1041 1002 1210
118 829 1293 1532 1480 1496 1373 1883 1828 1584 1792 1860 1570 1382 1457 1439 1743 1644 1274 1493 1814 1828 1816 2216 2131 1988 1990 2078 2112 2010 1880 1600 1738 1535 1371 1350 1550 1448 1096 1418 1221 1233 1010
159 931 1222 1817 1432 1482 1290 1603 1640 1598 1825 1611 1854 2050 1724 1611 1556 1237 1419 1736 1378 1589 1975 1915 1888 1942 2093 2077 1904 1761 1855 1904 1646 1698 1555 1069 1275 1399 372 490 1067 659 205
237 920 1159 1705 1504 1484 1287 1590 1592 1541 2103 1909 1635 1660 1675 1596 1665 1545 1442 1640 1530 1547 1741 1623 1891 1988 2082 2031 1914 2046 2016 2002 1978 1739 1187 660 956 1397 1398 799 167 234 498
498 873 1177 1576 1876 1543 1493 1734 1669 1573 1915 1794 1765 1687 1612 1758 1642 1419 1429 1347 1596 1353 1673 1711 1844 2012 2004 1678 1902 1974 2018 2018 1921 1336 681 1456 1017 1362 1516 1137 578 1159 1163
540 849 1354 1704 1747 1810 1602 2013 1755 1822 1896 1777 1730 1566 1630 1566 1526 1428 1401 1411 1319 1385 1714 1789 1826 1917 1376 1529 1482 1965 1877 1764 1428 1345 1470 1403 883 1529 1472 370 1133 1420 982
552 905 1214 1692 1848 1685 1733 1714 1807 1856 1710 1711 1781 1667 1393 1559 1409 1270 1137 1005 1114 1456 1620 1526 1450 1491 1603 1464 1725 1794 1690 1824 1784 1579 1711 1441 1700 1655 1029 495 403 605 578
463 839 1293 1372 1760 1637 1693 1568 1622 1593 1591 1750 1548 1701 1457 1175 1098 874 1078 1114 1158 1435 1305 1446 1545 1400 1512 1625 1937 1954 1981 1840 1586 1750 1608 1791 1651 1898 816 997 759 810 1247
509 857 1398 1194 1114 1470 1576 1617 1445 1576 1442 1428 1703 1420 1395 1193 1118 1244 1306 972 1173 1428 1442 1492 1467 1637 1842 1970 2032 1805 1730 1645 1470 1541 1574 1642 1702 855 1647 1782 1269 758 842
483 782 612 567 1414 1327 1318 1341 1448 1431 1694 1389 1247 1353 1392 1273 1455 1165 1183 1128 1334 1410 1477 1334 1335 1306 1316 1618 1699 1751 1584 1399 1517 1803 1787 1500 1099 1393 890 811 1094 750 1194
484 747 821 1243 1193 1336 1184 1348 1339 1594 1389 1476 1149 1342 1102 979 1035 1157 1373 1174 1134 1051 1140 1325 1172 915 1412 1901 1918 1399 989 1177 1204 1133 886 1373 1534 1684 1781 1614 995 1279 823
271 637 765 1082 1072 1164 1169 1362 1202 946 978 1171 1303 1276 960 1039 1240 1372 1390 1297 992 876 1126 1195 1267 848 1193 1744 1687 1237 783 1119 1120 1083 1259 1539 1726 1481 1486 1584 1212 948 928
97 295 734 1006 1149 1029 1362 1014 887 840 949 1061 1117 1072 1091 926 1108 1265 1338 1069 1217 653 548 876 690 838 1188 1489 1428 1316 873 834 928 995 1033 1198 1114 1429 1546 994 1364 970 1273
114 471 742 809 1004 1051 1124 759 935 776 917 712 885 986 877 510 800 1004 818 1015 832 531 539 329 615 1161 1195 1238 1271 1298 1061 641 781 870 936 1311 1613 1407 1056 1405 1173 883 736
76 346 612 718 987 1035 1178 1031 824 760 756 794 863 817 908 785 668 794 659 620 701 577 498 449 960 935 1183 1217 1175 1193 989 649 802 784 865 1249 1315 1338 1299 1157 1183 989 811
48 116 380 548 760 821 867 824 670 702 710 677 650 684 837 935 695 641 508 717 838 945 749 781 782 934 1104 1098 1104 1181 799 606 828 923 884 989 963 1089 1348 1032 1126 804 962
18 103 299 321 542 623 785 685 462 452 555 706 884 709 638 860 789 348 953 756 826 774 1025 1066 1052 962 995 946 959 946 855 713 684 954 931 1024 994 938 1263 1261 902 711 695
4 70 309 115 298 519 588 533 288 474 704 917 937 584 529 541 806 822 728 590 887 999 866 878 907 910 887 855 936 942 914 869 776 967 986 959 919 888 902 845 1360 1149 762
9 44 114 158 171 302 453 465 448 483 699 935 942 754 502 480 973 696 705 952 802 824 469 600 843 910 746 758 745 884 1101 1116 1126 845 1000 1009 902 927 880 633 504 693 762
0 0 0 143 245 231 305 368 364 550 635 666 852 868 522 572 876 735 731 839 865 640 431 619 690 589 715 674 416 681 1023 1126 1212 1193 1160 1074 1028 954 814 909 948 644 287
0 0 37 111 206 180 113 149 464 481 489 524 665 789 651 841 893 833 693 644 686 434 423 434 493 619 586 461 498 450 573 723 722 723 924 1037 1082 1011 1048 1055 1138 1078 823
5 4 52 137 223 280 189 358 574 626 652 898 839 788 888 1032 839 809 880 571 600 286 469 419 407 717 608 271 290 352 167 224 343 537 655 644 764 830 830 1034 1180 1208 1256
56 23 12 110 252 421 319 318 453 511 548 643 708 719 890 1084 364 551 832 769 556 469 799 666 473 568 317 170 243 285 220 270 527 501 609 483 451 568 713 777 955 1090 1170
82 44 103 113 196 521 455 333 384 426 539 638 681 777 983 1188 887 548 786 826 501 441 861 857 961 650 124 191 163 374 350 374 483 482 536 532 550 548 580 604 704 838 1015
60 87 125 113 173 402 533 434 478 525 576 736 797 941 983 1374 1031 1037 718 915 725 1022 837 837 835 171 204 172 154 314 283 326 631 818 523 641 685 637 626 607 691 789 899
55 68 93 64 75 302 388 427 421 449 492 484 572 798 970 1268 905 1281 1063 937 1017 1018 858 1005 1007 1074 940 724 645 442 271 559 848 843 845 935 790 852 883 819 745 791 830

GFSSE_con_mlcape_072.txt.gz
CAPE
470 537 1118 1014 1389 1431 1314 1460 1509 1538 1569 1567 1498 1445 1429 1665 1715 1770 1837 2143 2121 2151 2264 2070 2081 2094 2088 2190 1981 1725 1908 1827 1840 1753 1603 1473 1565 1451 1389 1194 1076 1140 1285
488 587 1426 1380 1322 1322 2101 1598 1621 1694 1753 1650 1632 1445 1506 1857 1660 1242 1433 1993 1879 1930 2289 2243 2038 2066 2117 2056 1996 1846 1846 1790 1553 1430 1578 1544 1246 1557 1603 1498 1126 435 483
344 693 1014 1473 1441 1404 1977 1650 1821 1976 1751 2030 2113 1605 1768 1555 1278 1510 1634 1382 1794 1934 2128 2005 2018 2231 2213 1975 1924 1948 1953 1723 1427 1551 1334 767 115 532 1199 864 246 254 459
331 554 843 1299 1513 1352 1917 1497 1741 2141 1826 1909 1856 1761 1720 1749 1615 1608 1712 1551 1659 1726 1788 2006 2079 2117 1986 2081 2209 2137 2127 1694 1723 1419 353 736 895 1314 300 383 706 680 548
493 655 1270 1462 1570 1475 1973 1610 1670 1998 1894 1575 1685 1737 1801 1583 1469 1458 1495 1599 1406 1809 1790 1981 1898 1856 1557 2077 2184 2062 2073 1918 996 1092 1095 538 780 1569 714 1226 1291 713 800
439 638 1329 1997 1523 1564 1691 1757 1591 1853 1760 1485 1530 1561 1469 1508 1435 1433 1450 1550 1492 1732 1854 1890 1806 1346 1444 1933 1970 1940 1918 1584 1066 773 374 1194 1413 740 453 1383 1298 554 1260
439 676 1221 1722 1728 1570 1893 1777 1896 1707 1589 1524 1614 1480 1468 1418 1373 1247 1302 1252 1541 1546 1642 1612 1626 1357 1521 1880 1815 1904 2017 1612 986 1411 1371 1354 1476 702 493 684 501 1293 1231
317 608 1043 1611 1768 1698 1504 1778 1713 1582 1517 1604 1481 1390 1292 1190 1098 1394 1306 1203 1476 1452 1625 1695 1496 1516 1530 2000 2014 2117 1988 1440 1066 1473 1534 1396 1362 1026 991 795 1029 1391 1352
350 665 853 1282 1404 1590 1616 1566 1698 1583 1555 1470 1382 1407 1285 1275 1279 1288 1048 1354 1393 1400 1210 1240 1243 1392 1728 2066 2005 1847 1609 1315 1251 1469 1496 872 1071 1629 1530 1488 633 1096 1184
328 846 602 299 473 956 1197 1479 1612 1475 1489 1313 1387 1274 998 1296 1099 1084 1172 1457 1465 1219 1325 1318 1377 1614 1777 1799 1793 1327 1231 1473 1427 1221 599 568 1470 905 877 919 1067 1375 553
527 599 20 614 1149 1233 1075 1347 1317 1298 1330 949 824 711 831 603 704 680 1163 1304 1304 1390 1495 1178 1401 1726 1837 1843 1264 1014 1425 876 685 572 954 1205 1443 1553 1510 1020 962 713 683
356 327 90 752 685 1062 1134 1096 541 430 408 487 667 798 657 864 1271 617 1018 1052 1118 1276 1288 1138 643 1105 1484 1528 1130 822 667 804 591 625 1105 1555 1389 1491 1399 1306 1138 1102 933
306 51 422 574 809 957 1097 349 190 299 542 863 840 694 789 649 528 425 829 935 771 942 1069 1093 1232 1360 1506 1158 789 417 516 448 423 381 985 1193 1180 1223 899 1283 922 849 912
184 52 286 649 763 946 642 147 342 466 545 519 766 741 751 466 531 586 634 851 771 720 845 987 1307 1583 1664 1410 942 632 437 419 387 362 484 1422 1670 1212 1262 1614 905 728 886
56 101 235 522 825 957 462 245 362 417 414 500 586 948 719 660 850 770 868 808 754 810 869 1226 1296 1485 1452 1257 1148 1049 771 813 731 490 429 673 1262 1177 1199 1053 928 863 672
7 111 257 429 813 982 499 577 518 425 499 538 601 981 1254 860 1027 943 913 890 919 847 999 1143 1367 1249 972 1020 1145 1031 893 978 1120 1099 962 743 565 861 1213 869 913 701 907
1 69 203 351 607 652 533 646 396 432 440 607 798 1221 1294 1242 1315 1168 1084 978 887 1183 1371 1379 1351 1235 737 931 1145 1138 919 904 1008 1107 876 944 1051 600 819 1099 822 585 556
0 51 181 156 385 474 321 654 551 686 634 825 855 777 1100 1134 756 870 725 743 1071 1136 1002 944 1038 826 718 785 929 775 798 714 926 1108 902 879 822 966 831 535 918 1035 806
19 74 149 179 360 417 532 281 583 754 806 861 853 772 1159 1071 634 609 783 865 1334 966 805 698 887 785 659 624 561 717 845 728 861 728 1000 1017 798 715 591 557 422 498 669
25 17 64 178 317 445 573 650 564 613 798 936 969 1084 1094 1092 999 670 712 934 998 605 663 767 837 799 692 599 443 471 527 493 581 581 684 678 821 929 661 867 846 631 512
75 0 0 121 397 403 473 404 535 635 752 829 1047 1269 1278 1250 1362 1102 884 842 930 514 883 1172 771 757 337 582 385 235 233 555 398 290 430 414 630 702 742 829 908 676 720
14 0 0 108 535 456 192 273 499 679 777 922 1047 1260 992 1302 1035 1015 1014 939 718 398 980 1000 992 247 271 486 273 309 181 314 294 273 329 318 461 490 499 689 840 1081 1144
29 0 74 236 536 415 171 492 1100 1116 1147 865 1183 1090 1154 1553 1356 1314 1439 644 1206 723 307 953 899 933 112 335 813 339 332 251 471 263 406 215 529 387 452 582 712 879 1224
69 30 125 401 635 626 698 543 743 539 424 567 802 913 1266 1438 1201 1148 1433 1407 1460 693 818 995 969 860 490 29 166 399 1029 753 581 342 157 265 350 329 437 351 413 664 1110
156 174 233 568 697 701 910 577 862 862 516 833 804 1093 1301 1582 1253 1230 1375 1494 1457 1084 1151 1135 1561 1106 348 53 62 313 752 854 1399 685 189 173 186 314 393 468 600 687 1169
193 263 296 507 901 972 1170 1306 943 739 813 445 750 924 705 1327 1175 1340 1273 1543 1440 1277 1324 1106 1523 1456 959 583 215 533 465 821 743 619 430 447 478 570 636 773 935 1151 1341

GFSSE_con_mlcape_075.txt.gz
CAPE
689 723 864 1067 1404 1575 1614 1549 1554 1490 1368 1370 1388 1423 1705 1614 1671 1879 2085 2101 2324 2406 2035 2180 1932 2228 2114 1908 1916 1852 1917 1799 1577 1533 1302 1617 1465 1249 891 711 821 1005 1166
615 721 1158 1492 1492 1786 1359 1449 1482 1427 1615 1612 1463 1520 1896 1530 1222 1638 2044 1956 2097 2262 2138 2173 2289 2039 2078 1950 1961 1880 1685 1351 1642 1632 1010 1426 1384 1292 997 423 190 943 1212
561 586 888 1288 1397 2079 1368 1555 1845 2064 1911 1714 1574 1906 1546 1336 1767 1468 1444 1994 2085 2172 2108 2232 2272 2130 2103 1972 2058 1907 1449 1301 1514 1228 93 0 350 849 164 187 383 953 1249
161 222 365 1181 1332 1704 1475 1828 1808 1550 1608 1564 1784 1715 1839 1702 1834 1841 1621 1819 1880 1967 2094 2112 2153 1986 2115 2002 2069 1958 1483 1215 1038 1170 766 534 69 283 878 1147 883 1058 1062
71 274 670 1282 1285 1729 1491 1814 1492 1800 1632 1766 1846 1821 1634 1513 1456 1651 1685 1488 1862 1917 2038 2030 1957 1961 1953 2052 2060 1660 955 737 862 560 815 757 92 1064 1214 1075 482 946 1101
567 743 774 1471 1401 1731 1838 1578 1848 1668 1603 1621 1774 1641 1578 1544 1579 1590 1653 1589 1832 1951 1890 1798 1636 1782 2046 1937 1899 1711 1594 1161 589 518 854 543 103 1205 1335 607 1205 1261 835
696 838 1214 1448 1520 1734 1677 1548 1573 1671 1612 1694 1597 1563 1522 1531 1453 1396 1546 1638 1819 1777 1768 1760 1485 1659 2027 1832 1740 1755 1632 1586 1263 1202 943 484 374 454 553 1228 1246 1272 810
301 751 1022 1395 1602 1690 1469 1417 1548 1528 1581 1484 1364 1439 1269 1329 1514 1396 1440 1554 1605 1786 1766 1583 1592 1722 1948 1921 1861 1731 1637 1787 1293 1382 867 324 1090 966 725 1103 1231 935 768
646 488 888 1168 1298 1499 1403 1405 1472 1574 1541 1525 1392 1399 1293 1485 1139 1202 1554 1518 1331 1371 1287 1258 1294 1929 2060 2041 1605 1349 1229 1516 1427 1232 471 963 1344 1451 1320 662 1287 1196 967
521 362 676 582 423 908 1151 1389 1431 1518 1398 1475 1385 1347 1160 1234 1022 1482 1224 1221 1351 1350 1518 1677 1806 1841 1847 1483 902 1130 1335 1389 1265 501 656 1009 1067 728 815 1350 1141 538 836
395 252 71 254 801 1149 1101 1158 890 1295 1123 790 839 918 811 1167 959 957 1351 1403 1523 1500 1606 1841 1753 1567 1223 731 940 1200 1549 1020 570 839 935 1289 1572 1456 989 713 655 672 656
182 52 160 574 654 940 595 1143 576 618 930 677 746 821 924 890 693 840 1255 1515 1450 1365 993 1166 1600 1786 1399 1002 854 1117 873 455 674 696 1006 1456 1620 1291 1340 1161 1170 1325 843
73 72 597 534 930 791 469 241 240 232 160 229 574 733 278 498 587 480 1059 1089 1434 1350 1238 1129 1373 1700 1646 733 291 168 357 335 418 543 949 1292 1234 835 1125 876 721 762 897
74 86 341 371 948 558 272 200 289 324 275 457 673 590 492 363 510 684 1076 772 1017 1212 1026 984 1148 1343 994 777 500 353 390 272 304 283 1254 1698 1256 1053 1714 976 671 697 907
34 66 291 489 808 952 173 219 431 164 475 233 588 806 879 757 654 887 896 857 819 848 878 1040 1474 1199 1035 988 895 737 633 572 451 423 161 889 814 1000 852 940 729 759 694
9 54 260 537 995 898 555 583 261 420 154 416 571 1005 1120 638 995 786 780 819 844 1148 1359 1340 1470 1140 863 868 921 889 1061 919 1011 1051 847 428 359 675 857 660 680 593 840
3 84 156 474 653 719 481 434 543 241 386 580 938 1062 949 1146 1277 992 504 769 896 1328 1358 1262 1037 995 881 914 1043 915 742 949 839 875 1023 1319 690 491 551 690 592 479 488
3 58 125 176 453 358 340 418 572 314 529 612 790 999 1171 1015 1234 1540 718 706 708 941 1033 1081 1063 917 1087 980 816 784 596 573 719 736 523 945 1414 1270 808 733 701 661 629
3 54 105 180 343 252 409 487 626 779 664 686 722 936 1232 1175 1214 1098 617 959 1482 1019 828 700 868 651 549 843 624 671 740 630 896 467 576 719 440 711 1069 607 485 481 561
51 21 105 170 416 365 413 568 453 334 700 778 921 1188 1248 1109 1055 1141 1032 979 1806 661 718 973 994 624 712 673 372 520 641 358 250 369 513 572 613 723 542 741 1201 859 459
95 1 109 185 486 419 467 304 422 459 913 786 1100 1322 1239 1304 1088 1286 838 973 1690 836 983 878 789 767 521 443 778 372 193 277 235 132 280 322 384 635 520 663 899 876 927
130 4 1 173 600 511 495 563 349 463 666 797 1267 1150 1261 1185 1196 1111 1101 632 883 755 1138 936 911 775 283 487 947 638 260 189 133 228 190 178 433 394 417 650 598 986 1171
135 1 0 146 593 511 301 532 716 846 964 1139 1181 873 1127 1290 1199 1305 1563 1158 666 1177 571 1014 859 935 598 104 360 658 890 303 228 330 233 239 372 362 342 433 616 841 1256
100 0 0 174 544 576 381 418 808 540 512 329 782 992 1078 1386 1356 1350 1208 1358 1009 827 848 596 474 1331 519 119 128 306 1048 1148 1423 48 124 151 210 354 370 353 546 641 1121
63 2 176 436 683 603 624 980 860 889 479 576 940 1363 1430 1433 1366 1225 1452 1447 1499 1330 684 1211 1391 1076 231 308 215 334 502 454 693 1059 102 136 222 273 319 629 604 697 1237
64 45 255 758 913 969 927 1121 1133 1018 1011 942 600 1108 942 821 1076 1262 1390 1561 1544 1528 1107 1028 1255 1321 1243 823 715 335 663 695 1129 394 234 567 416 563 569 720 920 1049 1283

GFSSE_con_mlcape_078.txt.gz
CAPE
624 768 1054 1474 1544 1678 1767 1680 1502 1327 1236 1210 1237 1497 1364 1439 1833 1975 1927 2284 2225 2095 1994 2074 2217 1975 1925 1816 1904 1797 1561 1532 1178 1713 1559 1376 979 727 732 884 904 1039 1059
714 798 1211 1539 1698 1509 1363 1332 1392 1561 1511 1385 1564 1974 1263 1130 1675 2062 1930 2147 2171 2064 2122 2106 2118 2039 2004 1912 1671 1523 1659 1668 1539 1502 1581 1433 925 429 170 940 1253 1079 378
697 948 1277 1574 1794 1237 1371 1778 1957 1880 1711 1574 1847 1581 1437 1780 1272 1635 2002 1971 1993 2028 2195 2185 2185 2052 2030 2098 1774 1386 1447 992 1172 619 48 330 104 283 403 1000 1231 1171 678
581 764 696 1583 1827 1395 1913 1961 1708 1754 1585 1721 1630 1734 1780 1861 1792 1558 1854 1878 1939 2079 2139 2094 2156 2126 2043 1978 1350 1115 1040 833 787 695 281 17 750 1199 1202 1200 1187 1112 599
101 190 755 1337 1658 1223 1846 1405 1732 1524 1505 1560 1745 1609 1589 1586 1799 1518 1663 1814 1906 1999 2001 1816 2149 2031 1918 1836 1267 1080 1068 948 1291 700 217 140 1012 936 1020 1245 1078 982 920
294 291 955 1147 1765 1452 1740 1755 1683 1703 1743 1749 1699 1646 1482 1366 1649 1580 1755 1735 1852 1918 1747 1744 1890 2032 1828 1560 1349 1215 1072 903 961 638 170 367 1136 867 1063 1243 792 1178 882
262 362 1023 1554 1762 1751 1627 1578 1639 1647 1725 1713 1618 1606 1586 1531 1452 1794 1679 1812 1882 1825 1654 1700 1902 1878 1638 1421 1621 1517 1273 1262 1084 581 320 438 611 1071 1323 1284 1019 1110 928
342 291 806 1513 1671 1504 1348 1621 1638 1575 1518 1408 1516 1317 1404 1435 1387 1631 1589 1648 1833 1831 1798 1799 1962 1920 1521 1240 1401 1489 1610 1588 1076 512 1009 1051 997 690 1278 1107 706 984 569
614 874 1050 1037 1449 1469 1492 1541 1544 1663 1481 1410 1452 1274 1556 1173 1502 1570 1575 1565 1572 1536 1383 1513 1944 1831 1268 997 1246 1397 1754 1386 1043 847 1066 1249 1224 1050 1034 1258 1017 1272 764
460 521 616 735 794 793 1254 1441 1467 1379 1380 1419 1369 1322 1472 1245 1508 1005 1261 1473 1489 1469 1600 1751 1558 933 587 871 1098 1424 1886 1182 647 873 737 1032 651 1122 1492 537 672 557 1293
527 624 224 763 889 928 1021 1289 1403 1256 1139 1109 841 721 1037 1167 965 1081 1229 1616 1749 1729 1607 1556 1429 987 814 898 958 1144 1435 1406 1047 1165 1150 1509 1358 961 621 635 665 480 149
205 150 440 1027 966 894 267 871 767 842 952 1025 1066 249 657 1049 889 1206 1483 1513 1525 1535 1732 1853 1070 889 1157 935 964 1138 1448 868 1002 942 1152 1452 1310 1248 1215 1133 1454 1006 394
71 525 654 932 748 659 655 1124 719 782 581 753 734 982 654 507 636 1058 1132 1130 1152 1319 1277 1713 2070 1720 1523 1498 1103 868 268 504 455 488 1209 1413 1037 951 972 690 680 774 606
240 365 472 940 64 445 689 529 411 817 382 453 550 702 752 1082 1097 836 1522 1510 1541 979 54 1032 1815 1485 1004 668 313 538 457 627 764 843 983 636 574 1303 1424 644 588 721 601
191 416 728 529 874 782 322 662 296 237 492 449 674 817 732 357 1179 988 630 963 650 846 563 1151 1233 1513 940 947 944 665 502 716 378 609 756 592 325 597 728 769 636 587 685
24 365 821 606 407 493 360 84 112 173 360 439 703 1285 953 444 899 771 574 1260 1315 663 1583 870 1525 902 1176 743 752 971 918 909 1099 272 316 370 179 440 315 506 435 425 741
19 366 515 608 684 881 684 576 21 570 573 380 936 1056 789 947 1591 804 1013 755 995 1509 1574 1228 1628 1113 842 1013 1001 915 877 935 420 1085 700 497 389 582 468 348 276 224 294
0 135 194 453 235 857 358 610 677 622 542 633 970 1117 758 911 931 0 869 676 926 1177 1491 412 1164 661 1102 504 785 915 818 823 671 933 1160 1241 758 687 658 576 434 479 461
0 123 0 339 302 470 271 660 454 433 241 884 451 941 1232 1219 1424 1454 635 220 947 1416 1293 557 806 765 1228 1058 861 1007 610 642 702 606 459 723 1035 1186 1134 397 595 381 408
24 82 0 427 308 526 136 878 437 918 306 351 598 392 1298 1257 1194 1403 852 1269 1447 1432 768 847 1072 633 724 471 468 583 680 894 864 635 461 805 548 681 937 900 903 586 261
23 44 117 648 404 664 250 452 343 617 621 639 1032 1096 860 593 1253 1253 1526 990 1692 770 363 1231 1090 846 1047 754 767 767 513 101 132 433 610 632 524 947 727 667 1480 1337 467
93 43 171 596 644 622 326 687 462 808 820 650 863 1369 1384 1130 1161 1263 870 564 919 1214 1024 1170 1130 932 812 545 765 857 480 414 351 228 347 388 570 471 636 750 721 1070 1386
139 58 193 551 692 393 711 429 717 174 404 48 203 1078 1307 1256 1164 1390 1040 1376 324 1364 831 955 985 751 679 138 154 895 817 962 353 129 174 312 306 585 392 445 1023 1039 1280
82 139 233 500 712 302 768 403 319 667 593 846 1164 1213 1380 1127 1144 1260 1361 1623 1143 494 706 975 891 805 519 532 158 276 869 679 1396 332 373 220 672 333 529 634 668 1001 1124
119 17 218 210 1073 323 610 669 565 444 481 501 903 770 991 1281 989 1055 959 1306 1149 660 118 741 1079 1094 1300 1049 376 674 356 1443 1244 1523 205 278 398 365 386 675 969 884 1290
86 0 182 247 983 1048 409 802 702 667 336 129 654 31 1110 974 1188 1042 894 1459 1561 723 967 85 1071 1112 1167 1111 563 1052 1115 768 1157 1557 453 243 473 555 545 685 854 1287 1519

GFSSE_con_mlcape_081.txt.gz
CAPE
477 739 1176 1515 1628 1231 1489 1520 1219 1091 1075 1044 1123 1083 1135 1955 1788 2021 2086 2043 1857 2108 2214 2026 1909 1792 1781 1670 1451 941 1669 1771 1604 1240 1033 794 862 1096 1168 1112 505 705 1279
484 838 1440 1552 1475 1290 1296 1344 1476 1339 1203 1812 1545 987 1007 1754 1898 1734 1975 2020 2066 2123 2023 1995 1995 1736 1559 1599 1640 1616 1606 1652 1476 1501 877 475 284 956 1319 1139 540 1233 1236
540 1012 1309 1500 1208 1332 1705 1859 1787 1609 1504 1644 1527 1583 1659 1208 1682 1827 1943 1948 2007 2017 2184 2075 1953 1893 1687 1534 1326 1099 1156 1175 810 200 36 410 582 1083 1189 1224 633 1219 1176
755 1161 1384 1437 1393 1800 1695 1696 1717 1554 1624 1537 1727 1793 1806 1572 1591 1728 1857 1897 1794 1971 1973 2111 2035 1809 1599 1588 1194 644 586 540 669 58 605 761 810 1306 1250 1024 910 523 664
682 913 1626 1443 1448 1659 1332 1603 1360 1386 1519 1657 1470 1509 1620 1698 1435 1723 1788 1755 1992 1951 1756 2060 2008 1728 1642 1637 1300 902 1007 718 383 706 700 549 951 1238 1204 820 1103 572 974
199 706 1526 1533 1380 1395 1616 1508 1587 1580 1693 1465 1563 1403 1237 1635 1488 1714 1751 1918 1883 1739 1913 2044 1894 1593 1598 1673 1304 1076 1321 782 120 221 774 835 759 1329 963 1032 1225 347 793
45 744 1531 1577 1176 1584 1524 1467 1565 1616 1581 1410 1441 1505 1478 1502 1529 1704 1865 1777 1719 1779 1894 2076 1318 1539 1807 1361 1143 1284 1233 635 186 42 128 551 1068 1345 1257 882 1216 444 409
143 703 1200 1555 1551 1423 1534 1562 1577 1448 1312 1358 1323 1222 1334 1500 1615 1630 1613 1805 1816 1744 1894 1972 1343 1401 1524 1278 1347 1449 1434 724 469 423 600 587 970 1336 796 972 609 1035 557
340 699 1253 1286 1252 1362 1511 1410 1454 1395 1373 1394 1268 1458 1442 1435 1617 1639 1705 1752 1695 1935 2007 1818 1307 1131 1271 1472 1670 1610 1100 834 834 686 816 1063 728 1470 1122 1279 1336 716 530
526 544 733 1006 883 1135 1256 1333 1437 1456 1378 1322 1306 1178 1348 1441 1384 1474 1604 1693 1534 1546 1789 1892 1399 1001 1031 1295 1513 1553 1200 1066 616 209 1003 1035 1302 1626 497 782 598 1291 424
513 643 417 585 621 787 798 1117 1210 1222 466 728 844 780 807 866 1012 1137 1549 1689 1613 1653 1642 1417 1153 1068 1025 1089 1362 1408 1301 916 742 877 1075 936 1010 550 548 628 339 137 319
355 338 475 570 649 350 763 591 617 758 496 409 157 617 830 670 622 981 1541 1686 1747 1661 1298 764 521 637 1007 754 1040 1490 1221 994 729 907 1189 1260 1259 1128 1094 1435 989 396 253
183 450 379 375 518 329 259 607 576 691 661 424 63 370 570 880 888 910 1095 1484 1316 1259 1196 885 599 1098 1195 1187 1235 1172 1030 726 269 566 1172 1072 1065 1005 638 642 734 667 680
221 472 660 555 337 481 529 723 420 491 555 617 692 772 681 624 568 490 811 943 1254 771 620 902 1093 1725 1684 1573 1099 459 421 395 110 161 483 335 705 1232 625 449 603 774 463
148 481 224 0 147 389 453 585 473 555 271 376 550 802 543 563 258 557 651 847 1190 193 418 887 1084 1484 758 654 511 485 458 445 148 243 331 146 425 1190 544 571 547 455 696
230 264 145 160 460 234 84 92 172 312 191 352 828 485 667 753 569 0 373 837 607 735 685 867 1208 935 645 379 558 606 393 385 345 239 305 370 241 219 430 552 332 443 697
256 217 177 289 502 89 0 21 79 258 379 447 560 30 504 826 810 783 674 894 635 838 525 756 980 1188 520 786 572 609 479 648 275 365 365 144 238 389 402 370 240 54 76
326 184 101 304 407 326 260 0 455 219 449 757 814 101 310 757 155 233 718 531 992 1272 295 628 731 641 606 586 708 711 479 582 500 572 566 353 311 302 320 404 313 182 161
162 130 145 0 18 70 229 574 254 413 467 368 473 604 766 1023 702 817 1257 556 1283 976 996 499 761 913 922 773 729 773 665 558 460 779 876 802 614 676 329 395 474 276 348
3 0 249 5 225 0 137 279 376 202 175 521 353 111 891 1266 1230 979 698 865 1059 946 712 604 775 688 409 572 471 429 533 545 497 542 418 764 857 891 837 516 819 433 301
29 12 270 198 202 0 7 459 293 319 38 322 446 157 759 482 1142 1022 853 969 853 677 566 562 1077 606 797 364 493 549 612 501 586 479 417 575 564 819 924 683 822 865 549
27 6 68 92 191 33 0 454 370 346 496 499 652 597 840 423 1190 1089 800 707 260 675 1104 1022 960 815 730 428 419 729 317 86 73 159 482 544 398 721 705 728 1061 1092 1057
2 6 69 141 266 152 0 323 392 446 243 91 247 548 1006 866 903 1127 499 1007 615 1031 917 923 635 450 628 4 41 705 509 487 176 23 214 242 177 455 588 672 680 810 954
0 37 59 320 164 129 610 519 287 253 346 108 48 577 1034 1026 864 1227 1251 1004 583 686 549 1063 1354 883 907 587 232 575 519 703 625 87 168 77 270 468 215 274 777 730 950
0 68 36 368 306 0 283 642 440 157 375 413 613 845 974 905 1022 1118 959 1151 616 226 418 587 1006 823 978 987 515 1045 484 1343 1269 1275 84 35 204 280 202 447 572 698 902
24 72 91 308 309 107 104 530 588 225 13 21 413 361 739 937 808 771 793 1027 818 366 411 406 934 935 526 847 1120 656 1362 543 837 1237 413 116 215 255 261 501 642 690 935

GFSSE_con_mlcape_084.txt.gz
CAPE
320 859 1454 1718 1840 1886 1743 1312 1187 1172 1273 1319 1102 1835 1919 2035 2095 2085 1909 2090 2202 1998 1955 1880 1773 1480 654 669 1317 1637 1641 1364 1258 1121 1081 1267 1380 1206 412 744 1204 1194 934
385 1052 1376 1705 1718 1331 1244 1464 1348 1650 2001 1053 1061 1574 1792 1805 1942 1984 2020 2166 2078 2031 2025 1667 1639 1735 1659 1421 1548 1500 1632 1539 1395 859 733 1002 1232 1127 615 1339 1270 1179 416
478 1143 1320 1401 1226 1475 1840 1816 1592 1859 1619 1636 1799 1199 1648 1616 1843 2035 2023 2093 2121 2166 2066 1820 1753 1717 1516 1301 1439 1165 1182 673 311 250 603 849 1025 1052 591 1170 1309 1113 1232
763 1235 1166 1016 1558 1908 1809 1855 1690 1689 1699 1870 1964 1752 1464 1860 1814 1998 1978 2012 2042 2214 2160 1900 1766 1713 1272 1101 959 913 1011 769 909 895 665 934 1045 1238 1307 606 640 1169 1247
896 1196 973 1574 1741 1630 1766 1549 1530 1643 1656 1537 1602 1821 1637 1672 1852 1912 1841 2037 2035 2058 2306 1989 1857 1728 1495 1258 1107 1028 1041 858 1078 516 727 922 1107 1052 1123 552 977 841 1145
855 1292 1273 1605 1484 1663 1450 1453 1625 1697 1640 1637 1459 1629 1477 1800 1857 1892 2058 2019 2039 2135 2136 1805 1832 1642 1566 1408 1274 1112 1160 1249 840 669 567 1176 983 946 1337 572 448 745 458
851 1223 1247 1549 1615 1634 1482 1521 1579 1551 1466 1545 1601 1560 1625 1654 1859 1947 1874 1811 1921 2138 2078 1691 1674 1335 1221 1562 1505 1035 684 330 271 140 744 994 1233 907 1364 634 388 298 306
604 1300 1285 1292 1446 1489 1441 1649 1440 1399 1513 1435 1312 1539 1647 1743 1884 1881 1875 1873 1964 2172 2031 1604 1520 1306 945 1367 1691 1226 1019 285 92 371 734 1171 1188 758 994 657 1024 419 457
698 906 1296 1292 1347 1480 1477 1411 1301 1479 1306 1307 1309 1303 1518 1601 1685 1784 1975 2030 1987 2155 1902 1605 1436 1501 1612 1813 1817 1349 1099 758 442 438 391 706 1563 1009 1301 933 575 435 498
483 605 817 896 1051 1234 1323 1447 1439 1376 1251 1234 1086 1453 1498 1524 1603 1817 1850 1850 2009 2039 1876 1690 1448 1633 1664 1748 1582 1443 1576 803 483 836 971 955 1491 563 934 727 827 418 451
243 444 619 616 767 840 1081 1166 1351 1244 1163 1031 1113 1407 1203 1056 1318 1405 1746 1689 1679 1805 1802 1482 1301 1336 1395 1508 1532 1597 963 334 364 248 497 1319 503 416 563 286 113 332 442
90 178 240 267 416 516 862 654 652 565 554 455 640 693 636 705 932 1482 1784 1743 1649 1382 979 838 733 908 951 939 1266 1557 931 601 599 863 751 739 725 953 1101 712 249 148 211
209 267 322 243 139 104 428 381 462 368 302 51 414 601 470 527 945 1126 1008 1368 1297 1179 855 899 754 944 986 882 717 912 1027 598 406 966 984 731 1586 627 1200 1136 1048 599 700
226 268 369 246 94 101 147 347 507 467 436 18 208 406 514 489 494 606 678 927 1059 792 607 632 845 1312 1345 1508 1277 992 776 139 120 692 922 395 772 595 533 464 609 496 421
253 252 282 249 159 183 243 339 459 502 504 533 686 614 465 244 249 482 746 877 1093 67 388 845 974 1051 645 514 454 626 401 31 56 96 193 228 903 1262 549 449 438 427 626
300 314 186 257 181 528 507 321 253 319 269 400 544 537 300 253 324 424 498 745 890 506 224 670 1073 848 368 358 294 302 250 89 51 58 31 174 468 761 554 581 516 561 822
237 254 60 296 289 130 197 257 251 182 316 589 396 402 521 581 285 173 526 637 456 585 840 727 946 738 540 503 328 300 274 256 199 239 223 127 262 316 230 505 442 295 203
165 89 373 192 63 6 11 176 235 241 384 481 70 220 429 753 520 583 662 695 856 1126 580 669 694 652 525 410 457 517 408 315 290 329 307 128 189 134 255 273 284 281 186
87 103 280 286 102 33 3 342 171 374 465 641 517 354 271 623 67 377 776 586 1021 1117 307 506 615 718 795 587 561 611 477 398 233 376 469 300 316 362 62 270 399 322 370
147 115 187 196 97 293 296 242 257 265 374 368 399 479 683 1100 1107 816 653 776 1171 869 849 581 670 740 431 477 484 357 511 482 322 400 482 644 539 619 496 340 578 643 409
125 83 44 15 16 96 350 257 226 158 169 455 351 66 354 594 1051 465 534 628 636 668 742 567 474 513 596 329 309 348 542 370 399 398 373 640 660 660 761 755 588 839 781
112 164 103 27 0 0 204 435 362 281 142 343 486 383 405 406 862 997 726 569 543 612 608 964 832 683 586 406 414 418 175 61 24 168 370 354 480 721 804 888 792 723 912
22 174 178 162 31 0 10 402 448 373 215 354 395 566 696 660 842 746 312 702 383 878 843 799 394 459 336 121 148 500 439 196 119 36 297 351 464 403 592 725 702 892 918
40 159 244 206 104 42 87 197 429 333 250 211 267 525 877 947 885 658 759 679 522 432 505 851 1213 836 496 475 280 563 597 722 253 7 135 249 43 397 356 489 512 586 724
79 123 163 184 137 160 383 249 328 360 401 329 247 278 909 951 899 1075 603 575 431 245 488 630 923 722 928 606 767 1001 1078 1349 953 940 76 69 121 281 301 181 194 478 633
80 115 180 205 208 173 406 561 546 291 250 399 332 409 760 915 850 889 902 781 670 376 513 355 749 758 658 694 755 1035 837 728 958 1114 712 20 71 106 149 107 252 493 552

GFSSE_con_mlcape_087.txt.gz
CAPE
283 1069 1376 1573 1609 1713 1533 1289 1364 1463 1384 1533 2012 1735 2115 2072 2014 2028 2008 2028 1953 1912 1855 1327 586 630 759 916 1165 1348 1226 1160 1221 1309 1315 1367 514 809 1296 1222 1055 641 1173
516 1263 1358 1529 1693 1242 1208 1263 1360 1915 1165 1272 2039 1891 1954 1959 2019 1992 1987 2023 1800 1769 1763 1558 1191 921 1703 1647 1533 1608 1556 1372 1168 1056 1092 1334 708 1342 1307 1232 566 633 1287
823 1320 1541 1472 1140 1525 1712 1564 1672 1387 1336 1248 1735 1804 1870 1971 2053 1963 1986 1750 1696 1707 1671 1755 1514 1496 1620 1313 1300 1567 1287 851 703 767 1110 849 570 1005 1294 1225 1287 763 993
902 1183 1266 1090 1802 1768 1572 1449 1553 1514 1679 1753 1372 1716 1789 1973 2111 2009 1982 2056 2014 1880 1897 1733 1335 1182 1303 1280 1121 838 557 895 977 1106 904 1001 1244 933 602 1072 1284 1303 1126
938 1032 776 1610 1769 1531 1597 1498 1612 1691 1633 1640 1680 1647 1753 1904 1931 2044 2171 2251 2258 2027 1860 1785 1433 1257 1266 1070 995 1132 961 1268 1047 880 883 1059 837 895 782 1126 929 1205 1353
999 586 1642 1685 1711 1627 1523 1571 1639 1466 1520 1499 1537 1495 1732 1832 1957 2135 2104 2093 2133 1929 1921 1913 1720 1723 1721 1493 1474 1308 1536 1276 940 886 992 859 1148 1120 407 752 432 634 730
880 934 1525 1490 1708 1649 1577 1586 1576 1524 1487 1494 1448 1625 1825 1945 1994 2093 1958 2171 2164 2025 1955 1898 1680 1629 1452 1473 1505 1648 1387 1003 447 798 994 1083 896 1240 408 361 345 382 747
916 1001 1411 1531 1658 1523 1619 1701 1521 1624 1641 1595 1644 1629 1773 1927 1961 1913 2041 2202 2181 1853 1784 1843 1365 1520 1579 1479 1455 875 796 474 577 747 1106 678 1093 705 1058 523 425 352 338
1171 902 1158 1407 1504 1621 1718 1342 1474 1482 1283 1358 1471 1618 1692 1879 1877 2050 1985 1602 2198 1826 1697 1597 1574 1483 1803 1705 1826 1366 665 586 262 638 736 1158 1219 1118 898 682 507 537 537
945 974 946 1202 1359 1214 1268 1463 1472 1291 1420 1373 1432 1641 1875 1763 1987 1964 1696 1953 2283 1963 1786 1382 1468 1364 1363 1426 1488 1668 1277 859 616 303 925 1111 791 1383 1014 760 511 497 489
674 763 745 960 1076 1019 1268 1367 1305 1256 1145 1247 1543 1768 1367 1392 1327 1671 1858 1861 1897 1852 1773 1747 1664 1663 1737 1609 1825 1882 698 386 607 440 1216 1009 366 548 361 269 336 483 481
121 371 583 638 765 871 1162 928 909 1154 699 994 1130 732 884 1004 1466 1781 1817 1774 1735 1736 1469 1323 1212 1393 1196 1244 1711 1253 455 284 237 324 701 346 668 912 600 205 140 176 182
0 206 427 430 506 547 677 572 483 377 364 497 635 606 527 862 1366 1422 1477 1280 1235 1240 1043 961 1004 906 828 818 943 1204 829 471 395 731 787 1210 813 1242 1524 1112 610 502 507
83 121 224 313 174 303 419 468 425 312 142 289 447 462 517 597 681 835 863 922 982 733 600 642 757 969 1298 1207 894 916 808 394 86 531 635 927 1185 517 518 521 561 355 400
166 217 151 191 82 51 194 388 456 508 317 374 338 418 476 314 321 501 811 818 924 280 375 777 964 732 499 616 1143 874 630 69 0 193 324 510 757 862 581 508 532 598 630
185 200 160 152 162 124 296 366 421 476 480 452 670 572 351 116 287 560 598 727 874 709 317 530 888 684 358 259 548 535 402 27 18 21 22 186 511 1098 883 677 617 614 781
205 242 206 181 243 278 367 302 284 350 337 521 384 463 353 449 323 233 478 720 541 558 846 743 921 479 352 287 278 286 201 91 51 93 39 74 236 512 454 476 560 446 442
231 209 227 334 218 195 263 374 256 212 460 463 249 454 556 629 542 430 621 649 827 969 568 572 507 527 411 343 370 318 240 238 189 188 239 204 131 123 248 426 363 383 413
206 202 261 254 128 62 142 215 197 268 411 436 52 465 424 694 437 632 679 725 817 1043 261 482 556 638 622 481 497 496 399 344 191 208 255 319 164 260 121 169 458 447 478
196 113 296 65 0 52 209 180 239 336 414 431 402 533 413 742 165 625 739 579 1105 824 764 463 581 580 437 420 461 392 236 442 371 172 318 356 416 396 475 433 304 606 775
169 196 174 0 47 40 220 223 172 182 249 342 366 373 513 632 767 638 533 822 715 723 650 527 531 507 564 315 302 387 224 430 368 381 311 409 548 624 596 736 703 691 727
107 143 175 109 158 162 100 159 170 116 162 337 396 298 273 555 542 664 413 491 477 581 591 628 903 613 504 386 304 429 138 42 68 88 209 401 387 591 709 765 820 790 675
131 101 140 91 30 167 204 256 236 248 124 120 380 534 459 580 533 854 662 617 513 673 544 695 450 367 327 262 175 218 473 199 102 20 162 238 341 374 424 527 674 688 758
126 100 72 38 0 45 211 330 213 238 307 197 293 376 539 836 826 695 449 785 452 468 667 800 1213 850 457 518 371 499 471 687 258 20 78 205 201 194 330 365 456 488 504
116 163 79 22 0 21 88 210 231 293 234 235 249 189 588 858 776 737 526 509 449 335 452 558 713 751 772 661 831 822 957 921 888 724 132 97 25 121 223 220 221 222 205
78 190 191 110 58 83 114 110 135 232 368 331 267 137 480 832 767 650 711 251 437 342 297 415 914 606 596 873 554 947 848 935 1013 1003 641 131 45 88 123 124 117 150 303

GFSSE_con_mlcape_090.txt.gz
CAPE
258 754 1536 1712 1355 1753 1584 1542 1709 1592 1655 1771 1801 1851 1988 2040 1818 1647 1796 1844 1737 1246 743 958 997 1017 762 949 1026 1206 1076 1391 1516 1368 717 657 1407 1273 1255 654 1169 1170 1221
564 1132 1062 1626 1605 1155 1107 1074 1487 1262 1446 1822 1852 1824 2007 1964 1785 1560 1605 1901 2048 1651 772 819 1209 1796 1717 1590 1451 1376 1531 1331 1215 1589 952 1105 1243 1324 936 639 1271 1288 1306
913 1162 1131 1339 971 1352 1246 1865 1502 1141 1309 1763 1849 1994 1767 1890 1956 2044 1849 1845 1726 1800 1726 1293 1524 1460 1527 1755 1628 1382 1027 740 1251 1198 852 597 1075 1170 1277 1264 962 1398 1335
1033 1179 993 1084 1710 1587 1651 1597 1667 1737 1686 1654 1722 1837 1952 2065 2132 2057 1924 1750 1620 1582 1473 1402 1571 1408 1317 974 624 597 760 966 1415 1088 1007 1200 560 938 1360 1433 1372 1227 1310
967 791 855 1711 1678 1646 1432 1582 1791 1777 1710 1581 1715 1865 1914 2010 2100 1965 1660 1582 1501 1594 1731 1516 1439 1347 1378 1410 1347 1182 1278 1290 1291 957 854 890 589 1205 1065 1199 1328 1241 1416
671 533 1700 1812 1679 1622 1529 1615 1504 1692 1608 1553 1666 1627 1939 2024 2133 1939 1908 1961 1969 1884 1619 1728 1701 1685 1562 1464 1261 1382 1356 1339 958 861 887 1190 619 676 697 657 836 850 892
293 1446 1507 1609 1506 1416 1342 1489 1289 1520 1594 1651 1626 1818 1948 1927 1951 1825 1861 1949 1937 2049 1953 1755 1733 1755 1773 2010 1848 1726 1473 1014 732 899 788 1029 885 525 463 437 539 952 781
319 1236 1136 1196 1262 1415 1558 1365 1352 1489 1550 1401 1552 1756 1821 1868 1990 2054 2129 2168 1992 1950 1920 1664 1824 1661 1689 1543 1412 1401 964 902 817 909 452 1067 594 1223 469 563 479 523 688
698 1113 1187 1345 1329 1521 1370 982 1310 1373 1468 1395 1614 1885 1818 2043 1867 1856 2190 2172 1776 1878 1793 1658 1595 1519 1613 1899 1308 638 679 849 734 748 870 1158 998 1115 806 583 606 604 637
604 938 1108 1265 1235 1132 1177 1472 1281 1428 1300 1435 1620 1680 1933 1972 1862 1717 1880 2144 1887 1879 1829 1488 1412 1567 1487 1814 1658 1211 913 408 173 807 1114 553 1624 1220 1151 585 624 597 588
648 676 950 1101 917 995 1244 1252 1115 1129 1290 1501 1296 1578 1398 1298 1345 1541 2130 2082 1889 1804 1271 1306 1517 1373 1254 1681 2064 1503 580 545 389 657 1314 468 572 509 421 403 563 539 386
355 606 637 811 616 952 1168 999 1053 880 934 1063 737 927 981 1321 1741 1884 1850 1835 1830 1731 1409 1229 1484 1624 1145 1262 1766 1054 260 206 54 624 677 459 703 805 452 262 232 245 200
144 399 431 449 499 754 758 682 599 280 548 612 578 540 799 1244 1418 1421 1300 1276 1012 1051 844 863 900 889 850 827 1225 991 624 407 294 408 569 959 927 1465 1439 1101 566 569 640
39 179 243 237 317 490 528 330 269 263 301 447 489 445 517 803 896 834 924 976 845 482 551 570 743 910 987 935 716 616 712 477 89 450 471 1020 1436 646 674 589 620 514 553
1 33 50 92 140 239 371 336 279 228 181 237 317 444 432 433 417 586 753 849 903 188 456 674 854 726 317 590 1224 806 669 310 0 233 418 530 803 1005 711 624 621 638 729
32 59 72 23 51 87 184 293 389 435 442 485 483 431 310 309 369 588 563 766 830 598 333 630 902 399 279 304 804 789 491 171 9 37 108 76 533 870 1364 870 781 685 685
66 81 38 66 119 50 187 283 326 369 382 478 540 487 330 300 298 266 496 669 472 564 715 690 574 404 317 245 292 340 373 222 92 101 109 78 109 325 624 659 677 606 553
118 114 88 143 162 135 198 215 234 254 360 387 277 408 463 590 543 440 603 685 815 877 487 492 498 473 327 309 327 321 299 329 304 281 319 347 258 185 155 384 620 552 576
176 150 125 176 206 243 191 317 251 191 391 319 216 471 533 671 481 618 631 612 825 814 327 540 522 599 564 413 465 513 447 412 433 316 328 349 381 319 383 304 303 561 778
183 183 186 179 157 46 141 164 164 196 343 361 116 436 365 621 186 578 676 528 958 842 716 564 478 551 415 321 375 401 310 280 496 376 334 431 452 490 490 565 669 641 694
189 211 181 164 96 56 95 139 167 191 230 331 345 333 558 668 665 679 545 612 625 673 558 535 659 473 572 468 441 505 221 355 416 433 437 444 553 611 721 696 732 803 794
154 178 172 105 10 78 132 108 134 143 180 319 328 293 321 483 606 497 382 488 471 510 536 603 676 550 459 269 174 282 229 79 59 89 93 285 477 516 608 706 784 826 859
124 106 184 0 0 27 146 159 151 131 106 203 318 376 308 524 421 672 565 361 416 508 466 579 413 528 322 381 164 208 547 327 89 32 185 268 358 411 444 396 464 587 647
107 103 147 20 58 0 106 141 150 153 193 97 189 341 434 641 510 564 568 363 468 526 568 681 1030 762 479 671 522 488 428 761 599 94 90 173 220 268 256 365 428 419 444
114 75 79 106 19 54 145 192 178 145 170 197 203 229 384 703 715 660 378 611 292 339 296 525 769 739 730 579 851 824 743 620 731 793 376 135 118 122 165 278 315 285 229
85 68 57 97 39 0 91 138 168 162 231 201 241 180 217 711 610 569 523 327 285 250 268 331 814 495 460 752 432 818 833 932 1105 962 831 496 106 120 158 231 220 264 357

GFSSE_con_mlcape_093.txt.gz
CAPE
640 1130 1438 1499 1537 1787 1740 1827 1631 1554 1754 1606 1644 2141 2168 1893 1916 1806 1759 1571 1001 1336 1361 1193 785 885 927 1050 1106 1374 1454 1378 1026 669 1629 1538 1401 808 1337 1333 1102 1044 1193
740 1245 1582 1375 1455 1094 1111 1241 1190 1508 1757 1916 1946 2014 2074 1795 1714 1562 1521 1472 1001 985 956 1117 1545 1629 1579 1526 1573 1488 1337 1521 1392 1067 1526 1495 1325 1046 1189 1533 1362 1307 1318
881 1106 1351 1200 1149 1242 1797 1637 1121 1476 1950 1937 1935 1960 2042 1933 1861 1554 1421 1838 1851 1272 1489 1637 1711 1643 1590 1527 1147 838 1052 1414 1275 929 760 1177 1207 1429 1040 1501 1480 1433 1359
930 1127 705 1483 1766 1805 1775 1774 1708 1465 1765 1671 1893 2001 1989 1927 1901 1891 1689 1881 1783 1679 1785 1566 1301 1157 893 468 712 883 1343 1416 1339 1402 808 205 868 1320 1469 1309 1415 1450 1460
1114 587 1345 1788 1712 1685 1272 1316 1563 1686 1476 1607 1559 1764 1960 1991 1757 1861 1709 1703 1900 1762 1640 1550 1603 1684 1605 1442 1323 1289 1433 1344 1333 689 747 374 745 1056 1304 1156 1364 1378 1355
526 568 1606 1682 1748 1801 1763 1666 1667 1732 1632 1795 1850 1866 1831 1802 1978 1816 2002 2007 2002 1712 1601 1337 1321 1592 1604 1304 1511 1348 1368 1300 781 1195 1338 500 523 677 844 788 872 1107 1438
258 1502 1507 1708 1597 1531 1603 1595 1477 1398 1523 1483 1760 1921 1985 1990 1957 1953 1983 1980 2017 1977 1823 1756 1793 1891 1900 1848 1837 1463 1280 1093 969 668 1404 478 449 578 549 655 758 895 1239
894 844 1083 1352 1288 1641 1414 1398 1531 1537 1623 1710 1688 1848 1946 1807 1613 1663 1829 2033 2114 1891 1780 1832 1841 1811 1663 1611 1486 1239 1035 1023 913 511 935 502 1239 504 600 573 623 966 1316
692 1040 1037 873 1508 1108 1151 1201 1499 1507 1657 1708 1819 1885 1600 1433 1465 1805 1829 1967 2017 1847 1666 1639 1675 1700 1860 1259 800 776 943 1003 893 1123 877 1214 832 729 599 487 641 573 676
691 863 1179 1244 1218 990 1047 1375 1251 1347 1545 1682 1784 1884 1784 1804 1748 1876 1861 1883 1898 1816 1659 1749 1516 1481 1865 1637 1014 940 552 229 618 1100 321 1400 1080 1484 617 636 602 644 651
548 767 976 792 932 1199 1100 1112 1200 1245 1454 1705 1702 1636 1639 1644 1687 1901 1974 1945 1854 1582 1543 1501 1527 1498 1807 2053 1702 1192 455 311 258 847 363 353 605 342 298 486 463 387 310
383 731 904 697 860 1041 988 968 1346 1363 1406 1297 1434 1586 1709 1762 1885 1648 1834 1896 1512 1334 1510 1527 1489 1431 1372 1698 1696 771 606 276 151 485 164 620 983 885 546 386 329 336 253
442 479 703 627 1045 841 1133 904 739 909 904 999 1063 1374 1704 1642 1555 1439 1572 1208 1202 1003 1127 1141 1202 1232 1341 1269 1647 1359 1097 463 308 240 468 907 799 1186 1333 1118 706 553 647
292 424 440 447 822 936 835 595 548 634 740 752 843 1101 1389 1250 1348 1400 1399 1385 1059 994 1156 1362 1556 1487 1465 1609 1376 1132 1247 493 162 342 334 821 1287 764 680 590 648 851 882
122 275 210 302 486 687 691 647 565 569 652 682 864 951 1090 973 1056 1312 1301 1497 1105 886 1192 1375 1644 1161 867 920 1732 1494 1226 650 214 301 408 286 728 915 1090 842 778 784 834
46 93 126 188 420 539 567 692 825 758 828 742 820 831 798 837 1028 1155 1219 1382 1342 1127 1098 1451 1259 1097 869 1223 1514 1406 1121 617 428 504 453 363 129 557 847 1024 908 777 633
36 89 67 148 296 359 539 727 803 906 872 1050 983 852 547 890 651 910 1230 1082 1078 1302 1232 1442 1201 1157 943 818 894 995 995 828 664 741 837 779 646 230 303 668 679 641 687
98 129 174 77 231 256 511 707 723 754 995 829 975 889 937 1013 977 1009 1183 1310 1563 1186 1150 1240 1082 1159 959 983 1042 1012 976 947 1039 1018 1046 1154 1167 916 669 265 498 668 734
206 197 179 347 370 405 553 674 699 691 940 758 900 973 1151 1151 998 1176 1200 1167 1619 886 1025 1225 1137 1295 1209 1123 1059 1126 1166 1054 1190 877 1086 1133 1219 1165 1192 971 707 636 767
274 282 273 362 497 545 501 677 694 666 929 730 783 1011 851 1023 824 1306 1292 1146 1721 1501 1265 1220 1144 1155 1151 1060 807 911 1007 946 1197 1270 1086 1115 1301 1332 1371 1408 1609 1508 890
372 320 287 342 409 335 420 583 574 463 754 841 621 928 1023 1244 803 1298 1225 1276 1317 1450 1155 1478 1239 1276 1247 1007 1032 1017 825 776 1104 1122 1246 1235 1308 1336 1503 1674 1756 1656 1674
365 366 386 386 398 351 476 557 658 610 660 868 884 806 968 1070 1203 1145 1019 1129 1090 1159 1206 1384 1207 1089 938 792 763 974 770 587 748 592 687 867 1133 1284 1257 1364 1523 1668 1766
320 339 363 342 349 291 391 443 433 444 503 698 766 737 691 1007 986 1220 1010 983 993 1100 1175 1259 1161 1169 1008 1151 988 977 1132 709 725 416 666 958 1042 1185 1221 1141 1215 1364 1420
230 358 386 343 245 187 386 450 252 324 256 513 752 931 927 973 931 1181 1296 1030 1171 1317 1133 1413 1617 1307 1380 1414 1559 1318 1302 1583 1399 661 667 649 625 868 895 1056 1074 1131 1101
254 260 354 291 204 133 235 445 410 206 647 594 525 774 923 1101 1137 1203 1113 1094 979 974 1138 1316 1464 1568 1446 1529 1646 1705 1592 1462 1672 1668 748 680 675 676 811 876 926 1013 1131
239 246 275 324 207 305 244 356 413 344 164 497 562 596 753 1224 1320 1241 1066 1103 937 865 949 1100 1368 1192 1310 1299 1404 1552 1623 1718 1906 1826 1722 1533 696 683 897 1105 1101 1096 1430

GFSSE_con_mlcape_096.txt.gz
CAPE
645 801 1014 1173 823 1072 1223 1661 1626 1794 1609 1861 2115 2069 1959 1960 1792 1819 1234 1541 1753 1419 1106 1021 1013 1120 1199 1458 1532 1455 1247 761 1587 1582 1520 969 1252 1379 1333 1125 759 974 1319
624 765 1435 1179 1425 1127 943 1085 1486 1820 1899 2074 2124 2035 1867 1877 1703 1765 1319 1044 1089 1086 1215 1545 1538 1544 1486 1519 1468 1628 1414 976 1463 1415 1311 1455 1046 1482 1492 1225 1195 1264 1373
474 749 1118 1209 1102 1406 1382 1051 1468 1954 2127 2013 2005 2067 2018 1859 1512 1777 1824 1169 1618 1646 1629 1666 1656 1609 1262 679 729 1538 1510 1232 925 446 966 967 1175 1378 1542 1513 1452 1441 1373
767 1068 350 1259 1529 1787 1738 1463 1436 1727 1597 1854 2004 2105 1964 1949 1869 1889 1888 1685 1623 1709 1410 1204 1098 563 910 1048 1055 1446 1470 1433 1380 672 195 611 1008 1434 1422 1484 1345 1275 1289
822 307 1051 1416 1644 1630 1554 1720 1692 1578 1540 1859 1916 2018 2060 1802 2028 2083 1859 1699 1710 1574 1337 1341 1764 1674 1490 1302 1317 1449 1434 1044 621 164 349 705 947 1079 1146 1034 1388 1422 1389
428 830 1323 1288 1223 1329 1771 1735 1682 1682 1771 1940 1998 1967 1893 1991 2024 1886 1993 1746 1695 1599 1542 1629 1751 1767 1395 1660 1331 1347 1337 774 901 835 100 150 360 767 856 872 1525 1523 1476
375 778 1228 1580 1514 1716 1699 1618 1516 1604 1673 1881 1934 1979 1987 1917 1782 2013 2083 1810 1790 1913 1897 1964 2024 1973 2056 1728 1430 1311 1131 887 685 522 195 184 408 660 648 647 1371 1428 1329
406 641 958 1401 1592 1500 1467 1640 1644 1790 1709 1826 1868 1721 1438 1406 1816 1939 2052 2099 1819 1915 1905 1937 1913 1788 1523 1306 1267 1059 1157 838 412 382 746 1119 615 599 433 649 934 1272 1378
274 707 787 923 1027 1384 1336 1554 1637 1717 1847 1946 1498 1639 1685 1783 1907 2049 2154 2007 1872 1743 1795 1785 1848 1932 1177 858 773 1096 953 785 490 619 1067 477 722 587 489 496 632 716 717
481 795 649 809 946 835 944 1434 1486 1694 1751 1737 2017 1739 1851 1687 1735 1817 1748 2000 1848 1780 1936 1637 1734 1907 1656 1092 954 594 109 219 293 117 238 525 1360 612 571 577 573 514 496
420 527 309 362 829 1047 1012 1112 1368 1674 1811 1502 1621 1547 1498 1522 1534 1390 1618 1915 1710 1738 1777 1839 1793 1823 2027 1765 1336 491 569 30 141 80 0 634 490 324 376 386 377 331 314
293 312 90 353 414 562 214 1052 978 1106 1322 1228 1504 1692 1647 1713 1566 1219 1637 1685 1575 1588 1540 1703 1610 1283 1659 1502 1130 552 0 39 12 5 24 989 1450 1054 701 502 554 633 589
251 116 76 424 785 495 336 363 747 860 854 1302 1630 1580 1362 1015 917 838 1040 1180 1224 1443 1356 1506 1472 1437 1600 1412 1330 1087 705 163 106 80 308 857 632 989 817 910 638 666 797
217 43 108 408 782 735 504 312 403 555 746 749 927 1033 1034 860 941 1040 1063 1283 1286 1302 1617 1698 1541 1830 1804 1922 1466 1362 904 315 210 127 74 700 846 734 754 667 740 843 950
73 0 101 411 940 969 645 484 563 647 479 341 824 1122 997 1111 1366 1334 1678 1379 1256 1246 1548 1686 1410 1427 1311 1408 1438 1339 1063 606 278 59 0 56 414 767 1021 1002 940 865 863
0 0 146 459 856 861 802 860 704 469 503 605 871 1313 1359 1167 1422 1371 1552 1510 1251 1172 1366 1470 1479 1133 963 967 1192 1157 887 474 690 370 80 40 6 178 454 785 765 793 760
0 0 255 430 672 776 945 972 759 605 648 751 965 1297 1297 1317 1732 1496 1407 1292 1314 1625 1855 1490 1258 1065 673 632 899 1071 841 896 892 1115 743 612 620 185 168 400 617 633 678
0 0 167 131 440 667 840 961 921 1003 908 855 869 1024 1425 1690 1808 1559 1200 1248 1646 1484 1365 1153 997 765 795 743 1070 979 854 839 1123 1147 1021 1280 1411 1301 881 487 527 738 908
70 102 159 239 372 626 964 795 947 1189 1147 1079 1129 1068 1651 1655 1799 1370 1308 1663 1848 1265 1265 1044 1087 1188 1011 939 793 818 841 868 987 820 1155 1449 1366 1605 1664 1102 927 923 911
171 381 370 539 695 792 870 1103 828 908 1122 986 1148 1203 1526 1471 1847 1505 1421 1711 1750 1394 1219 1227 1571 1305 1258 1134 645 644 693 872 1043 1086 1001 1257 1437 1664 1521 2001 2091 1760 1265
148 336 555 666 979 967 920 688 705 765 961 777 1042 1497 1498 1549 1437 1802 1276 1639 1674 1580 1808 1897 1305 1526 754 827 776 571 486 799 994 1011 989 1174 1276 1262 1503 1867 2216 2280 2170
404 274 453 738 1207 984 923 740 734 744 871 950 1050 1375 1429 1415 1582 1639 1466 1350 1586 1388 1863 2080 2039 1042 789 1316 791 831 484 376 523 632 794 836 1258 1070 1314 1754 2021 2162 2229
474 645 634 772 1046 1038 800 840 737 1054 1049 1082 1212 1224 1186 1348 1398 1652 1578 1403 1533 1771 1340 1765 1760 1796 736 1326 1896 1295 732 581 457 387 751 822 1240 1109 1351 1606 1666 1808 2040
408 713 779 905 1087 1080 1061 689 546 534 538 662 985 1064 1179 1305 1109 1229 1688 1529 1785 1331 1526 1826 1696 1667 1950 1140 1327 1791 2235 2234 945 502 416 547 1000 1028 1290 1225 1337 1664 2051
373 617 779 949 1093 705 1018 735 520 261 573 426 882 1311 1271 1359 1361 1123 1630 1638 1890 1305 1900 1914 2050 2150 1428 1500 1184 1684 2191 2063 2310 1123 437 369 589 768 961 1137 1306 1533 1951
408 539 667 955 1094 923 908 921 850 654 398 444 700 856 1035 1148 1364 1267 1433 1632 1730 1524 1584 1546 2084 2057 1927 1779 1689 1806 1619 1643 1634 1357 966 889 593 739 993 1121 1386 1605 1872

GFSSE_con_mlcape_102.txt.gz
CAPE
392 773 1273 1388 945 1126 1236 1203 1158 1030 1038 1613 1890 1842 1701 1548 1774 1628 1435 1265 1234 1347 1496 1515 1507 1538 1486 1041 1455 1593 1610 1145 917 1516 1359 1090 833 917 978 932 1148 1230 1435
245 722 1239 1286 1090 1287 1361 1681 1616 1712 1698 1842 1897 1849 1808 1235 1750 1721 1342 1344 1302 1327 1422 1417 1283 1471 1388 1180 872 1245 970 938 1166 1238 1332 1481 1245 1344 1348 1299 1429 1426 1519
535 929 1279 998 969 1200 1280 1741 1826 1931 1862 1876 1905 1757 1725 1304 1589 1090 1504 1505 1644 1483 1326 548 591 1091 1305 1449 1153 1184 754 744 730 821 993 1224 1505 1642 1657 1626 1530 1561 1575
570 448 174 1391 1193 924 1557 1673 1635 1797 1942 1986 1844 1721 1825 1694 1735 1727 1724 1686 1366 914 806 1146 1135 1187 1415 1091 874 921 892 623 683 821 768 851 1080 1294 1488 1464 1549 1547 1554
456 501 1334 1431 1436 1368 1536 1469 1559 1710 1929 1887 1903 1804 1809 1652 1665 1651 1496 1398 1588 1532 1601 1596 1312 1298 1199 1195 1046 968 876 956 991 605 900 902 1107 1373 1517 1627 1519 1522 1524
640 927 1436 1455 1570 1661 1640 1549 1596 1643 1952 2090 1881 1902 1836 1666 1578 1600 1479 1444 1752 1773 1832 1652 1706 1307 1069 882 847 945 1188 1104 357 245 400 847 1007 1742 1618 1542 1528 1637 1538
421 705 998 1384 1515 1645 1677 1723 1808 1893 1969 2006 2008 1931 1735 1770 1681 1650 1738 1927 1886 1904 1965 1975 1497 1175 889 590 715 893 1143 448 201 240 391 505 815 1314 1679 1647 1204 1277 1358
444 579 974 1542 1507 1561 1599 1720 1765 1920 1963 1831 1901 1875 1973 1977 1828 1771 1842 1913 1904 1760 1490 1110 971 909 462 322 488 635 1034 977 510 281 349 631 711 760 920 1094 1049 1148 1092
306 416 729 1042 1468 1645 1715 1576 1713 1848 1815 1680 1731 1944 2056 2119 2003 1947 1990 1841 1720 1752 1844 1252 908 493 37 88 286 411 924 828 648 666 215 370 661 645 697 736 699 680 600
298 333 655 950 1009 1079 1280 1664 1827 1658 1711 1814 1821 1906 2103 2233 1667 1673 1699 1946 1707 1704 1832 1757 995 292 6 70 98 140 231 697 156 133 417 433 585 492 446 420 422 473 557
299 612 780 480 842 901 1248 1596 1804 1829 1834 1701 1758 1488 1374 1489 1638 1656 1520 1887 1796 1538 1392 1310 1222 913 780 529 258 248 684 773 24 44 189 395 448 438 430 415 449 579 778
305 450 435 464 394 461 696 1430 1500 1286 1361 1482 1424 1375 1584 1600 1746 1059 1286 1587 1717 1709 1517 1670 1932 1252 593 1460 617 491 249 51 9 288 889 1225 848 678 581 590 670 753 781
193 352 250 302 705 454 990 1451 1248 1535 1409 1257 1487 1766 1745 844 531 865 963 1476 1140 852 1474 1589 1692 1956 814 794 1314 361 143 142 23 3 276 905 1438 742 707 607 695 840 877
77 475 211 506 383 417 746 1234 1069 1335 1222 32 863 1289 1542 833 902 881 1518 449 1067 1302 250 1547 1573 1276 925 585 328 149 105 150 48 98 204 314 388 590 522 458 534 616 730
27 600 259 558 457 489 770 513 774 891 1147 1268 1185 1224 1273 1056 1098 1150 674 341 598 511 1102 1397 1345 1331 1399 586 351 167 234 134 12 1 9 78 158 302 471 476 585 601 674
51 630 360 423 768 753 670 613 430 514 718 1075 1439 1295 1168 762 1391 580 575 822 995 1149 1149 890 286 559 935 464 609 508 289 516 393 0 0 0 0 47 169 487 523 636 820
16 417 450 385 357 614 458 639 703 407 1018 993 1040 1328 951 1542 774 0 486 822 1023 605 927 1249 1076 1001 552 562 656 591 709 743 1024 351 98 57 41 94 141 348 499 650 855
34 255 197 445 345 358 574 860 497 816 401 802 1085 1279 1714 1595 1459 1248 1344 942 1468 1707 1981 1490 1143 978 562 846 851 874 780 785 1179 1296 1313 890 651 461 592 641 782 914 1019
64 42 54 210 542 549 1156 760 919 759 960 740 1099 1267 1600 1551 765 1159 1009 648 1085 1901 611 964 788 845 889 837 664 832 870 884 1142 1378 1689 1809 1673 1408 1048 903 857 910 1114
44 33 254 145 703 597 426 600 825 404 787 532 1021 1559 1358 1316 1608 1441 1782 1176 1384 1589 963 1435 846 661 1530 828 1076 877 934 1008 1114 1282 1724 1656 1593 1631 1491 1627 1454 1276 1181
11 111 192 197 467 386 837 614 510 467 748 1079 762 1458 1662 1328 1346 1935 1677 1057 559 1199 932 1169 1549 1850 1051 1098 1592 724 567 853 1136 1134 1525 1593 1525 1851 1477 2160 2843 2165 1500
26 117 140 838 945 953 760 734 791 426 793 1132 1567 1184 1147 1172 1505 1655 1543 1746 679 1313 1448 1551 1670 1935 593 832 1285 1731 732 990 986 977 1148 1339 1311 834 1505 2238 1976 2129 2506
153 340 190 335 1163 832 795 516 713 281 739 717 980 1342 1185 1132 1234 1334 1710 994 1459 1320 1529 1636 1682 2079 1327 527 525 1866 1631 1106 556 529 652 1165 884 1218 1383 1331 1920 1902 2153
84 251 896 598 845 891 518 572 667 454 123 673 666 654 903 1282 1243 1093 1339 1402 1435 237 715 1928 1624 1656 2211 1364 485 995 1018 1329 1492 841 764 845 1128 1227 1236 1510 1383 1647 1947
12 70 311 865 1015 746 812 560 586 380 587 774 657 606 629 1178 1184 1023 1340 1420 1544 1286 1147 630 1749 1777 2156 1972 2095 1320 887 1876 1416 1268 619 499 796 1112 549 643 1231 1691 1664
212 341 679 798 866 1084 907 909 488 713 659 607 217 430 707 1030 1173 1020 925 1389 1490 99 356 1615 1742 1552 1955 1620 1963 2153 552 319 457 490 922 633 787 550 813 786 685 1340 1942

GFSSE_con_mlcape_105.txt.gz
CAPE
180 678 1250 1120 991 1110 1290 949 924 1282 1599 1851 1891 1529 1851 1748 1452 1375 1309 1368 1583 1525 1433 1498 1439 984 1245 1477 1481 1235 1049 1633 1516 1346 1114 1038 1052 1025 1263 1365 1335 1130 1303
447 1255 1440 1140 1307 1415 1653 1499 1499 1881 2022 1995 1862 1331 1806 1827 1528 1518 1521 1378 1462 1423 1406 1491 1484 1207 928 1185 974 872 1114 1025 1284 1511 1472 1441 1203 1191 1426 1525 1487 1457 947
501 1081 1295 1162 1075 1186 1702 1936 1953 1851 1998 1907 1885 1467 1368 1175 1362 1387 1568 1497 1436 881 418 837 1209 1269 1125 1208 850 565 711 662 787 1303 1246 1321 1538 1554 1619 1613 1655 1507 1468
790 1014 740 1256 1182 1393 1637 1712 1847 1875 2006 1834 1828 1661 1650 1721 1789 1648 1382 1065 1094 884 1018 936 1448 1091 951 950 924 581 707 666 944 898 914 941 1303 1498 1529 1534 1523 1500 1528
304 679 1313 1333 1121 1618 1650 1658 1761 1879 1950 1790 1845 1745 1743 1611 1834 1603 1705 1584 1568 1643 1413 1459 1223 1000 827 1044 1049 845 679 703 903 771 874 1118 1201 1545 1672 1554 1644 1471 1425
597 1202 1566 1566 1475 1545 1534 1654 1674 1876 1911 1893 1828 1796 1585 1623 1348 1311 1494 1686 1755 1812 1723 1402 1150 759 741 931 916 938 1021 862 404 439 579 1311 1334 1495 1424 1544 1556 1421 1360
857 1314 1462 1626 1671 1579 1438 1555 1734 1887 1900 1794 1894 1819 1626 1693 1671 1700 1724 1878 2003 2052 1772 1225 1036 415 628 683 765 797 675 480 241 233 307 754 1270 1550 1241 1159 1326 1419 1564
703 952 1315 1467 1543 1569 1632 1642 1799 1863 1928 1909 1897 1941 1796 1742 1957 1971 1910 1972 1520 1460 1167 1016 518 256 375 362 658 1027 994 281 123 159 287 516 782 1012 926 682 1018 869 786
665 763 1022 1343 1485 1590 1637 1747 1937 1796 1809 1879 1952 2084 1993 1892 1970 1945 1871 1817 1808 1287 1015 759 171 131 180 396 396 698 1175 371 97 66 202 422 636 651 645 606 605 565 654
554 680 795 1065 1147 1336 1546 1763 1709 1719 1688 1824 2004 2045 1976 1841 1591 1607 1899 1856 1793 1821 1469 806 290 165 175 179 191 358 681 581 316 72 69 370 423 393 358 384 447 565 711
466 595 756 795 949 972 1359 1694 1646 1765 1803 1939 1844 1701 1280 1389 1400 1444 1555 1795 1770 1843 1484 749 288 126 183 220 332 335 492 118 0 0 9 241 326 358 352 395 454 575 723
403 530 509 653 485 865 1105 1273 1228 1347 1002 939 928 1064 1347 1409 1160 1111 1536 1200 1122 1356 1287 1180 961 964 385 402 391 559 630 45 45 0 134 263 362 411 450 485 511 571 624
414 429 308 280 422 425 870 1089 1125 1203 1235 985 557 1102 1325 1245 1176 949 292 193 12 29 40 510 1235 342 111 310 358 559 129 1 25 40 826 997 713 679 593 414 441 640 720
18 0 316 200 422 581 983 1158 1177 1017 447 472 1000 1346 1303 702 570 551 0 0 0 10 0 19 961 1418 1459 988 606 708 7 0 0 0 14 227 220 297 283 190 278 411 635
6 125 161 507 481 428 754 791 1054 1193 25 210 967 1291 1010 1070 497 78 0 0 168 295 312 561 853 891 1048 381 47 65 24 0 0 0 0 0 5 66 157 237 336 469 600
90 89 79 378 570 933 500 702 827 717 655 1077 695 792 994 1041 582 261 144 166 360 381 411 106 177 560 636 424 133 69 144 2 0 0 0 0 0 14 156 314 396 556 752
111 112 0 207 505 483 390 558 384 606 1027 1184 257 126 1102 606 173 340 552 498 793 515 1021 205 494 570 385 341 453 171 311 322 0 0 0 0 1 77 158 361 486 618 792
77 52 0 27 209 201 369 581 573 684 620 665 866 1012 1675 1048 528 936 848 826 1201 1547 1455 1769 1376 871 570 443 447 431 558 555 797 18 18 3 21 88 308 505 617 776 988
0 61 159 27 77 402 629 942 687 571 671 825 893 1133 1271 1676 1069 1235 1354 1100 1762 1486 416 1073 648 1012 450 592 657 585 438 708 841 928 668 508 435 412 383 606 728 804 1012
20 61 280 89 176 573 388 467 426 280 737 1068 1155 1362 1475 1562 1474 1511 1743 877 539 1212 959 1144 1183 1654 1406 606 1133 681 522 757 888 1160 1394 1218 1057 892 721 839 1011 977 956
0 0 252 152 163 266 265 491 420 297 628 757 1057 1259 1246 1239 1577 1607 1456 112 0 1142 1446 1476 1539 1705 1142 1173 1169 807 724 734 868 913 1300 1262 1151 1255 1314 1306 1357 1378 1364
0 78 220 209 223 431 557 638 564 453 750 745 924 1272 1543 950 1303 1628 1309 1023 855 1068 1618 1364 1412 2030 1315 632 1288 1356 438 555 691 834 1010 1290 1133 1309 1351 1760 1950 1980 1763
0 117 203 261 260 431 532 490 375 428 652 573 973 857 1029 1258 1157 1250 954 710 730 744 706 849 1897 1983 1654 1624 1238 1509 1297 929 671 468 519 862 772 753 1005 1707 1583 1704 2070
0 33 142 304 241 329 614 414 304 247 289 475 444 554 692 927 1118 1020 767 501 770 57 0 483 1683 1932 1792 1586 1652 1405 1082 1343 1182 323 403 632 400 705 891 835 1449 1087 1281
148 95 112 232 127 356 283 566 523 237 179 549 480 461 145 528 1186 1056 1312 1258 926 530 850 1199 1063 1821 1736 1483 1433 997 846 553 265 647 677 467 507 551 299 207 580 401 667
217 405 212 217 197 774 601 523 350 400 467 417 361 379 604 548 626 1065 1028 1092 953 512 354 638 1610 1738 1768 1608 1241 682 206 189 12 440 237 8 23 205 204 249 227 84 319

GFSSE_con_mlcape_108.txt.gz
CAPE
38 299 1016 1018 1105 1416 1091 1147 1455 1801 1707 1769 1750 1679 1210 1202 1292 1555 1612 1676 1583 1573 1381 1026 1433 1551 1367 1164 1135 1575 1616 1336 1360 1311 1211 1162 1231 1514 1472 1303 1240 990 991
116 718 1180 1145 1409 1445 1258 1495 1739 1843 1622 1589 1711 1764 1700 1396 1622 1586 1402 1538 1514 1589 1579 1237 1121 1382 1256 1136 1272 1245 1317 1647 1692 1688 1522 1450 1485 1559 1449 1234 978 508 502
301 1160 1165 1316 1382 1450 1621 1549 1786 1896 1564 1774 1608 1798 1227 1410 1442 1625 1618 1704 1144 942 1407 1316 1360 1320 1088 676 772 912 894 1556 1495 1464 1506 1316 1438 1569 1490 1537 1533 1519 1455
801 1055 1205 1222 1211 1751 1783 1893 1734 1627 1690 1691 1678 1531 1534 1580 1669 1695 1592 848 720 717 1319 1385 1179 1163 1201 744 972 941 1088 1410 1260 1043 984 1091 1323 1548 1525 1642 1546 1453 1400
722 703 1112 1440 1577 1715 1717 1942 1890 1928 1967 1923 1702 1610 1622 1500 1610 1441 1129 1738 1567 1518 1660 1261 1184 1281 1476 1260 908 973 1128 1289 1163 938 912 1036 1335 1630 1627 1603 1377 1331 1435
269 952 1370 1261 1724 1735 1763 1863 1953 1995 1947 1830 1812 1609 1660 1541 1498 1563 1615 1770 1766 1590 1319 1164 1055 1313 1103 1428 1243 1048 1321 983 698 916 1102 1370 1462 1662 1492 1644 1590 1531 1552
870 1314 1525 1508 1661 1703 1775 1785 1938 1937 1950 1967 1748 1746 1629 1617 1697 1827 1869 1971 1881 1802 1371 1004 826 949 926 1026 1160 1281 747 384 188 637 926 1150 1337 1546 1648 1609 1640 1656 1676
988 1377 1646 1723 1662 1616 1721 1910 2050 1967 2047 2096 1897 1896 1867 1896 1921 1845 1839 1778 2111 2007 866 646 593 573 631 921 1274 1038 674 311 49 232 501 821 1235 723 622 612 802 899 1015
923 1121 1330 1513 1541 1733 1804 1951 1989 1891 2049 2112 2061 1821 1953 2007 1986 1964 1848 1531 1144 1020 800 478 253 324 441 641 925 1433 505 161 0 13 175 437 735 700 640 660 650 758 833
831 1011 1099 1324 1485 1540 1789 1974 1878 1958 1990 2065 2103 1924 2017 2036 1943 1869 1836 1851 1671 1274 855 328 108 147 265 310 460 1090 795 315 1 0 37 372 546 541 493 530 576 636 740
460 697 1073 1134 1176 1423 1665 1764 1875 1892 1996 2051 1929 1846 1335 1361 1548 1657 1832 1799 1740 1373 818 379 118 175 252 350 456 627 811 118 0 0 15 242 396 414 431 515 604 689 816
392 575 680 704 931 1309 1744 1429 1517 1408 1465 1656 1442 1098 1028 1101 869 1084 1370 1488 1735 1053 1044 1177 965 836 740 298 307 676 1231 12 0 0 6 155 387 501 515 480 492 528 601
375 510 611 619 636 868 1116 1068 1162 1012 869 765 908 1134 1215 1108 855 341 212 85 113 146 30 249 277 1058 248 488 341 597 105 5 0 19 77 239 489 543 460 406 462 636 760
338 338 362 336 462 506 794 968 1051 1044 833 534 761 964 862 810 584 87 0 4 0 0 2 27 144 669 1199 1303 1080 510 25 13 0 74 322 515 511 363 308 316 395 498 661
159 224 231 217 378 767 981 1043 1057 840 221 535 849 994 624 199 407 171 0 0 130 224 290 367 370 686 1053 646 524 335 69 0 0 0 1 106 83 174 260 353 445 576 703
113 249 320 286 448 712 744 816 936 851 26 751 773 690 841 299 435 180 0 104 232 346 403 302 172 1 389 340 0 16 7 0 0 0 0 11 31 81 285 474 577 689 869
88 197 275 467 896 514 618 615 843 635 688 631 363 661 810 519 373 233 285 427 479 482 687 471 294 287 499 321 60 48 28 9 0 0 3 9 49 197 377 523 715 729 881
18 0 136 324 372 356 561 537 622 657 977 615 15 731 806 252 34 292 409 505 35 5 1064 1200 1082 1253 587 336 305 228 292 19 17 3 6 11 67 165 289 560 705 776 921
0 0 44 109 197 485 501 554 611 737 772 564 842 1099 1019 1182 1014 1298 1107 894 801 943 574 1127 770 1123 681 433 380 424 508 548 499 161 90 145 178 223 275 461 840 878 979
0 0 0 30 277 403 444 416 372 546 689 680 947 1149 1310 755 1181 1431 1118 609 147 1080 1409 1509 1504 1612 1365 381 649 749 541 478 642 828 420 566 551 506 525 499 729 1042 1067
37 52 0 60 322 194 388 423 210 427 778 775 1168 1107 985 1202 1409 1326 1224 191 640 975 1523 1499 1517 1447 707 744 999 726 523 390 578 691 938 1149 890 902 755 869 875 996 1033
64 76 0 67 148 161 352 447 412 466 751 634 692 1139 1144 927 1105 1115 1098 737 748 829 778 1211 1899 1525 1543 1390 1121 791 308 433 439 676 709 1119 1047 1054 1146 1181 1415 1670 1552
95 132 105 42 126 360 418 350 362 510 560 565 852 847 923 1113 1143 971 790 707 551 416 111 734 1474 1839 1260 1348 1216 1436 863 677 612 320 442 589 665 698 797 1251 1402 1557 1679
26 112 82 99 231 386 315 316 246 332 341 363 472 513 622 427 948 1084 652 540 572 1 23 831 1007 1699 1360 1208 1321 944 620 763 836 353 364 405 446 386 507 580 1000 1240 1117
82 91 129 168 207 308 273 247 260 196 213 418 396 379 376 334 871 1152 415 763 634 423 654 900 1282 1303 1477 1079 821 391 400 232 312 402 396 71 291 356 337 383 499 747 490
45 103 122 107 132 171 261 355 343 206 179 267 263 396 298 352 579 840 1163 1055 600 535 327 344 1265 1376 1446 1150 762 144 170 52 162 167 282 113 63 44 344 288 285 440 418

GFSSE_con_mlcape_111.txt.gz
CAPE
11 67 873 961 651 861 1623 1837 1983 1952 1972 1744 1500 1212 1039 1397 1634 1581 1756 1625 1489 1050 1377 1563 1480 1132 1097 1575 1567 1578 1603 1377 1446 1394 1478 1530 1492 1549 1277 1099 1182 1395 1517
46 204 1198 1101 1292 1482 1785 2008 1876 1658 1774 1788 1533 1180 1180 1416 1315 1640 1639 1572 1725 1241 1292 1329 1458 1443 1397 1512 1409 1584 1305 1446 1433 1411 1507 1586 1748 1523 1211 1294 684 824 1060
88 700 1375 1410 1558 1506 1918 1861 1840 1566 1561 1465 1685 1567 1722 1639 1528 1592 1573 1578 1632 1451 1436 1552 1451 1127 1024 1099 1130 1385 1638 1584 1669 1647 1487 1405 1567 1697 1558 1069 1308 994 762
310 1098 1110 1394 1439 1624 1830 1902 1914 1780 1376 1700 1482 1507 1712 1528 1644 1722 771 589 791 1392 1411 1481 1380 1214 1132 1236 1363 1369 1661 1524 1602 1338 1192 1420 1527 1703 1694 1559 1509 1523 1524
831 1094 1185 1084 1762 1818 1920 1904 1879 1885 1518 1631 1780 1651 1667 1409 1003 1113 1419 1330 1326 1722 1299 1381 1529 1589 1459 1393 1425 1677 1731 1497 1320 1016 1104 1247 1478 1625 1615 1610 1649 1525 1537
836 909 1696 1337 1799 1798 1914 1703 1776 1903 1901 1921 1830 1785 1841 1889 1841 1922 1920 1722 1627 1421 1369 1432 1649 1595 1766 1321 1544 1763 1619 1418 1065 1091 1299 1614 1510 1625 1709 1621 1550 1710 1745
580 1210 1313 1749 1821 1781 1853 1702 1926 1977 1910 1878 1842 1708 1650 1645 1838 1905 2033 1923 1988 1667 1233 1255 1324 1408 1494 1464 1451 1297 945 945 723 936 1195 1404 1551 1879 1681 1643 1504 1417 1692
987 1417 1450 1670 1735 1749 1802 1911 2009 1999 1859 1865 1820 1885 1883 1914 1963 1908 2110 2190 2019 1421 1013 1014 959 1013 1089 1566 1805 1032 625 452 510 706 1009 1220 948 1066 902 1062 1240 1344 1568
1313 1394 1522 1582 1548 1666 1914 1924 1980 2080 2027 1953 1985 2097 2166 2178 2081 2077 1468 1259 1083 815 741 559 561 595 871 1168 1383 1002 689 106 53 249 552 801 850 855 826 863 876 978 1006
896 1131 1238 1379 1607 1679 1961 2104 2047 2150 2200 2124 1920 2105 2153 2113 1956 1952 1863 1646 1311 989 627 327 308 415 539 766 1355 1095 758 249 0 26 122 474 670 692 692 734 760 815 851
763 1015 1219 1409 1390 1554 1796 1878 2004 2083 2121 2122 1916 1758 1792 1623 1687 1382 1776 1645 1666 1495 885 472 357 405 502 721 1099 1231 1220 139 0 5 34 242 471 540 562 655 804 882 895
503 794 969 884 1137 1481 1685 1503 1522 1877 1895 1865 1519 1227 1037 1076 1126 1354 1622 1643 1292 723 633 873 644 827 300 130 176 499 777 23 0 0 15 216 438 539 549 549 512 530 603
310 664 704 735 1059 1300 1401 1234 1316 1400 1467 1319 1156 874 1034 958 708 388 256 188 164 155 0 40 72 234 901 847 1061 466 395 415 0 0 39 187 399 566 549 445 456 646 837
360 448 555 603 833 1064 1074 794 946 825 666 528 806 1010 1034 768 345 131 26 0 0 0 9 125 220 298 542 910 1065 790 7 35 29 47 218 318 465 668 542 403 482 634 801
284 347 352 358 433 459 613 871 866 821 638 489 795 923 731 665 274 7 0 1 49 153 238 273 337 232 102 319 174 633 374 28 19 35 166 520 358 309 374 459 595 747 917
196 230 230 239 252 502 747 732 760 548 200 572 740 862 511 144 297 79 6 219 377 393 518 448 321 300 238 282 0 10 78 11 0 0 0 21 146 191 326 572 780 888 1061
144 191 212 239 329 594 529 652 701 543 174 617 535 694 625 226 294 128 214 305 261 92 773 893 807 686 695 539 23 9 7 13 0 0 0 0 1 159 329 591 775 918 996
149 199 178 419 323 497 581 575 669 429 463 443 243 558 597 294 184 303 352 268 1 1 669 553 722 717 710 355 239 64 22 4 3 0 0 0 0 79 172 492 752 867 960
182 216 316 411 466 347 494 371 504 510 771 457 272 744 405 69 409 936 778 444 531 881 1155 1056 1171 1063 563 338 300 239 236 254 55 19 27 44 65 71 119 222 460 855 1148
87 85 153 262 347 477 380 319 513 527 629 227 647 751 832 915 1044 1160 741 316 658 1032 1350 1368 1442 1306 1053 347 366 485 385 264 330 429 337 123 162 201 257 297 334 618 909
0 0 68 213 234 278 287 307 398 455 515 574 868 918 1101 953 1044 1001 777 0 640 1016 1096 1729 1524 1069 791 713 778 552 386 344 290 431 433 635 654 564 518 668 656 878 1040
0 0 20 122 177 220 252 187 317 450 613 547 746 902 953 921 1103 740 835 653 602 515 787 1505 1599 1163 1277 1132 1104 354 216 275 267 224 358 450 634 742 812 971 1176 1657 1618
0 0 0 91 111 207 300 269 285 443 466 547 566 691 743 1005 1131 929 730 491 442 178 382 984 1489 1198 1109 1045 1033 825 461 492 433 235 348 360 449 582 800 959 1246 1435 1551
6 44 0 120 114 208 220 234 217 254 322 412 425 542 631 478 695 1023 650 492 271 0 473 877 1064 1263 956 922 562 411 427 553 641 279 267 323 313 417 516 732 966 1033 1232
59 10 0 68 163 209 215 222 180 201 226 297 277 356 380 322 686 929 557 434 425 319 561 976 1060 996 1030 622 296 275 281 156 121 273 304 116 147 303 290 352 434 684 687
42 105 0 0 105 208 151 183 182 176 208 273 274 301 269 339 507 819 904 538 597 479 391 553 1033 1165 973 768 294 172 204 89 103 94 161 89 124 53 92 284 255 243 310

GFSSE_con_mlcape_114.txt.gz
CAPE
3 70 297 520 541 1076 1271 1951 1888 1830 1427 1575 1385 1276 1414 1463 1528 1510 1215 1200 1169 1329 1210 1319 1080 1627 1605 1562 1656 1314 1335 1398 1492 1465 1235 1328 1228 1157 1343 1406 1324 1340 1484
11 138 315 409 366 845 1623 1968 1831 1940 1752 1194 1096 1250 1631 1448 1410 1414 1232 1345 1325 1322 1289 1460 1540 1606 1505 1691 1429 1390 1304 1207 1370 1370 1508 1401 1460 1516 1056 1039 1206 1326 1456
39 379 452 573 601 1236 2042 1885 1760 1764 1823 1596 1250 1532 1562 1578 1738 1502 1412 1381 1351 1456 1436 1393 1322 1277 1320 1334 1486 1299 1002 1098 1365 1427 1146 1503 1388 1059 865 997 718 683 679
215 785 549 962 1153 1937 2055 1906 1821 1655 1799 1791 1531 1681 1698 1556 1534 893 763 1237 1419 1484 1376 1302 1367 1299 1229 1307 1608 1698 1696 1677 1574 1357 1263 1352 1394 1522 1628 1668 1659 1685 1725
640 1046 1409 1243 1710 1845 1861 1875 1771 1406 1721 1607 1905 1714 1466 1502 1334 1055 1112 1209 1614 1378 1477 1536 1044 927 851 1394 1572 1683 1598 1564 1288 1040 1098 1325 1402 1603 1652 1705 1559 1617 1703
788 968 1200 1375 1570 1730 1817 1887 1929 1786 1948 1890 1833 1819 1869 1640 1872 1657 1608 1682 1430 1374 1401 1655 1518 1503 1125 1740 1730 1701 1629 1247 1000 1072 1239 1375 1484 1831 1734 1685 1760 1836 1752
750 1038 1343 1720 1772 1854 1780 1878 1956 1982 1947 1927 1950 1890 1768 1814 1831 1583 1438 1702 1468 1259 1400 1460 1461 1248 1519 1585 1321 1125 1280 1101 780 924 1034 1330 1401 1773 1647 1553 1265 1619 1761
550 1186 1286 1296 1296 1804 1788 1933 1990 1952 1902 1789 1776 1767 1766 1883 1664 1836 2010 1894 1124 1120 1279 1229 1138 1278 1437 1728 1249 745 831 794 685 843 971 847 998 1033 1140 1286 1306 1463 1694
1116 1095 1292 1464 1446 1656 1969 1995 2036 1969 1936 2034 2056 2016 1935 1889 1846 1412 1294 1086 816 846 920 907 853 1027 1330 1569 1181 934 276 221 232 555 765 675 670 861 899 747 840 833 814
1022 1023 1248 1312 1465 1718 1794 1946 2093 2082 2066 1977 1990 1982 2112 2075 2047 1938 1600 1270 923 708 685 621 642 736 985 1370 1511 1031 641 94 0 55 206 445 605 668 675 653 613 611 722
922 1025 1100 1297 1319 1492 1564 1676 2061 2181 2210 1901 1975 2281 1703 1597 1579 1536 1574 1536 1593 1291 787 481 499 595 673 726 1047 1244 891 86 0 13 73 273 397 514 515 552 615 663 695
520 856 1059 1251 1240 1480 1505 1355 1589 2031 1632 1598 1405 1141 1129 1069 1297 1709 1849 1373 913 377 424 450 451 733 294 235 384 567 389 104 0 0 19 198 372 493 426 407 428 489 549
333 749 874 919 1155 1175 1289 1262 1518 1610 1411 1306 985 851 971 990 728 230 71 44 10 18 5 39 84 176 363 629 889 796 412 63 3 0 0 168 398 533 483 433 423 563 814
160 549 626 685 923 1008 1094 1114 1081 1173 961 803 833 976 904 655 180 25 0 0 0 5 102 189 306 321 213 264 356 675 0 121 0 0 3 190 435 696 663 477 491 635 816
109 360 351 511 676 849 802 819 739 580 376 520 798 910 722 717 217 0 4 30 111 248 320 333 220 258 230 196 25 466 77 14 0 0 55 299 472 493 513 532 619 818 1043
146 234 341 242 410 515 513 683 755 606 486 503 717 760 501 481 290 43 23 316 366 286 489 450 407 353 417 257 0 3 126 12 0 0 0 0 338 225 323 516 797 965 1112
92 154 195 170 227 303 530 643 679 438 199 463 602 708 567 68 142 129 27 259 115 74 732 534 556 618 681 436 24 0 2 0 0 0 0 0 0 90 294 503 802 1036 1181
59 121 165 197 223 390 470 512 541 477 104 522 413 614 658 425 242 240 249 133 16 392 933 785 761 544 417 289 202 34 7 0 0 0 0 0 0 0 86 283 615 878 1099
64 90 141 175 263 365 409 443 470 444 182 366 141 489 287 135 192 501 574 371 690 1107 1069 1214 1136 730 381 221 286 180 120 156 28 0 0 1 0 36 71 111 264 547 944
61 97 114 143 274 257 353 332 339 422 476 438 112 654 235 294 897 996 584 244 802 1158 1387 1337 1011 1108 530 351 369 301 311 240 222 364 414 385 222 224 355 397 483 571 755
54 92 173 285 348 264 260 228 336 366 456 279 562 757 707 766 854 891 579 59 930 928 1330 1432 1031 885 866 530 659 434 330 273 263 245 305 404 596 806 820 781 903 888 1036
73 64 119 183 221 250 188 170 278 306 421 473 685 821 795 800 889 612 427 374 742 499 1145 1374 1127 918 892 739 791 221 238 238 269 282 334 414 474 564 817 985 1014 1082 1443
9 3 10 122 151 182 186 197 296 358 400 471 609 672 862 869 805 869 695 594 489 65 791 1066 1121 919 771 693 663 600 346 415 353 308 379 391 440 568 713 846 1047 1325 1398
0 0 0 64 90 152 173 157 207 282 339 304 381 380 626 618 829 745 632 332 79 0 691 866 1054 953 711 637 442 286 328 510 572 370 291 338 347 432 481 591 792 875 964
0 0 0 0 43 128 171 174 147 180 218 239 322 363 485 388 524 855 677 445 162 99 600 909 809 838 664 353 255 251 225 119 97 300 367 241 116 211 411 423 375 370 407
1 0 0 0 50 108 126 122 139 143 150 221 251 212 294 291 367 661 781 54 481 310 307 676 880 882 691 394 171 194 181 74 113 97 175 148 166 157 78 85 164 247 214

GFSSE_con_mlcape_117.txt.gz
CAPE
50 113 430 753 672 454 717 1330 1550 1682 1707 1526 1532 1442 1456 1326 1343 1280 1255 1218 1285 1307 1157 1361 1521 1630 1649 1588 1333 1241 1271 1598 1111 1172 1303 1283 1452 1475 1469 1433 1184 961 1489
47 121 188 328 577 1074 1387 1755 1894 1669 1268 1210 1623 1617 1456 1311 1354 1338 1310 1347 1238 1460 1586 1622 1556 1589 1581 1489 1275 1016 927 1071 1114 1342 1415 1381 1396 1105 1386 1435 1345 1583 1687
80 116 189 316 407 1236 1653 1738 1713 1751 1229 1157 1437 1521 1460 1428 1197 1230 1368 1454 1588 1466 1438 1349 1338 1414 1599 1513 1123 1250 1305 1563 1349 1373 1259 794 376 792 548 598 726 831 949
291 314 321 558 763 774 1623 1630 1749 1764 1793 1736 1755 1661 1587 1444 919 1090 1415 1469 1440 1291 866 1299 1313 1231 1616 1685 1712 1731 1664 1601 1391 1380 1195 1140 1149 1582 1672 1710 1735 1920 1751
664 700 790 1014 1238 1158 1911 1711 1636 1645 1425 1878 1653 1239 1192 987 694 732 1275 1535 1326 1336 646 552 908 939 1315 1591 1517 1516 1469 1494 1218 959 1013 1070 1080 1649 1753 1545 1674 1753 1670
869 808 1057 1869 1864 1785 1895 1822 1622 1753 1796 1761 1764 1403 1226 1711 1591 1512 1489 1274 1364 1416 1443 1547 1212 1589 1623 1504 1415 1334 1357 1245 1233 1125 1048 1298 1456 1804 1785 1955 1876 1803 1799
803 875 697 1768 1617 1799 1845 1945 1904 1658 1869 1667 1487 1615 1573 1624 1563 1410 1612 1300 1240 1445 1203 1268 1385 1600 1441 1088 951 1238 1232 1145 1043 973 1300 1442 1623 1649 1576 1405 1714 1856 1154
485 1195 1198 1530 1889 1782 1826 1836 1885 1758 1566 1640 1770 1611 1369 1608 1636 1519 1437 889 1252 1352 1234 1023 1336 1604 1811 1133 657 841 963 832 1014 1283 911 742 1023 1334 1495 1434 1525 1747 1645
783 824 1380 1207 1442 1748 1987 2015 1933 1951 1861 1713 1922 1813 1605 1447 1334 1168 903 786 998 1085 999 1111 1158 1555 1624 1246 1016 345 278 345 613 1050 726 417 738 1019 781 792 763 735 727
985 952 1519 1175 1494 1495 1690 2017 2065 2081 1924 1723 1703 1659 1586 1713 1601 1434 1089 878 782 857 734 841 886 1123 1425 1487 1158 759 415 6 0 116 146 212 687 732 667 611 597 723 873
1051 921 1187 1269 1628 1752 1873 1819 1951 1657 1881 1949 1828 1704 1634 1333 1217 1050 1499 1279 1065 832 639 762 802 862 711 1037 1200 1291 768 226 0 0 30 198 501 569 613 587 541 527 546
675 916 939 1283 1366 1514 1670 1750 1894 1832 2121 2052 1809 1612 1507 1390 1644 1579 1296 876 533 446 631 519 506 542 520 816 976 801 778 470 0 0 11 206 437 551 484 439 457 529 670
481 731 1076 1352 1547 1765 1777 1605 1467 1655 1660 1726 1363 1409 1426 1515 798 448 235 150 160 135 317 330 486 718 1023 1163 1384 1217 774 458 20 0 0 151 439 593 562 478 471 653 954
447 658 1020 1055 1381 1587 1485 1819 1557 1263 1166 1088 1235 1497 1453 841 438 92 1 4 166 380 554 723 899 750 672 630 695 1218 359 280 0 0 1 77 355 745 851 549 528 699 961
260 505 699 926 1299 1484 1395 1379 1338 1032 727 1015 1401 1545 1345 1173 463 77 265 492 713 889 914 965 804 863 981 613 400 1007 487 208 61 0 131 76 363 507 602 683 796 1028 1278
114 326 547 763 1081 1326 1100 1079 1039 837 810 1008 1299 1443 1126 1154 714 340 353 963 965 910 1177 1184 1085 1057 1199 544 286 448 573 177 22 1 51 117 299 502 409 703 922 1102 1241
112 284 440 527 784 897 939 1217 1261 1053 796 997 1217 1334 992 523 562 652 385 786 605 483 1455 1244 1268 1255 1237 511 389 309 273 155 40 0 23 65 122 98 333 567 789 993 1090
129 243 385 190 401 611 920 1131 1181 1022 558 1057 1125 1215 1252 792 771 682 752 660 503 1146 1702 1642 1466 1112 947 791 675 464 320 255 208 153 110 173 263 240 263 223 364 613 932
153 244 343 424 461 630 961 1047 1088 1026 453 1109 733 1179 1151 908 701 937 909 1071 1548 2097 2149 2082 1623 1189 876 741 657 598 559 681 500 278 395 443 385 367 518 510 332 441 706
208 265 377 411 578 700 967 916 932 1100 813 915 679 1217 648 665 1200 1651 1299 1024 1795 2173 2291 1814 1641 1439 1082 964 647 725 841 839 798 1042 1054 1032 1053 941 1126 1211 1276 1304 810
189 178 259 373 498 614 743 850 842 643 1015 963 689 1347 1018 1424 1631 1662 1172 797 1604 1797 2053 1924 1616 1737 1658 1188 1373 898 862 799 801 678 849 1041 1221 1477 1630 1682 1788 1753 1791
140 188 246 291 493 615 690 701 805 935 1050 1003 1365 1455 1482 1328 1456 1515 1203 796 1354 1241 1934 1924 1820 1341 1534 1501 1314 616 605 640 809 817 891 943 1182 1167 1293 1613 1920 2233 2398
143 155 230 420 646 676 615 596 656 809 578 946 1181 1231 1345 1333 1533 1489 1298 1180 1092 702 1567 1831 1727 1534 1382 1155 1257 1288 788 708 906 870 985 1012 1037 1244 1462 1509 1788 2098 2077
139 175 238 429 564 531 518 606 402 508 632 719 656 1006 1345 1476 1293 1327 1196 961 885 264 1155 1628 1859 1633 1579 1275 959 822 971 1318 1174 884 913 866 870 1036 1156 1269 1257 1399 1495
137 134 194 314 411 473 477 547 291 273 612 572 757 475 1131 959 1338 1374 1210 969 576 385 1156 1581 1548 1604 1296 824 832 826 714 566 551 882 727 842 569 452 562 893 1021 945 956
103 123 109 167 276 413 482 436 423 189 254 510 376 668 737 966 950 1181 1321 822 864 761 718 1434 1587 1633 1442 806 694 716 756 579 593 498 601 738 565 740 462 327 455 702 852

GFSSE_con_mlcape_120.txt.gz
CAPE
188 273 448 660 705 268 372 354 860 1021 1176 1064 1335 1353 1310 1247 1333 1320 1319 1234 1225 1301 1358 1712 1670 1616 1484 1258 1215 1484 1159 1379 1401 1329 1481 1559 1626 1492 1482 1261 1208 1398 1940
69 228 347 449 1015 329 636 457 1096 1209 1185 1397 1468 1345 1345 1298 1396 1343 1336 1411 1402 1556 1599 1499 1235 1624 1566 1408 1240 1285 1385 1491 1620 1712 1462 1298 1470 1603 1597 1816 1503 1428 1538
47 142 229 333 918 800 763 1291 1394 1115 1340 1644 1538 1530 1263 1180 1444 1414 1618 1549 1435 1473 1355 1434 1576 1667 1463 1514 1514 1561 1603 1460 1539 1339 1155 71 301 797 772 909 1298 1437 1772
95 173 361 564 861 1158 1442 1727 1663 1638 1689 1724 1537 1547 1383 1342 1403 1620 1457 1346 776 1101 1348 1316 1571 1682 1750 1816 1883 1786 1630 1539 1365 1008 826 883 1118 1723 1838 1968 1761 1714 1639
187 416 698 773 1007 1497 1729 1653 1701 1348 1701 1557 1219 1305 734 638 719 1597 1372 1106 637 735 993 1082 1340 1495 1736 1597 1495 1624 1704 1276 946 671 759 880 958 1713 1814 1640 1730 1916 1780
670 665 638 1316 1250 1659 1786 1530 1571 1781 1680 1510 1134 1364 1716 1699 1709 1584 1479 1296 1500 1474 1361 1396 1720 1510 1468 1311 1280 1521 1481 1367 1044 618 699 1178 1496 1658 1854 1763 1624 1869 1960
530 644 563 1599 1628 1745 1584 1641 1592 1632 1732 1670 1676 1554 1623 1475 1494 1523 1268 1438 1510 1359 1386 1553 1529 1275 927 1041 1314 1392 1388 1082 503 1095 1216 1253 1388 1620 1489 1898 2022 1272 1187
340 377 791 1412 1672 1775 1371 1447 1462 1628 1259 1320 1596 1387 1549 1571 1520 1549 1060 1471 1495 1299 1288 1632 1836 1819 1127 637 873 1001 1024 954 507 316 409 531 1214 1621 1627 1683 1777 1728 1478
598 653 826 1041 1437 1824 1563 1575 1511 1371 1325 1600 1571 1335 1525 1530 1405 937 965 1337 1352 1251 1400 1470 1688 1717 1404 1120 442 264 62 267 345 417 193 195 873 839 795 799 764 732 698
459 773 865 836 964 1092 1259 1467 1686 1626 1633 1764 1691 1599 1529 1198 926 849 776 1051 1145 1083 1230 1145 1355 1577 1440 1334 948 590 52 0 0 57 49 148 778 688 637 657 797 982 986
429 640 788 922 1276 1471 1296 1328 1261 1706 1586 1607 1236 1188 1073 402 512 912 960 890 964 909 910 914 925 874 1073 1094 1234 971 649 0 0 1 8 294 628 631 656 599 507 489 563
214 226 650 740 818 1219 1225 1478 1473 1224 1127 1024 955 799 529 671 1078 605 764 936 1207 1040 855 850 690 359 604 648 752 850 251 36 0 23 12 259 467 538 453 440 529 646 896
156 268 675 777 1047 1165 1134 1140 1298 965 1055 1124 1134 687 883 667 671 502 482 393 435 358 441 423 690 844 1038 715 566 213 131 161 7 59 0 146 403 662 640 572 662 909 1132
183 321 656 735 1206 1381 1184 1023 900 983 907 702 1021 1273 1145 625 701 377 216 471 635 520 763 1001 846 1261 1027 685 506 251 236 94 44 127 5 89 344 774 1031 747 740 883 1154
183 366 514 756 1307 1453 1225 937 815 738 812 955 1190 1485 1176 810 500 533 794 782 977 1036 1108 1227 1074 1115 851 506 639 409 168 185 128 255 305 54 319 711 925 972 1024 1178 1399
129 341 457 705 1221 1341 1051 910 727 613 812 985 1162 1328 1631 830 991 807 1100 995 1197 1360 1218 1169 1184 1001 515 491 716 497 236 199 219 325 452 377 240 475 529 739 949 1151 1353
110 277 426 707 1049 1201 1139 1256 952 756 749 976 1212 1679 1461 1256 1379 1651 1013 1130 1099 1385 2143 1572 1330 957 498 419 603 753 649 518 329 361 467 524 463 192 325 590 796 951 1068
69 217 350 376 794 1272 1286 1445 1001 869 977 1186 1402 1437 1745 1604 1706 1699 1127 1138 1513 2034 1523 1058 804 558 620 540 455 392 604 690 905 833 764 891 991 883 636 461 468 559 746
78 218 254 257 705 1083 1390 1209 1275 1378 1129 1352 1264 1363 1762 1542 1624 1570 1065 1495 2445 2096 2086 1585 1125 829 582 499 434 636 620 647 956 772 1188 1262 1221 1150 1236 957 735 637 733
93 227 236 530 717 995 1214 1353 1145 1029 1024 1150 1234 1274 1391 1407 1754 2071 1284 1780 2352 1872 1891 1865 1811 1533 1138 867 474 687 771 646 859 1141 1201 1076 1457 1722 1519 1925 1980 1815 1348
191 290 565 665 883 961 970 915 839 803 1120 1060 1026 1696 1587 1945 2165 2287 1239 1443 2013 1949 2227 2274 1993 2091 1471 1724 1028 835 870 842 755 818 952 1007 1211 1283 1368 1838 2264 2153 2080
183 316 543 683 899 1208 995 1023 904 724 974 912 1010 1324 1441 1912 1934 1934 1929 1322 2101 1562 2574 2442 2343 1345 1332 1740 1168 719 395 443 366 702 1051 1157 1273 1362 1384 1728 2119 2550 2800
223 230 423 711 803 869 897 930 1067 1255 1052 1175 1271 1176 1268 1580 1729 2096 1931 1483 1883 1423 1484 2543 2377 2074 1163 1767 2258 1458 496 492 724 898 1219 1221 1680 1457 1576 1800 1993 2378 2592
244 296 289 587 821 695 827 895 734 405 547 835 1070 1053 1218 1336 1433 1749 1675 1725 1860 1200 1647 1783 1946 2443 1812 1328 1437 1356 1869 1719 860 768 1037 1080 1281 1326 1476 1447 1414 1534 1838
237 304 314 582 906 876 1172 925 486 429 450 645 786 1079 1069 1442 1493 1178 1803 1822 1582 861 1365 2144 2099 2551 1772 1228 1021 1303 1471 1106 1252 919 598 928 887 944 766 947 1113 1085 1348
232 274 301 489 836 624 1166 557 668 519 561 655 632 722 793 760 903 1459 1553 1796 1526 1332 1215 1513 2178 2070 2238 1847 1361 1219 979 829 719 756 645 809 900 805 787 703 700 939 1106

GFSSE_con_mlcape_123.txt.gz
CAPE
136 153 322 210 139 141 166 299 224 656 878 1031 1176 1412 1404 1252 1422 1312 1186 1284 1243 1447 1621 1719 1676 1572 1536 1551 1701 1297 1591 1432 1591 1542 1614 1537 1525 1599 1508 1253 1364 1551 2162
195 422 563 637 452 223 154 283 441 1068 1266 1376 1318 1354 1398 1345 1262 1416 1496 1523 1594 1641 1544 1575 1549 1566 1539 1526 1478 1516 1696 1743 1615 1486 1313 1532 1611 1708 1594 1254 1096 1601 2084
112 260 530 673 532 275 359 708 984 1211 1335 1322 1340 1328 1415 1522 1542 1508 1566 1553 1555 1480 1653 1541 1552 1509 1438 1544 1573 1679 1635 1569 1491 1307 1051 210 526 771 1106 1488 1938 2122 1920
84 208 349 901 852 567 581 833 1142 1285 1366 1477 1445 1314 1345 1459 1589 1472 938 1149 1444 1448 1488 1667 1639 1723 1586 1577 1646 1582 1168 1031 933 1092 1025 745 942 1776 1618 1385 1364 1158 1398
105 353 768 1263 1634 987 1099 936 1474 1576 1384 1451 1405 575 751 1536 1654 1187 845 956 1193 1287 1306 1428 1624 1530 1520 1570 1603 1354 1176 1193 1351 970 1120 1052 844 1596 1641 1838 2002 1916 1666
555 769 952 1548 1808 1624 1482 1489 1235 1468 1169 1202 1625 1771 1551 1554 1811 1628 1346 1532 1518 1214 1482 1535 1471 1410 1129 1211 1310 1130 1318 1309 1286 1124 974 1206 1468 1745 1759 1705 1734 2016 1893
610 645 716 1568 1893 1644 1465 1583 1496 1633 1792 1789 1745 1681 1394 1768 1326 1431 1537 1503 1458 1495 1638 1252 855 697 1067 1191 1268 992 955 1310 747 1075 1098 1179 1410 1558 1938 1891 1334 1178 1251
383 650 627 1296 1750 1575 1630 1204 1247 1353 1150 1588 1534 1609 1484 1579 1708 1225 1600 1494 1285 1658 1756 1909 1395 862 604 838 855 746 897 1007 240 739 496 757 1493 1651 1656 1792 1812 1527 1486
319 470 432 672 1249 1626 1539 1455 1458 1276 1704 1413 1604 1678 1636 1679 1230 1104 1596 1447 1391 1497 1657 1639 1700 1374 1040 475 129 7 137 364 387 384 379 295 812 782 759 698 666 652 634
505 649 621 346 665 778 943 1485 1479 1518 1742 1714 1556 1571 1444 1047 789 999 1073 1300 1288 1432 1390 1504 1594 1345 1073 753 429 40 0 28 115 195 87 263 707 661 638 677 801 916 984
482 538 624 552 1245 1404 909 1037 1567 1537 1636 1105 931 1373 897 355 600 1089 884 1114 1034 1042 973 950 842 969 1296 1030 414 587 673 184 56 124 3 383 690 674 671 627 550 588 769
252 541 382 677 648 904 821 1294 1042 1281 1386 896 513 690 427 992 473 518 1121 1198 1089 1006 918 528 393 669 1126 1608 1202 987 914 30 115 154 74 318 575 542 480 524 688 805 1150
112 578 502 523 908 913 927 1188 1203 646 511 630 628 572 286 293 542 136 468 631 416 622 611 760 957 1170 662 674 425 155 253 104 147 145 37 339 660 724 648 589 706 998 1292
143 400 558 626 901 934 982 764 921 821 501 464 643 648 738 341 497 396 452 612 577 280 548 950 389 685 584 500 369 243 178 105 173 155 36 172 349 676 1038 958 930 1105 1430
144 441 381 1005 1144 1333 847 765 851 653 662 581 854 908 656 405 566 608 722 630 873 292 451 468 692 866 532 671 370 170 153 172 237 252 224 108 248 518 915 1110 1259 1370 1517
204 397 503 940 1157 945 1239 1076 689 728 846 897 894 1038 1402 769 926 749 876 651 579 706 526 527 1037 923 400 398 284 173 153 227 316 355 392 269 256 477 686 798 1039 1218 1362
256 385 435 869 1051 1137 920 803 696 503 519 689 1372 1454 1252 1078 1560 997 777 909 517 1093 1253 797 1040 788 393 202 474 464 314 303 466 601 547 600 461 482 612 738 916 1030 1145
265 383 524 716 920 1071 1233 1254 569 724 599 970 979 1071 1309 1563 1551 1823 823 734 1035 1244 743 518 687 651 450 251 281 431 425 451 669 719 666 799 865 937 715 739 800 818 869
235 332 510 715 1009 1224 1244 1002 820 786 897 1016 949 999 1385 1412 1593 1719 1002 1243 2061 892 884 841 646 526 491 273 266 341 382 466 702 657 834 1035 909 822 1263 985 1050 964 964
193 307 430 562 1027 1103 994 1364 1149 940 907 917 989 1600 1334 1255 1575 2106 1184 1539 2740 925 1287 2309 2108 1078 960 439 431 387 372 345 527 649 850 845 797 1045 1239 1659 1843 1872 1425
75 215 369 584 1016 1180 916 740 913 786 934 814 1138 1439 1518 1351 1741 2207 1228 1649 1600 1955 1801 1577 1548 1742 1106 865 616 418 431 376 313 434 424 511 867 654 1028 1180 2127 2451 1912
81 218 358 643 1055 1159 994 1112 1135 721 1022 842 1138 1187 1342 1510 1808 1687 2000 1241 1599 1374 1920 2011 1968 1687 877 1067 1705 517 315 130 57 120 347 465 612 792 690 1140 1797 2017 2810
70 229 511 680 1122 1247 1195 1039 1409 1411 1542 911 993 1082 1210 1552 1705 1820 1809 1829 1807 1694 1952 2021 2347 1549 910 860 1271 1244 1152 808 583 242 378 415 804 784 875 983 1389 1951 2455
202 174 419 711 915 1145 1334 1011 833 974 669 489 847 1316 1102 1337 1475 1469 1595 1749 1992 1829 1835 1489 1334 2218 1310 1561 658 542 1336 1336 1037 450 12 52 626 868 1149 1046 1044 1363 1620
222 333 244 676 1060 983 1069 1073 1044 725 711 1089 881 1320 1258 1299 1416 1075 1491 1647 1793 1219 1268 2151 2057 1898 2009 1045 801 810 999 539 456 322 278 169 73 443 534 634 606 773 1102
218 414 357 572 917 1082 1042 886 1059 752 836 788 855 1144 923 897 1018 1028 1264 1623 1721 1398 1559 1623 1844 2048 2119 2176 1491 925 450 568 359 408 270 344 306 442 341 508 691 814 1009

GFSSE_con_mlcape_129.txt.gz
CAPE
1 10 77 180 24 3 27 85 177 222 232 682 1225 1521 1344 1322 1455 1396 1359 1579 1611 1659 1500 1596 1642 2006 1559 1590 1481 1670 1568 1613 1466 1423 1677 1244 1186 1100 1247 1606 1745 1917 1877
0 71 122 283 117 70 104 102 161 356 346 1230 1050 1421 1506 1557 1575 1581 1587 1581 1510 1544 1583 1550 1326 1652 1487 1391 1239 1344 1595 1399 1168 1569 1559 1501 1343 1357 1677 1826 1995 1930 1980
63 253 356 437 276 168 94 56 64 443 977 735 1441 1544 1532 1523 1434 1393 1502 1291 1332 1589 1600 1607 1555 1591 1536 1454 1176 1154 1326 1178 1466 1333 416 416 993 1783 1927 1571 1601 1714 1812
133 540 520 627 607 268 212 638 1211 1383 1263 1137 1340 1597 1506 1324 1461 1389 1342 1523 1578 1315 1313 1485 1679 1701 1495 1113 717 784 758 783 991 754 332 585 732 1178 868 1036 1062 1109 1270
158 524 381 816 902 889 829 1218 1217 1594 1306 1374 1526 1564 1396 1205 1307 1387 1420 1548 1556 1666 1698 1681 1644 1589 1423 1102 904 644 770 670 920 942 530 688 1239 1640 1932 1960 1906 1914 1563
367 431 959 1245 1020 1263 1489 1515 1380 1514 1019 1131 1533 1575 1099 1051 989 1346 1425 1544 1554 1616 1748 1449 1340 1396 1390 1200 987 856 960 910 1017 937 1222 1350 1463 1908 1991 1702 1621 1477 1421
518 1159 1364 1404 1120 1681 1263 1552 1376 1430 1453 1308 1493 1677 1356 1435 1524 1501 1434 1609 1173 1006 1245 1120 1031 898 816 981 995 871 1211 1490 1028 943 711 462 1349 1751 1149 1124 1486 1402 1376
657 1209 1529 1596 1583 1389 980 1226 1346 1467 1561 1594 1625 1521 1463 1501 1451 1435 1478 1551 1134 723 298 457 419 333 357 366 457 620 798 1254 851 895 861 1228 1790 1992 1700 1332 1283 1408 1413
492 1266 1392 1493 1427 1496 1494 1447 1669 1536 1551 1524 1461 1749 1244 1564 1529 1471 1583 1619 1612 1297 1010 385 50 0 0 14 51 153 206 739 764 768 603 742 914 1042 953 665 571 575 503
444 843 1000 1384 1258 1294 1315 1165 1550 1437 1472 1511 1561 1594 1043 1462 1484 1249 1199 1482 1379 1371 1297 966 603 105 0 0 12 15 101 284 202 186 131 87 405 507 524 646 789 781 730
82 483 748 840 945 970 1084 1252 1660 1309 1636 1712 1520 1190 821 766 959 1171 801 1192 1144 1244 1267 1109 831 287 40 79 76 0 82 108 32 29 0 158 435 638 682 573 511 616 804
155 293 754 791 901 750 1160 1272 1400 1109 990 690 614 618 589 592 746 700 507 778 912 787 779 1021 1042 923 700 170 21 241 630 687 0 0 18 262 496 558 471 469 602 741 1057
2 272 191 552 643 645 638 1227 677 722 734 782 570 526 694 901 812 312 297 394 360 457 370 633 685 967 963 1053 1213 647 503 5 0 0 72 245 340 395 484 499 551 790 1065
0 49 135 422 487 514 722 337 272 699 701 268 602 813 277 10 35 84 120 171 175 254 534 576 651 826 727 883 1003 1173 478 0 21 8 66 230 358 528 521 574 657 825 1056
10 171 369 225 32 416 638 360 369 767 227 426 403 283 179 338 228 282 411 528 644 566 621 541 423 626 500 185 328 59 17 11 9 0 69 208 349 512 725 848 913 1044 1202
154 407 380 55 124 131 1 300 583 687 367 70 258 508 824 199 148 513 295 446 832 674 690 606 643 780 733 35 9 0 28 69 51 19 41 171 254 369 580 820 952 1065 1197
585 847 644 77 450 142 154 536 105 371 404 551 953 1098 428 439 831 880 641 745 968 500 585 422 440 817 363 107 60 40 61 162 174 95 83 111 238 354 463 664 762 800 910
622 650 549 819 1180 908 836 146 260 161 832 695 750 1183 1057 1017 739 1154 1427 622 459 590 707 560 554 551 260 69 90 211 96 106 204 253 262 266 225 245 380 552 839 892 913
553 401 465 635 587 633 587 1034 493 723 770 656 802 754 1076 1199 1210 1384 869 1309 1181 291 578 506 1479 1613 603 110 190 198 141 220 121 310 460 548 478 347 348 406 681 958 1040
362 456 611 557 731 875 752 1075 539 589 88 444 686 877 1335 1395 1338 1113 608 672 551 380 466 148 1190 907 1209 727 238 267 254 232 282 294 271 82 98 175 319 148 151 122 248
219 283 451 470 653 506 904 877 662 518 116 845 658 1453 872 1348 1164 1423 997 203 126 300 57 26 498 317 367 251 1308 578 370 161 125 67 95 10 19 41 71 89 0 18 12
142 217 470 743 630 388 959 829 549 808 823 731 494 1445 1008 1008 1682 1450 713 635 0 0 7 249 90 83 0 42 627 20 414 506 62 102 79 32 0 1 129 150 12 20 183
117 37 591 686 676 568 1017 862 932 705 330 545 914 1302 833 1441 1275 1403 1209 496 259 557 587 381 0 58 131 0 199 166 258 246 14 0 0 31 18 3 53 93 105 90 43
117 59 452 579 457 696 821 675 650 584 379 15 736 797 949 1100 1188 1431 1590 1318 146 109 111 676 33 443 18 0 0 292 39 3 0 123 0 10 18 35 0 0 0 79 76
103 132 309 521 486 693 932 993 434 391 495 796 522 1193 760 739 1199 1157 1246 1556 787 584 882 1153 846 463 614 337 0 42 0 3 103 5 47 58 1 7 4 25 6 0 72
94 96 296 277 313 289 540 654 809 622 561 432 715 848 967 759 956 768 1005 1128 1423 1453 1276 1561 1337 1465 1552 874 655 423 369 976 480 198 64 231 77 36 11 1 60 0 350